[[{"header":{"parameterUnit":"m.s-1","parameterCategory":1,"la1":31.0,"la2":29.5877,"lo1":-88.7671,"lo2":-86.6584,"dy":0.0162,"dx":0.0185,"nx":115,"ny":88,"refTime":"2025-05-14T12:00:00:Z","depth":0,"parameterNumber":2,"parameterNumberName":"U-component_of_WINDS"},"data":[0.0,0.0,0.0,0.0,0.0,0.0,0.0,0.0,0.0,0.0,0.0,0.0,0.0,0.0,0.0,0.0,0.0,0.0,0.0,0.0,0.0,0.0,0.0,0.0,0.0,0.0,0.0,0.0,0.0,0.0,0.0,0.0,0.0,0.0,0.0,0.0,0.0,0.0,0.0,0.0,0.0,0.0,0.0,0.0,0.0,0.0,0.0,0.0,0.0,0.0,0.0,0.0,0.0,0.0,0.0,0.0,0.0,0.0,0.0,0.0,0.0,0.0,0.0,0.0,0.0,0.0,0.0,0.0,0.0,0.0,0.0,0.0,0.0,0.0,0.0,0.0,0.0,0.0,0.0,0.0,0.0,0.0,0.0,0.0,0.0,0.0,0.0,0.0,0.0,0.0,0.0,0.0,0.0,0.0,0.0,0.0,0.0,0.0,0.0,0.0,0.0,0.0,0.0,0.0,0.0,0.0,0.0,0.0,0.0,0.0,0.0,0.0,0.0,0.0,0.0,0.0,0.0,0.0,0.0,0.0,0.0,0.0,0.0,0.0,0.0,0.0,0.0,0.0,0.0,0.0,0.0,0.0,0.0,0.0,0.0,0.0,0.0,0.0,0.0,0.0,0.0,0.0,0.0,0.0,0.0,0.0,0.0,0.0,0.0,0.0,0.0,0.0,0.0,0.0,0.0,0.0,0.0,0.0,0.0,0.0,0.0,0.0,0.0,0.0,0.0,0.0,0.0,0.0,0.0,0.0,0.0,0.0,0.0,0.0,0.0,0.0,0.0,0.0,0.0,0.0,0.0,0.0,0.0,0.0,0.0,0.0,0.0,0.0,0.0,0.0,0.0,0.0,0.0,0.0,0.0,0.0,0.0,0.0,0.0,0.0,0.0,0.0,0.0,0.0,0.0,0.0,0.0,0.0,0.0,0.0,0.0,0.0,0.0,0.0,0.0,0.0,0.0,0.0,0.0,0.0,0.0,0.0,0.0,0.0,0.0,0.0,0.0,0.0,0.0,0.0,0.0,0.0,0.0,0.0,0.0,0.0,0.0,0.0,0.0,0.0,0.0,0.0,0.0,0.0,0.0,0.0,0.0,0.0,0.0,0.0,0.0,0.0,0.0,0.0,0.0,0.0,0.0,0.0,0.0,0.0,0.0,0.0,0.0,0.0,0.0,0.0,0.0,0.0,0.0,0.0,0.0,0.0,0.0,0.0,0.0,0.0,0.0,0.0,0.0,0.0,0.0,0.0,0.0,0.0,0.0,0.0,0.0,0.0,0.0,0.0,0.0,0.0,0.0,0.0,0.0,0.0,0.0,0.0,0.0,0.0,0.0,0.0,0.0,0.0,0.0,0.0,0.0,0.0,0.0,0.0,0.0,0.0,0.0,0.0,0.0,0.0,0.0,0.0,0.0,0.0,0.0,0.0,0.0,0.0,0.0,0.0,0.0,0.0,0.0,0.0,0.0,0.0,0.0,0.0,0.0,0.0,0.0,0.0,0.0,0.0,0.0,0.0,0.0,0.0,0.0,0.0,0.0,0.0,0.0,0.0,0.0,0.0,0.0,0.0,0.0,0.0,0.0,0.0,0.0,0.0,0.0,0.0,0.0,0.0,0.0,0.0,0.0,0.0,0.0,0.0,0.0,0.0,0.0,0.0,0.0,0.0,0.0,0.0,0.0,0.0,0.0,0.0,0.0,0.0,0.0,0.0,0.0,0.0,0.0,0.0,0.0,0.0,0.0,0.0,0.0,0.0,0.0,0.0,0.0,0.0,0.0,0.0,0.0,0.0,0.0,0.0,0.0,0.0,0.0,0.0,0.0,0.0,0.0,0.0,0.0,0.0,0.0,0.0,0.0,0.0,0.0,0.0,0.0,0.0,0.0,0.0,0.0,0.0,0.0,0.0,0.0,0.0,0.0,0.0,0.0,0.0,0.0,0.0,0.0,0.0,0.0,0.0,0.0,0.0,0.0,0.0,0.0,0.0,0.0,0.0,0.0,0.0,0.0,0.0,0.0,0.0,0.0,0.0,0.0,0.0,0.0,0.0,0.0,0.0,0.0,0.0,0.0,0.0,0.0,0.0,0.0,0.0,0.0,0.0,0.0,0.0,0.0,0.0,0.0,0.0,0.0,0.0,0.0,0.0,0.0,0.0,0.0,0.0,0.0,0.0,0.0,0.0,0.0,0.0,0.0,0.0,0.0,0.0,0.0,0.0,0.0,0.0,0.0,0.0,0.0,0.0,0.0,0.0,0.0,0.0,0.0,0.0,0.0,0.0,0.0,0.0,0.0,0.0,0.0,0.0,0.0,0.0,0.0,0.0,0.0,0.0,0.0,0.0,0.0,0.0,0.0,0.0,0.0,0.0,0.0,0.0,0.0,0.0,0.0,0.0,0.0,0.0,0.0,0.0,0.0,0.0,0.0,0.0,0.0,0.0,0.0,0.0,0.0,0.0,0.0,0.0,0.0,0.0,0.0,0.0,0.0,0.0,0.0,0.0,0.0,0.0,0.0,0.0,0.0,0.0,0.0,0.0,0.0,0.0,0.0,0.0,0.0,0.0,0.0,0.0,0.0,0.0,0.0,0.0,0.0,0.0,0.0,0.0,0.0,0.0,0.0,0.0,0.0,0.0,0.0,0.0,0.0,0.0,0.0,0.0,0.0,0.0,0.0,0.0,0.0,0.0,0.0,0.0,0.0,0.0,0.0,0.0,0.0,0.0,0.0,0.0,0.0,0.0,0.0,0.0,0.0,0.0,0.0,0.0,0.0,0.0,0.0,0.0,0.0,0.0,0.0,0.0,0.0,0.0,0.0,0.0,0.0,0.0,0.0,0.0,0.0,0.0,0.0,0.0,0.0,0.0,0.0,0.0,0.0,0.0,0.0,0.0,0.0,0.0,0.0,0.0,0.0,0.0,0.0,0.0,0.0,0.0,0.0,0.0,0.0,0.0,0.0,0.0,0.0,0.0,0.0,0.0,0.0,0.0,0.0,0.0,0.0,0.0,0.0,0.0,0.0,0.0,0.0,0.0,0.0,0.0,0.0,0.0,0.0,0.0,0.0,0.0,0.0,0.0,0.0,0.0,0.0,0.0,0.0,0.0,0.0,0.0,0.0,0.0,0.0,0.0,0.0,0.0,0.0,0.0,0.0,0.0,0.0,0.0,0.0,0.0,0.0,0.0,0.0,0.0,0.0,0.0,0.0,0.0,0.0,0.0,0.0,0.0,0.0,0.0,0.0,0.0,0.0,0.0,0.0,0.0,0.0,0.0,0.0,0.0,0.0,0.0,0.0,0.0,0.0,0.0,0.0,0.0,0.0,0.0,0.0,0.0,0.0,0.0,0.0,0.0,0.0,0.0,0.0,0.0,0.0,0.0,0.0,0.0,0.0,0.0,0.0,0.0,0.0,0.0,0.0,0.0,0.0,0.0,0.0,0.0,0.0,0.0,0.0,0.0,0.0,0.0,0.0,0.0,0.0,0.0,0.0,0.0,0.0,0.0,0.0,0.0,0.0,0.0,0.0,0.0,0.0,0.0,0.0,0.0,0.0,0.0,0.0,0.0,0.0,0.0,0.0,0.0,0.0,0.0,0.0,0.0,0.0,0.0,0.0,0.0,0.0,0.0,0.0,0.0,0.0,0.0,0.0,0.0,0.0,0.0,0.0,0.0,0.0,0.0,0.0,0.0,0.0,0.0,0.0,0.0,0.0,0.0,0.0,0.0,0.0,0.0,0.0,0.0,0.0,0.0,0.0,0.0,0.0,0.0,0.0,0.0,0.0,0.0,0.0,0.0,0.0,0.0,0.0,0.0,0.0,0.0,0.0,0.0,0.0,0.0,0.0,0.0,0.0,0.0,0.0,0.0,0.0,0.0,0.0,0.0,0.0,0.0,0.0,0.0,0.0,0.0,0.0,0.0,0.0,0.0,0.0,0.0,0.0,0.0,0.0,0.0,0.0,0.0,0.0,0.0,0.0,0.0,0.0,0.0,0.0,0.0,0.0,0.0,0.0,0.0,0.0,0.0,0.0,0.0,0.0,0.0,0.0,0.0,0.0,0.0,0.0,0.0,0.0,0.0,0.0,0.0,0.0,0.0,0.0,0.0,0.0,0.0,0.0,0.0,0.0,0.0,0.0,0.0,0.0,0.0,0.0,0.0,0.0,0.0,0.0,0.0,0.0,0.0,0.0,0.0,0.0,0.0,0.0,0.0,0.0,0.0,0.0,0.0,0.0,0.0,0.0,0.0,0.0,0.0,0.0,0.0,0.0,0.0,0.0,0.0,-3.5346,0.0,0.0,0.0,0.0,0.0,0.0,0.0,0.0,0.0,0.0,0.0,0.0,0.0,0.0,0.0,0.0,0.0,0.0,0.0,0.0,0.0,0.0,0.0,0.0,0.0,0.0,0.0,0.0,0.0,0.0,0.0,0.0,0.0,0.0,0.0,0.0,0.0,0.0,0.0,0.0,0.0,0.0,0.0,0.0,0.0,0.0,0.0,0.0,0.0,0.0,0.0,0.0,0.0,0.0,0.0,0.0,0.0,0.0,0.0,0.0,0.0,0.0,0.0,0.0,0.0,0.0,0.0,0.0,0.0,0.0,0.0,0.0,0.0,0.0,0.0,0.0,0.0,0.0,0.0,0.0,0.0,0.0,0.0,0.0,0.0,0.0,0.0,0.0,0.0,0.0,0.0,0.0,0.0,0.0,0.0,0.0,0.0,0.0,0.0,0.0,0.0,0.0,0.0,0.0,0.0,0.0,0.0,0.0,0.0,0.0,-3.7815,-3.8661,-3.7853,-3.7,-3.6154,0.0,0.0,0.0,0.0,0.0,0.0,0.0,0.0,0.0,0.0,0.0,0.0,0.0,0.0,0.0,0.0,0.0,0.0,0.0,0.0,0.0,0.0,0.0,0.0,0.0,0.0,0.0,0.0,0.0,0.0,0.0,0.0,0.0,0.0,0.0,0.0,0.0,0.0,0.0,0.0,0.0,0.0,0.0,0.0,0.0,0.0,0.0,0.0,0.0,0.0,0.0,0.0,0.0,0.0,0.0,0.0,0.0,0.0,0.0,0.0,0.0,0.0,0.0,0.0,0.0,0.0,0.0,0.0,0.0,0.0,0.0,0.0,0.0,0.0,0.0,0.0,0.0,0.0,0.0,0.0,0.0,0.0,0.0,0.0,0.0,0.0,0.0,0.0,0.0,0.0,0.0,0.0,0.0,0.0,0.0,0.0,0.0,0.0,0.0,0.0,0.0,0.0,0.0,0.0,0.0,0.0,0.0,0.0,0.0,0.0,0.0,0.0,-3.9215,-3.8199,-3.7116,0.0,0.0,0.0,0.0,0.0,0.0,0.0,0.0,0.0,0.0,0.0,0.0,0.0,0.0,0.0,0.0,0.0,0.0,0.0,0.0,0.0,0.0,0.0,0.0,0.0,0.0,0.0,0.0,0.0,0.0,0.0,0.0,0.0,0.0,0.0,0.0,0.0,0.0,0.0,0.0,0.0,0.0,0.0,0.0,0.0,0.0,0.0,0.0,0.0,0.0,0.0,0.0,0.0,0.0,0.0,0.0,0.0,0.0,0.0,0.0,0.0,0.0,0.0,0.0,0.0,0.0,0.0,0.0,0.0,0.0,0.0,0.0,0.0,0.0,0.0,0.0,0.0,0.0,0.0,0.0,0.0,0.0,0.0,0.0,0.0,0.0,0.0,0.0,0.0,0.0,0.0,0.0,0.0,0.0,0.0,0.0,0.0,0.0,0.0,0.0,0.0,0.0,0.0,0.0,0.0,0.0,0.0,0.0,0.0,0.0,-3.9508,-4.2624,-4.1533,0.0,-3.8331,0.0,0.0,0.0,0.0,0.0,0.0,0.0,0.0,0.0,0.0,0.0,0.0,0.0,0.0,0.0,0.0,0.0,0.0,0.0,0.0,0.0,0.0,0.0,0.0,0.0,0.0,0.0,0.0,0.0,0.0,0.0,0.0,0.0,0.0,0.0,0.0,0.0,0.0,0.0,0.0,0.0,0.0,0.0,0.0,0.0,0.0,0.0,0.0,0.0,0.0,0.0,0.0,0.0,0.0,0.0,0.0,0.0,0.0,0.0,0.0,0.0,0.0,0.0,0.0,0.0,0.0,0.0,0.0,0.0,0.0,0.0,0.0,0.0,0.0,0.0,0.0,0.0,0.0,0.0,0.0,0.0,0.0,0.0,0.0,0.0,0.0,0.0,0.0,0.0,0.0,0.0,0.0,0.0,0.0,0.0,0.0,0.0,0.0,0.0,0.0,0.0,0.0,0.0,0.0,0.0,0.0,0.0,0.0,0.0,0.0,0.0,-4.1925,-4.0805,-3.9373,0.0,0.0,0.0,0.0,0.0,0.0,0.0,0.0,0.0,0.0,0.0,0.0,0.0,0.0,0.0,0.0,0.0,0.0,0.0,0.0,0.0,0.0,0.0,0.0,0.0,0.0,0.0,0.0,0.0,0.0,0.0,0.0,0.0,0.0,0.0,0.0,0.0,0.0,0.0,0.0,0.0,0.0,0.0,0.0,0.0,0.0,0.0,0.0,0.0,0.0,0.0,0.0,0.0,0.0,0.0,0.0,0.0,0.0,0.0,0.0,0.0,0.0,0.0,0.0,0.0,0.0,0.0,0.0,0.0,0.0,0.0,0.0,0.0,0.0,0.0,0.0,0.0,0.0,0.0,0.0,0.0,0.0,0.0,0.0,0.0,0.0,0.0,0.0,0.0,0.0,0.0,0.0,0.0,0.0,0.0,0.0,0.0,0.0,0.0,0.0,0.0,0.0,0.0,0.0,0.0,0.0,0.0,0.0,0.0,0.0,-3.9815,0.0,-4.1678,-4.0915,-3.9314,-3.698,0.0,0.0,0.0,0.0,0.0,0.0,0.0,0.0,0.0,0.0,0.0,0.0,0.0,0.0,0.0,0.0,0.0,0.0,0.0,0.0,0.0,0.0,0.0,0.0,0.0,0.0,0.0,0.0,0.0,0.0,0.0,0.0,0.0,0.0,0.0,0.0,0.0,0.0,0.0,0.0,0.0,0.0,0.0,0.0,0.0,0.0,0.0,0.0,0.0,0.0,0.0,0.0,0.0,0.0,0.0,0.0,0.0,0.0,0.0,0.0,0.0,0.0,0.0,0.0,0.0,0.0,0.0,0.0,0.0,0.0,0.0,0.0,0.0,0.0,0.0,0.0,0.0,0.0,0.0,0.0,0.0,0.0,0.0,0.0,0.0,0.0,0.0,0.0,0.0,0.0,0.0,0.0,0.0,0.0,0.0,0.0,0.0,0.0,0.0,0.0,0.0,0.0,0.0,0.0,0.0,0.0,0.0,0.0,0.0,-4.1239,-4.136,-4.3139,-4.2819,-4.0659,0.0,0.0,0.0,0.0,0.0,0.0,0.0,0.0,0.0,0.0,0.0,0.0,0.0,0.0,0.0,0.0,0.0,0.0,0.0,0.0,0.0,0.0,0.0,0.0,0.0,0.0,0.0,0.0,0.0,0.0,0.0,0.0,0.0,0.0,0.0,0.0,0.0,0.0,0.0,0.0,0.0,0.0,0.0,0.0,0.0,0.0,0.0,0.0,0.0,0.0,0.0,0.0,0.0,0.0,0.0,0.0,0.0,0.0,0.0,0.0,0.0,0.0,0.0,0.0,0.0,0.0,0.0,0.0,0.0,0.0,0.0,0.0,0.0,0.0,0.0,0.0,0.0,0.0,0.0,0.0,0.0,0.0,0.0,0.0,0.0,0.0,0.0,0.0,0.0,0.0,0.0,0.0,0.0,0.0,0.0,0.0,0.0,0.0,0.0,0.0,0.0,0.0,0.0,0.0,0.0,0.0,0.0,0.0,0.0,-3.8146,-3.8775,-4.1097,-4.5019,-4.1505,-3.8914,0.0,0.0,0.0,0.0,0.0,0.0,0.0,0.0,0.0,0.0,0.0,0.0,0.0,0.0,0.0,0.0,0.0,0.0,0.0,0.0,0.0,0.0,0.0,0.0,0.0,0.0,0.0,0.0,0.0,0.0,0.0,0.0,0.0,0.0,0.0,0.0,0.0,0.0,0.0,0.0,0.0,0.0,0.0,0.0,0.0,0.0,0.0,0.0,0.0,0.0,0.0,0.0,0.0,0.0,0.0,0.0,0.0,0.0,0.0,0.0,0.0,0.0,0.0,0.0,0.0,0.0,0.0,0.0,0.0,0.0,0.0,0.0,0.0,0.0,0.0,0.0,0.0,0.0,0.0,0.0,0.0,0.0,0.0,0.0,0.0,0.0,0.0,0.0,0.0,0.0,0.0,0.0,0.0,0.0,0.0,0.0,0.0,0.0,0.0,0.0,0.0,0.0,0.0,0.0,0.0,0.0,0.0,0.0,0.0,-3.7745,0.0,-4.1972,0.0,-4.0886,-3.8065,0.0,0.0,0.0,0.0,0.0,0.0,0.0,0.0,0.0,0.0,0.0,0.0,0.0,0.0,0.0,0.0,0.0,0.0,0.0,0.0,0.0,0.0,0.0,0.0,0.0,0.0,0.0,0.0,0.0,0.0,0.0,0.0,0.0,0.0,0.0,0.0,0.0,0.0,0.0,0.0,0.0,0.0,0.0,0.0,0.0,0.0,0.0,0.0,0.0,0.0,0.0,0.0,0.0,0.0,0.0,0.0,0.0,0.0,0.0,0.0,0.0,0.0,0.0,0.0,0.0,0.0,0.0,0.0,0.0,0.0,0.0,0.0,0.0,0.0,0.0,0.0,0.0,0.0,0.0,0.0,0.0,0.0,0.0,0.0,0.0,0.0,0.0,0.0,0.0,0.0,0.0,0.0,0.0,0.0,0.0,0.0,0.0,0.0,0.0,0.0,0.0,0.0,0.0,0.0,0.0,0.0,0.0,0.0,-3.7852,-4.2237,-4.411,-4.402,-4.1922,-4.1314,-3.8417,0.0,0.0,0.0,0.0,0.0,0.0,0.0,0.0,0.0,0.0,0.0,0.0,0.0,0.0,0.0,0.0,0.0,0.0,0.0,0.0,0.0,0.0,0.0,0.0,0.0,0.0,0.0,0.0,0.0,0.0,0.0,0.0,0.0,0.0,0.0,0.0,0.0,0.0,0.0,0.0,0.0,0.0,0.0,0.0,0.0,0.0,0.0,0.0,0.0,0.0,0.0,0.0,0.0,0.0,0.0,0.0,0.0,0.0,0.0,0.0,0.0,0.0,0.0,0.0,0.0,0.0,0.0,0.0,0.0,0.0,0.0,0.0,0.0,0.0,0.0,0.0,0.0,0.0,0.0,0.0,0.0,0.0,0.0,0.0,0.0,0.0,0.0,0.0,0.0,0.0,0.0,0.0,0.0,0.0,0.0,0.0,0.0,0.0,0.0,0.0,0.0,0.0,0.0,0.0,0.0,0.0,0.0,0.0,0.0,-4.1014,-4.2626,-4.4406,-4.6005,-4.1818,-3.9423,0.0,0.0,0.0,0.0,0.0,0.0,0.0,0.0,0.0,0.0,0.0,0.0,0.0,0.0,0.0,0.0,0.0,0.0,0.0,0.0,0.0,0.0,0.0,0.0,0.0,0.0,0.0,0.0,0.0,0.0,0.0,0.0,0.0,0.0,0.0,0.0,0.0,0.0,0.0,0.0,0.0,0.0,0.0,0.0,0.0,0.0,0.0,0.0,0.0,0.0,0.0,0.0,0.0,0.0,0.0,0.0,0.0,0.0,0.0,0.0,0.0,0.0,0.0,0.0,0.0,0.0,0.0,0.0,0.0,0.0,0.0,0.0,0.0,0.0,0.0,0.0,0.0,0.0,0.0,0.0,0.0,0.0,0.0,0.0,0.0,0.0,0.0,0.0,0.0,0.0,0.0,0.0,0.0,0.0,0.0,0.0,0.0,0.0,0.0,0.0,0.0,0.0,0.0,0.0,0.0,0.0,0.0,0.0,0.0,-4.3886,-4.5332,-4.6688,-4.7829,-4.3644,-4.1258,-4.0891,0.0,0.0,0.0,0.0,0.0,0.0,0.0,0.0,0.0,0.0,0.0,0.0,0.0,0.0,0.0,0.0,0.0,0.0,0.0,0.0,0.0,0.0,0.0,0.0,0.0,0.0,0.0,0.0,0.0,0.0,0.0,0.0,0.0,0.0,0.0,0.0,0.0,0.0,0.0,0.0,0.0,0.0,0.0,0.0,0.0,0.0,0.0,0.0,0.0,0.0,0.0,0.0,0.0,0.0,0.0,0.0,0.0,0.0,0.0,0.0,0.0,0.0,0.0,0.0,0.0,0.0,0.0,0.0,0.0,0.0,0.0,0.0,0.0,0.0,0.0,0.0,0.0,0.0,0.0,0.0,0.0,0.0,0.0,0.0,0.0,0.0,0.0,0.0,0.0,0.0,0.0,0.0,0.0,0.0,0.0,0.0,0.0,0.0,0.0,0.0,0.0,0.0,0.0,0.0,0.0,0.0,0.0,0.0,-4.9757,-5.152,-5.0875,-4.7846,-4.6617,-4.3864,0.0,0.0,0.0,0.0,0.0,0.0,0.0,0.0,0.0,0.0,0.0,0.0,0.0,0.0,0.0,0.0,0.0,0.0,0.0,0.0,0.0,0.0,0.0,0.0,0.0,0.0,0.0,0.0,0.0,0.0,0.0,0.0,0.0,0.0,0.0,0.0,0.0,0.0,0.0,0.0,0.0,0.0,0.0,0.0,0.0,0.0,0.0,0.0,0.0,0.0,0.0,0.0,0.0,0.0,0.0,0.0,0.0,0.0,0.0,0.0,0.0,0.0,0.0,0.0,0.0,0.0,0.0,0.0,0.0,0.0,0.0,0.0,0.0,0.0,0.0,0.0,0.0,0.0,0.0,0.0,0.0,0.0,0.0,0.0,0.0,0.0,0.0,0.0,0.0,0.0,0.0,0.0,0.0,0.0,0.0,0.0,0.0,0.0,0.0,0.0,0.0,0.0,0.0,0.0,0.0,0.0,0.0,0.0,0.0,-5.2291,-5.5574,-5.6322,-5.4289,-4.9994,-4.6801,0.0,0.0,0.0,0.0,0.0,0.0,0.0,0.0,0.0,0.0,0.0,0.0,0.0,0.0,0.0,0.0,0.0,0.0,0.0,0.0,0.0,0.0,0.0,0.0,0.0,0.0,0.0,0.0,0.0,0.0,0.0,0.0,0.0,0.0,0.0,0.0,0.0,0.0,0.0,0.0,0.0,0.0,0.0,0.0,0.0,0.0,0.0,0.0,0.0,0.0,0.0,0.0,0.0,0.0,0.0,0.0,0.0,0.0,0.0,0.0,0.0,0.0,0.0,0.0,0.0,0.0,0.0,0.0,0.0,0.0,0.0,0.0,0.0,0.0,0.0,0.0,0.0,0.0,0.0,0.0,0.0,0.0,0.0,0.0,0.0,0.0,0.0,0.0,0.0,0.0,0.0,0.0,0.0,0.0,0.0,0.0,0.0,0.0,0.0,0.0,0.0,0.0,0.0,0.0,0.0,0.0,0.0,0.0,-5.2109,-5.5684,-5.8634,-5.9942,-5.9318,-5.4488,-5.0342,0.0,0.0,0.0,0.0,0.0,0.0,0.0,0.0,0.0,0.0,0.0,0.0,0.0,0.0,0.0,0.0,0.0,0.0,0.0,0.0,0.0,0.0,0.0,0.0,0.0,0.0,0.0,0.0,0.0,0.0,0.0,0.0,0.0,0.0,0.0,0.0,0.0,0.0,0.0,0.0,0.0,0.0,0.0,0.0,0.0,0.0,0.0,0.0,0.0,0.0,0.0,0.0,0.0,0.0,0.0,0.0,0.0,0.0,0.0,0.0,0.0,0.0,0.0,0.0,0.0,0.0,0.0,0.0,0.0,0.0,0.0,0.0,0.0,0.0,0.0,0.0,0.0,0.0,0.0,0.0,0.0,0.0,0.0,0.0,0.0,0.0,0.0,0.0,0.0,0.0,0.0,0.0,0.0,0.0,0.0,0.0,0.0,0.0,0.0,0.0,0.0,0.0,0.0,0.0,0.0,0.0,0.0,0.0,-5.3995,-5.9184,-6.108,-6.2291,-6.2805,-5.8877,-5.3812,0.0,0.0,0.0,0.0,0.0,0.0,0.0,0.0,0.0,0.0,0.0,0.0,0.0,0.0,0.0,0.0,0.0,0.0,0.0,0.0,0.0,0.0,0.0,0.0,0.0,0.0,0.0,0.0,0.0,0.0,0.0,0.0,0.0,0.0,0.0,0.0,0.0,0.0,0.0,0.0,0.0,0.0,0.0,0.0,0.0,0.0,0.0,0.0,0.0,0.0,0.0,0.0,0.0,0.0,0.0,0.0,0.0,0.0,0.0,0.0,0.0,0.0,0.0,0.0,0.0,0.0,0.0,0.0,0.0,0.0,0.0,0.0,0.0,0.0,0.0,0.0,0.0,0.0,0.0,0.0,0.0,0.0,0.0,0.0,0.0,0.0,0.0,0.0,0.0,0.0,0.0,0.0,0.0,0.0,0.0,0.0,0.0,0.0,0.0,0.0,0.0,0.0,0.0,0.0,0.0,0.0,0.0,0.0,-5.7005,-6.0089,-6.3025,-6.4273,-6.3833,-5.8621,-5.3995,0.0,0.0,0.0,0.0,0.0,0.0,0.0,0.0,0.0,0.0,0.0,0.0,0.0,0.0,0.0,0.0,0.0,0.0,0.0,0.0,0.0,0.0,0.0,0.0,0.0,0.0,0.0,0.0,0.0,0.0,0.0,0.0,0.0,0.0,0.0,0.0,0.0,0.0,0.0,0.0,0.0,0.0,0.0,0.0,0.0,0.0,0.0,0.0,-3.6006,0.0,0.0,0.0,0.0,0.0,0.0,0.0,0.0,0.0,0.0,0.0,0.0,0.0,0.0,0.0,0.0,0.0,0.0,0.0,0.0,0.0,0.0,0.0,0.0,0.0,0.0,0.0,0.0,0.0,0.0,0.0,0.0,0.0,0.0,0.0,0.0,0.0,0.0,0.0,0.0,0.0,0.0,0.0,0.0,0.0,0.0,0.0,0.0,0.0,0.0,0.0,0.0,0.0,0.0,0.0,0.0,0.0,0.0,0.0,-5.9098,-6.2585,-6.442,-6.5118,-6.453,-6.0236,-5.5794,0.0,0.0,0.0,0.0,0.0,0.0,0.0,0.0,0.0,0.0,0.0,0.0,0.0,0.0,0.0,0.0,0.0,0.0,0.0,0.0,0.0,0.0,0.0,0.0,0.0,0.0,0.0,0.0,0.0,0.0,0.0,0.0,0.0,0.0,0.0,0.0,0.0,0.0,0.0,0.0,0.0,0.0,0.0,0.0,0.0,0.0,0.0,0.0,0.0,0.0,0.0,0.0,0.0,0.0,0.0,0.0,0.0,0.0,0.0,0.0,0.0,0.0,0.0,0.0,0.0,0.0,0.0,0.0,0.0,0.0,0.0,0.0,0.0,0.0,0.0,0.0,0.0,0.0,0.0,0.0,0.0,0.0,0.0,0.0,0.0,0.0,0.0,0.0,0.0,0.0,0.0,0.0,0.0,0.0,0.0,0.0,0.0,0.0,0.0,0.0,0.0,0.0,0.0,0.0,0.0,0.0,0.0,-5.5574,-6.0419,-6.5264,-6.5632,-6.5558,-6.5264,-6.2365,-5.807,-5.2417,0.0,0.0,0.0,0.0,0.0,0.0,0.0,0.0,0.0,0.0,0.0,0.0,0.0,0.0,0.0,0.0,0.0,0.0,0.0,0.0,0.0,0.0,0.0,0.0,0.0,0.0,0.0,0.0,0.0,0.0,0.0,0.0,0.0,0.0,0.0,0.0,0.0,0.0,-3.2883,-3.6531,0.0,0.0,0.0,0.0,0.0,0.0,0.0,0.0,-3.8082,0.0,0.0,0.0,0.0,0.0,0.0,0.0,0.0,0.0,0.0,0.0,0.0,0.0,0.0,0.0,0.0,0.0,0.0,0.0,0.0,0.0,0.0,0.0,0.0,0.0,0.0,0.0,0.0,0.0,0.0,0.0,0.0,0.0,0.0,0.0,0.0,0.0,0.0,0.0,0.0,0.0,0.0,0.0,0.0,0.0,0.0,0.0,0.0,0.0,0.0,0.0,0.0,0.0,0.0,0.0,0.0,-5.6455,-5.7519,-6.0676,-6.6145,-6.6953,-6.6659,-6.5338,-6.3429,-5.9465,-5.3298,0.0,0.0,0.0,0.0,0.0,0.0,0.0,0.0,0.0,0.0,0.0,0.0,0.0,0.0,0.0,0.0,0.0,0.0,0.0,0.0,0.0,0.0,0.0,0.0,0.0,0.0,0.0,0.0,0.0,0.0,0.0,0.0,0.0,0.0,0.0,0.0,0.0,0.0,0.0,-3.9819,-4.1469,0.0,0.0,0.0,0.0,0.0,0.0,0.0,0.0,-3.8699,0.0,0.0,0.0,0.0,0.0,0.0,0.0,0.0,0.0,0.0,0.0,0.0,0.0,0.0,0.0,0.0,0.0,0.0,0.0,0.0,0.0,0.0,0.0,0.0,0.0,0.0,0.0,0.0,0.0,0.0,0.0,0.0,0.0,0.0,0.0,0.0,0.0,0.0,0.0,0.0,0.0,0.0,0.0,0.0,0.0,0.0,0.0,0.0,0.0,0.0,0.0,0.0,0.0,0.0,0.0,-5.5794,-5.8988,-6.2622,-6.6953,-6.753,-6.6916,-6.5301,-6.245,-5.8487,0.0,0.0,0.0,0.0,0.0,0.0,0.0,0.0,0.0,0.0,0.0,0.0,0.0,0.0,0.0,0.0,0.0,0.0,0.0,0.0,0.0,0.0,0.0,0.0,0.0,0.0,0.0,0.0,0.0,0.0,0.0,0.0,0.0,0.0,0.0,0.0,0.0,0.0,0.0,0.0,-4.1343,-4.2487,-4.2797,0.0,0.0,0.0,0.0,0.0,0.0,-3.9963,-3.9313,0.0,0.0,0.0,0.0,0.0,0.0,0.0,0.0,0.0,0.0,0.0,0.0,0.0,0.0,0.0,0.0,0.0,0.0,0.0,0.0,0.0,0.0,0.0,0.0,0.0,0.0,0.0,0.0,0.0,0.0,0.0,0.0,0.0,0.0,0.0,0.0,0.0,0.0,0.0,0.0,0.0,0.0,0.0,0.0,0.0,0.0,0.0,0.0,0.0,0.0,0.0,0.0,0.0,0.0,0.0,-5.4546,-5.9722,-6.409,-6.7467,-6.7687,-6.6916,-6.5301,-6.1814,-5.779,0.0,0.0,0.0,0.0,0.0,0.0,0.0,0.0,0.0,0.0,0.0,0.0,0.0,0.0,0.0,0.0,0.0,0.0,0.0,0.0,0.0,0.0,0.0,0.0,0.0,0.0,0.0,0.0,0.0,0.0,0.0,0.0,0.0,0.0,0.0,0.0,0.0,0.0,0.0,0.0,0.0,-4.3763,-4.3875,-4.3238,0.0,0.0,0.0,0.0,-4.2176,-4.2066,0.0,0.0,0.0,0.0,0.0,0.0,0.0,0.0,0.0,0.0,0.0,0.0,0.0,0.0,0.0,0.0,0.0,0.0,0.0,0.0,0.0,0.0,0.0,0.0,0.0,0.0,0.0,0.0,0.0,0.0,0.0,0.0,0.0,0.0,0.0,0.0,0.0,0.0,0.0,0.0,0.0,0.0,0.0,0.0,0.0,0.0,0.0,0.0,0.0,0.0,0.0,0.0,0.0,0.0,0.0,0.0,-5.5244,-5.8877,-6.2952,-6.7393,-6.7687,-6.6916,-6.5338,-6.3392,-5.9478,0.0,0.0,0.0,0.0,0.0,0.0,0.0,0.0,0.0,0.0,0.0,0.0,0.0,0.0,0.0,0.0,0.0,0.0,0.0,0.0,0.0,0.0,0.0,0.0,0.0,0.0,0.0,0.0,0.0,0.0,0.0,0.0,0.0,0.0,0.0,0.0,0.0,0.0,0.0,0.0,0.0,-4.624,-4.3892,-4.4046,-4.4361,0.0,0.0,-4.4691,-4.6159,-4.7572,0.0,0.0,0.0,0.0,0.0,0.0,0.0,0.0,0.0,0.0,0.0,0.0,0.0,0.0,0.0,0.0,0.0,0.0,0.0,0.0,0.0,0.0,0.0,0.0,0.0,0.0,0.0,0.0,0.0,0.0,0.0,0.0,0.0,0.0,0.0,0.0,0.0,0.0,0.0,0.0,0.0,0.0,0.0,0.0,0.0,0.0,0.0,0.0,0.0,0.0,0.0,0.0,0.0,0.0,0.0,-4.8857,-5.5486,-6.0162,-6.42,-6.754,-6.7687,-6.6916,-6.5338,-6.234,-5.818,0.0,0.0,0.0,0.0,0.0,0.0,0.0,0.0,0.0,0.0,0.0,0.0,0.0,0.0,0.0,0.0,0.0,0.0,0.0,0.0,0.0,0.0,0.0,0.0,0.0,0.0,0.0,0.0,0.0,0.0,0.0,0.0,0.0,0.0,0.0,0.0,0.0,0.0,0.0,0.0,0.0,0.0,-4.6305,-4.6948,0.0,0.0,0.0,-4.7315,-4.8947,0.0,0.0,0.0,0.0,0.0,0.0,0.0,0.0,0.0,0.0,0.0,0.0,0.0,0.0,0.0,0.0,0.0,0.0,0.0,0.0,0.0,0.0,0.0,0.0,0.0,0.0,0.0,0.0,0.0,0.0,0.0,0.0,0.0,0.0,0.0,0.0,0.0,0.0,0.0,0.0,0.0,0.0,0.0,0.0,0.0,0.0,0.0,0.0,0.0,0.0,0.0,0.0,0.0,0.0,0.0,0.0,0.0,-5.5574,-6.141,-6.5448,-6.7577,-6.7687,-6.6916,-6.5338,-6.1924,0.0,0.0,0.0,0.0,0.0,0.0,0.0,0.0,0.0,0.0,0.0,0.0,0.0,0.0,0.0,0.0,0.0,0.0,0.0,0.0,0.0,0.0,0.0,0.0,0.0,0.0,0.0,-2.6629,0.0,0.0,0.0,0.0,0.0,0.0,0.0,0.0,0.0,0.0,0.0,0.0,0.0,0.0,-4.759,-4.8233,-4.9554,-5.0472,0.0,0.0,-5.0178,-5.1242,-5.0875,-4.9241,0.0,0.0,0.0,0.0,0.0,0.0,0.0,0.0,0.0,0.0,0.0,0.0,0.0,0.0,0.0,0.0,0.0,0.0,0.0,0.0,0.0,0.0,0.0,0.0,0.0,0.0,0.0,0.0,0.0,0.0,0.0,0.0,0.0,0.0,0.0,0.0,0.0,0.0,0.0,0.0,0.0,0.0,0.0,0.0,0.0,0.0,0.0,0.0,0.0,0.0,0.0,0.0,0.0,0.0,0.0,-5.5611,-6.1924,-6.6035,-6.7614,-6.7687,-6.6953,-6.5338,-6.3539,-5.9551,0.0,0.0,0.0,0.0,0.0,0.0,0.0,0.0,0.0,0.0,0.0,0.0,0.0,0.0,0.0,0.0,0.0,0.0,0.0,0.0,0.0,0.0,0.0,0.0,0.0,0.0,0.0,0.0,0.0,0.0,0.0,0.0,0.0,0.0,0.0,0.0,0.0,0.0,0.0,0.0,0.0,-4.8233,-4.8287,-5.0986,-5.2968,0.0,0.0,-5.3775,-5.3151,-5.484,-5.4121,-4.7957,0.0,0.0,0.0,0.0,0.0,0.0,0.0,0.0,0.0,0.0,0.0,0.0,0.0,0.0,0.0,0.0,0.0,0.0,0.0,0.0,0.0,0.0,0.0,0.0,0.0,0.0,0.0,0.0,0.0,0.0,0.0,0.0,0.0,0.0,0.0,0.0,0.0,0.0,0.0,0.0,0.0,0.0,0.0,0.0,0.0,0.0,0.0,0.0,0.0,0.0,0.0,0.0,0.0,-5.0692,-5.5574,-6.1998,-6.6072,-6.7614,-6.7687,-6.6916,-6.5338,-6.3661,-5.9771,0.0,0.0,0.0,0.0,0.0,0.0,0.0,0.0,0.0,0.0,0.0,0.0,0.0,0.0,0.0,0.0,0.0,0.0,0.0,0.0,0.0,0.0,0.0,0.0,0.0,0.0,0.0,0.0,-3.1653,-3.1998,-3.1814,0.0,0.0,0.0,0.0,0.0,0.0,0.0,0.0,0.0,0.0,-4.9811,-5.1793,-5.3555,0.0,0.0,-5.528,-5.539,-5.6051,-5.484,-5.2637,-4.915,-4.625,0.0,0.0,0.0,0.0,0.0,0.0,0.0,0.0,0.0,0.0,0.0,0.0,0.0,0.0,0.0,0.0,0.0,0.0,0.0,0.0,0.0,0.0,0.0,0.0,0.0,0.0,0.0,0.0,0.0,0.0,0.0,0.0,0.0,0.0,0.0,0.0,0.0,0.0,0.0,0.0,0.0,0.0,0.0,0.0,0.0,0.0,0.0,0.0,0.0,0.0,0.0,0.0,-5.0949,-5.5574,-6.1998,-6.6072,-6.765,-6.7687,-6.6916,-6.5338,-6.3661,-6.0102,0.0,0.0,0.0,0.0,0.0,0.0,0.0,0.0,0.0,0.0,0.0,0.0,0.0,0.0,0.0,0.0,0.0,0.0,0.0,0.0,0.0,0.0,0.0,0.0,0.0,0.0,0.0,0.0,-3.3623,-3.3293,-3.2032,0.0,0.0,0.0,0.0,0.0,0.0,0.0,0.0,0.0,0.0,-5.141,-5.4326,-5.5647,-5.6492,-5.7079,-5.6492,-5.6161,-5.6822,-5.473,-5.2181,-4.9554,0.0,0.0,0.0,0.0,0.0,0.0,0.0,0.0,0.0,0.0,0.0,0.0,0.0,0.0,0.0,0.0,0.0,0.0,0.0,0.0,0.0,0.0,0.0,0.0,0.0,0.0,0.0,-4.3497,0.0,0.0,-4.1132,0.0,0.0,0.0,0.0,0.0,0.0,0.0,0.0,0.0,0.0,0.0,0.0,0.0,0.0,0.0,0.0,0.0,0.0,0.0,0.0,0.0,0.0,-5.1593,-5.5633,-6.2034,-6.6072,-6.7614,-6.7687,-6.6916,-6.5338,-6.3661,-6.0896,-5.6748,0.0,0.0,0.0,0.0,0.0,0.0,0.0,0.0,0.0,0.0,0.0,0.0,0.0,0.0,0.0,0.0,0.0,0.0,0.0,0.0,0.0,0.0,0.0,0.0,0.0,0.0,-3.4734,-3.4284,-3.2926,0.0,0.0,0.0,0.0,0.0,0.0,0.0,0.0,0.0,0.0,-4.9407,-5.2821,-5.5265,-5.6932,-5.7886,-5.7923,-5.7299,-5.6271,-5.4876,-5.506,-5.3885,0.0,0.0,0.0,0.0,0.0,0.0,0.0,0.0,0.0,0.0,0.0,0.0,0.0,0.0,0.0,0.0,0.0,0.0,0.0,0.0,0.0,0.0,0.0,0.0,0.0,0.0,0.0,-5.0105,-4.8343,0.0,0.0,0.0,0.0,0.0,0.0,0.0,0.0,0.0,0.0,0.0,-5.5978,-5.6271,0.0,0.0,0.0,0.0,0.0,0.0,0.0,0.0,0.0,0.0,0.0,0.0,-5.238,-5.6455,-6.2254,-6.6072,-6.7614,-6.7173,-6.6402,-6.5338,-6.3661,-6.0419,-5.5354,0.0,0.0,0.0,0.0,0.0,0.0,0.0,0.0,0.0,0.0,0.0,0.0,0.0,0.0,0.0,0.0,0.0,0.0,0.0,0.0,0.0,0.0,0.0,0.0,0.0,-3.4417,0.0,0.0,0.0,0.0,0.0,0.0,0.0,0.0,0.0,0.0,0.0,-4.57,-4.9444,-5.205,-5.4252,-5.6161,-5.7299,-5.7997,0.0,0.0,0.0,0.0,0.0,0.0,0.0,0.0,0.0,0.0,0.0,0.0,0.0,0.0,-5.0539,-4.4465,-4.2627,-4.2009,-4.2009,0.0,0.0,0.0,0.0,0.0,0.0,0.0,0.0,0.0,0.0,0.0,0.0,0.0,0.0,-5.4509,0.0,-5.1573,0.0,0.0,0.0,0.0,0.0,0.0,0.0,0.0,-5.695,-5.9652,-6.0933,-6.1484,-6.1337,0.0,-5.8143,-5.4252,0.0,0.0,0.0,0.0,0.0,0.0,0.0,0.0,-5.3885,-5.7703,-6.2989,-6.6366,-6.7604,-6.6916,-6.6109,-6.5301,-6.3135,-5.9722,-5.495,-5.1977,-4.915,0.0,0.0,0.0,0.0,0.0,0.0,0.0,0.0,0.0,0.0,0.0,0.0,0.0,0.0,0.0,0.0,0.0,0.0,0.0,0.0,0.0,0.0,0.0,-3.6068,0.0,0.0,0.0,0.0,0.0,0.0,0.0,0.0,0.0,-4.3167,-4.5993,-4.9224,-5.2417,-5.4216,-5.5721,-5.7042,0.0,0.0,0.0,0.0,0.0,0.0,0.0,-5.3739,-5.3959,-5.2491,-5.1316,-5.161,-5.3628,-5.4803,-5.3424,0.0,0.0,-4.8766,-4.7241,-4.6874,-4.6874,-4.7939,-4.8636,-4.8122,-4.9517,-5.0692,0.0,0.0,0.0,0.0,0.0,0.0,0.0,0.0,-5.774,-5.7776,0.0,-5.5016,0.0,0.0,0.0,0.0,0.0,-5.3309,0.0,0.0,-6.2823,-6.5674,-6.6523,-6.6549,-6.6182,-6.5558,-6.6035,-6.387,-5.9038,-5.0729,0.0,0.0,0.0,0.0,0.0,0.0,-5.6088,-5.9294,-6.4016,-6.688,-6.764,-6.688,-6.6072,-6.5154,-6.2108,-5.8988,-5.5941,-5.4876,-5.227,-4.759,-4.5002,0.0,0.0,0.0,0.0,0.0,0.0,0.0,0.0,0.0,0.0,0.0,0.0,0.0,0.0,0.0,0.0,0.0,0.0,0.0,0.0,-3.7808,0.0,0.0,0.0,0.0,0.0,0.0,0.0,0.0,0.0,0.0,-4.5553,-4.9187,-5.2711,-5.4252,0.0,0.0,0.0,0.0,-5.7997,-5.7997,-5.7336,-5.6602,-5.5831,-5.6271,-5.5941,-5.3754,0.0,0.0,-5.3754,-5.528,-5.6065,-5.3791,-5.4766,-5.5684,-5.5537,-5.3995,-5.3078,-5.302,-5.2491,-5.216,-5.216,-5.2784,-5.3408,-6.6035,0.0,0.0,0.0,0.0,-6.2181,-6.442,-6.7467,-6.7247,-6.5668,-6.3085,-6.1547,0.0,0.0,0.0,0.0,0.0,0.0,-5.8023,-6.1356,-6.3863,-6.6489,-6.9045,-6.9045,-6.9229,-6.9559,-6.8054,-6.6329,-6.4273,-6.0089,-5.4509,-4.7939,0.0,0.0,0.0,0.0,-5.829,-6.097,-6.4604,-6.688,-6.765,-6.6366,-6.4971,-6.3514,-6.1484,-5.9979,-5.9061,-5.7152,-5.495,-5.238,-4.8857,0.0,0.0,0.0,0.0,0.0,0.0,0.0,0.0,0.0,0.0,0.0,0.0,0.0,0.0,0.0,0.0,0.0,0.0,0.0,-3.7734,-3.8946,-3.9386,0.0,0.0,0.0,0.0,0.0,0.0,0.0,0.0,0.0,-5.2417,-5.3686,-5.495,0.0,0.0,-5.7519,-5.7189,-5.7629,-5.7997,-5.7997,-5.7813,0.0,-5.7336,-5.6528,-5.6088,-5.6528,-5.7226,-5.7409,-5.6748,-5.7189,-5.7446,-5.6675,-5.6969,-5.7299,-5.7226,-5.6014,-5.4987,-5.4913,-5.517,-5.5427,-5.5464,-5.6051,-5.6602,-7.2716,-6.9119,-6.6586,-6.5888,-6.6549,-6.7357,-6.9412,-7.2239,-7.1908,-7.077,-6.9018,-6.751,-6.3558,-5.7878,-5.5719,0.0,0.0,0.0,-6.1514,-6.5118,-6.6085,-6.8123,-7.0926,-7.1064,-7.1138,-7.1248,-6.9816,-6.8715,-6.7907,-6.5778,-6.1557,-5.5427,0.0,0.0,-5.3518,-5.7409,-6.0603,-6.3062,-6.5632,-6.721,-6.765,-6.6145,-6.4347,-6.2401,-6.108,-6.0272,-5.9905,-5.8217,-5.6675,-5.539,-5.2087,-4.8636,0.0,0.0,0.0,0.0,0.0,0.0,0.0,0.0,0.0,0.0,0.0,-3.4027,0.0,0.0,0.0,0.0,-3.6046,-3.8689,-4.1332,-4.2286,0.0,0.0,0.0,0.0,0.0,0.0,0.0,-5.1132,-5.3628,-5.5611,-5.6859,-5.7299,-5.7666,-5.818,-5.8657,-5.8767,-5.829,0.0,-5.8951,-5.8951,-5.8951,-5.8951,-5.8951,-5.8143,-5.774,-5.8364,-5.8474,-5.8327,-5.8033,-5.7997,-5.7997,-5.7997,-5.7997,-5.7997,-5.7997,-5.7189,-5.6528,-5.6565,-5.6932,-5.7262,-5.7299,-5.7666,-5.7997,-7.8222,-7.698,-7.1064,-6.9339,-7.0624,-7.1394,-7.2569,-7.3891,-7.323,-7.367,-7.4735,-7.2511,-6.9298,-6.5335,-6.1627,0.0,-6.2178,-6.3889,-6.6288,-6.9271,-6.9271,-7.0466,-7.254,-7.2606,-7.2202,-7.1431,-7.1403,-7.0991,-7.0146,-6.8678,-6.6769,-6.4347,-6.0603,-5.8988,-5.9441,-6.1043,-6.3062,-6.5349,-6.688,-6.764,-6.7467,-6.6072,-6.4127,-6.1667,-6.0823,-6.0028,-5.9221,-5.8437,-5.7666,-5.6895,-5.4583,-5.1516,-4.7626,0.0,0.0,0.0,0.0,0.0,0.0,0.0,0.0,0.0,0.0,0.0,0.0,0.0,0.0,0.0,-4.1882,0.0,-4.6067,-4.6874,0.0,0.0,0.0,-4.7516,-4.7846,-5.0472,-5.2931,-5.4583,0.0,0.0,-5.9318,-6.0052,-6.0529,-6.0603,-6.0493,-6.0419,-6.0419,-6.0346,-6.0419,-6.0309,-6.0382,-6.0382,-6.0236,-6.0199,-5.9905,-5.9428,-5.9221,-5.8914,-5.829,-5.7997,-5.7997,-5.7997,-5.7997,-5.7997,-5.7997,-5.7923,-5.7997,-5.7886,-5.7923,-5.796,-5.7923,-5.796,-5.7997,-7.9396,-7.9029,-7.69,-7.5506,-7.4698,-7.4882,-7.5542,-7.6393,-7.624,-7.5689,-7.4822,-7.3577,-7.1146,-6.7788,-6.6107,-6.6248,-6.7934,-6.8891,-7.0474,-7.2355,-7.2424,-7.2761,-7.3413,-7.3413,-7.301,-7.2275,-7.2202,-7.1798,-7.1027,-7.0624,-6.9229,-6.688,-6.5852,-6.3906,-6.1227,-6.3282,-6.5007,-6.6182,-6.721,-6.71,-6.5925,-6.5485,-6.4127,-6.1667,-6.0823,-6.0015,-5.9221,-5.8437,-5.7886,-5.7666,-5.5427,-5.3115,-5.0912,-4.5626,0.0,0.0,0.0,0.0,0.0,0.0,0.0,0.0,0.0,-4.0655,-3.5151,0.0,-4.1442,0.0,-4.4378,-4.6911,-4.8545,-4.8857,0.0,0.0,-5.0635,-5.1132,-5.4121,-5.462,-5.5574,-5.779,-5.9098,-6.0126,-6.0933,-6.119,-6.1557,-6.2108,-6.119,-6.0419,-6.0419,-6.0419,-6.0419,-6.0456,-6.0456,-6.0419,-6.0456,-6.0419,-6.0382,-6.0162,-5.9648,-5.9111,-5.8927,-5.84,-5.7997,-5.7997,-5.7997,-5.7997,-5.7997,-5.7997,-5.7997,-5.7997,-5.7997,-5.7997,-5.7997,-5.7997,-5.7997,-8.0314,-8.0277,-7.947,-7.8369,-7.7157,-7.6827,-7.687,-7.7273,-7.731,-7.676,-7.5886,-7.466,-7.2819,-7.0736,-7.0239,-7.0274,-7.0878,-7.2141,-7.3241,-7.4097,-7.4128,-7.3982,-7.3707,-7.3707,-7.3266,-7.2532,-7.2532,-7.2275,-7.1835,-7.1505,-7.0624,-6.9302,-6.8568,-6.71,-6.4971,-6.5521,-6.6219,-6.7026,-6.7467,-6.6916,-6.5375,-6.5338,-6.3943,-6.119,-6.0639,-5.9661,-5.8194,-5.7703,-5.7116,-5.6418,-5.4803,-5.3151,-5.1499,-4.7462,-4.4342,0.0,0.0,0.0,0.0,0.0,0.0,0.0,0.0,0.0,0.0,0.0,-4.4581,-4.4929,-4.792,-5.0342,-5.161,-5.2674,-5.3849,-5.5207,-5.5207,-5.5831,-5.7703,-5.7776,-5.84,-6.0089,-6.0676,-6.1227,-6.2034,-6.2144,-6.2291,-6.2743,-6.2034,-6.1484,-6.1484,-6.1459,-6.1484,-6.1484,-6.1484,-6.1484,-6.1484,-6.1484,-6.1337,-6.0933,-6.0272,-5.9648,-5.9221,-5.8547,-5.7997,-5.7997,-5.7997,-5.7997,-5.7997,-5.7997,-5.7997,-5.7997,-5.7997,-5.7997,-5.7997,-5.7997,-5.7997,-8.1158,-8.1085,-8.0277,-7.9543,-7.8809,-7.7892,-7.7384,-7.731,-7.731,-7.731,-7.7206,-7.5571,-7.4398,-7.3761,-7.3784,-7.3392,-7.2834,-7.4424,-7.5182,-7.5212,-7.5182,-7.4735,-7.3854,-7.3817,-7.3377,-7.2532,-7.2532,-7.2532,-7.2496,-7.1798,-7.1403,-7.1219,-6.9816,-6.9009,-6.8862,-6.7393,-6.699,-6.765,-6.7687,-6.6916,-6.5375,-6.5338,-6.3759,-6.0603,-6.0309,-5.9171,-5.6932,-5.6785,-5.6161,-5.4803,-5.4032,-5.3004,-5.1463,-4.9057,-4.7296,0.0,-4.4929,0.0,0.0,0.0,0.0,0.0,0.0,0.0,0.0,-4.7993,-4.8544,-4.9077,-5.216,-5.4341,-5.4987,-5.7005,-5.8327,-5.8364,-5.9538,-6.0162,-5.9588,-6.0126,-6.086,-6.1667,-6.1741,-6.2034,-6.2658,-6.2805,-6.2805,-6.2805,-6.2707,-6.2658,-6.2768,-6.2732,-6.2695,-6.2805,-6.2805,-6.2622,-6.2658,-6.2732,-6.2511,-6.1814,-6.108,-6.0272,-5.9538,-5.8731,-5.8143,-5.8033,-5.7997,-5.7997,-5.7997,-5.7997,-5.7997,-5.7997,-5.7997,-5.7997,-5.7997,-5.7997,-5.7997,-8.1966,-8.1893,-8.1122,-8.0681,-8.0424,-7.8956,-7.7965,-7.731,-7.731,-7.731,-7.7212,-7.6082,-7.5946,-7.6441,-7.5732,-7.5693,-7.6323,-7.6673,-7.6833,-7.6833,-7.6833,-7.6063,-7.4735,-7.4698,-7.3927,-7.2569,-7.2532,-7.2532,-7.2496,-7.2349,-7.1945,-7.1256,-7.033,-6.9559,-6.8898,0.0,0.0,0.0,-6.7687,-6.6916,-6.5411,-6.5338,-6.3759,-6.0529,-5.9771,0.0,-5.6932,-5.6785,-5.6675,-5.6359,-5.6198,0.0,0.0,0.0,0.0,0.0,0.0,0.0,0.0,0.0,0.0,0.0,-5.2234,-5.0582,-4.937,-5.2711,-5.4509,-5.3482,-5.6785,-5.8841,-5.834,-5.9281,-5.9942,-5.9979,-6.0236,-6.0603,-6.108,-6.13,-6.1667,-6.2475,-6.2585,-6.2597,-6.2768,-6.2805,-6.2805,-6.2805,-6.2805,-6.2805,-6.2805,-6.2805,-6.2805,-6.2805,-6.2805,-6.2805,-6.2805,-6.2805,-6.2768,-6.2511,-6.1924,-6.108,-6.0309,-5.9501,-5.8694,-5.818,-5.7997,-5.7997,-5.7997,-5.7997,-5.7997,-5.7997,-5.7997,-5.7997,-5.7997,-5.7997,-5.7997,-8.2186,0.0,-8.1746,-8.1379,0.0,-7.9727,-7.8736,-7.7928,-7.7494,-7.731,-7.7243,-7.6761,-7.6563,-7.6563,-7.6563,-7.653,-7.6595,-7.7051,-7.731,-7.731,-7.731,-7.646,-7.4888,-7.4888,-7.4074,-7.2532,-7.2532,-7.2532,-7.2532,-7.2532,-7.2312,-7.1872,-7.0697,-6.9889,-6.9486,-6.8274,-6.7687,-6.7687,-6.7687,-6.71,-6.5962,-6.5521,-6.3943,-6.1117,-6.0236,0.0,0.0,0.0,0.0,0.0,0.0,0.0,0.0,0.0,0.0,-5.3115,-5.3115,-5.3078,-5.3115,-5.3885,-5.5207,-5.7189,-5.7005,-5.5904,-5.3885,-5.6345,-5.779,-5.7446,-5.9245,-6.0236,-5.9845,-6.0529,-6.1006,-6.1006,-6.1337,-6.1777,-6.2108,-6.2218,-6.2365,-6.2695,-6.2805,-6.2805,-6.2805,-6.2805,-6.2805,-6.2805,-6.2805,-6.2805,-6.2805,-6.2805,-6.2805,-6.2805,-6.2805,-6.2805,-6.2805,-6.2805,-6.2805,-6.2732,-6.2144,-6.1484,-6.108,-6.0015,-5.9038,-5.8657,-5.829,-5.7997,-5.7997,-5.7997,-5.7997,-5.7997,-5.7997,-5.7997,-5.7997,-5.7997,-5.7997,-8.2186,-8.2186,-8.2186,-8.1819,-8.1158,-8.0351,-7.947,-7.8552,0.0,0.0,0.0,-7.731,-7.6824,-7.6128,-7.6956,-7.6856,-7.6128,-7.692,-7.731,-7.731,-7.731,-7.6503,-7.5139,-7.4992,-7.4147,-7.2753,-7.2569,-7.2532,-7.2532,-7.2532,-7.2532,-7.2386,-7.1027,-7.0183,-6.9816,-6.8421,-6.7687,-6.7687,-6.7687,-6.7283,-6.6512,-6.5705,-6.42,-6.1851,-6.0896,-5.9391,-5.7313,-5.7226,-5.6638,-5.5354,-5.539,-5.539,-5.528,-5.539,-5.5978,-5.7152,-5.7997,-5.8437,-5.8437,-5.9061,-5.9478,-5.9648,-6.0382,-6.0162,-5.8547,-5.9171,-5.9905,-6.0566,-6.075,-6.0823,-6.0823,-6.141,-6.1814,-6.1814,-6.2401,-6.2805,-6.2805,-6.2805,-6.2768,-6.2805,-6.2805,-6.2805,-6.2805,-6.2805,-6.2805,-6.2805,-6.2805,-6.2805,-6.2805,-6.2805,-6.2805,-6.2805,-6.2805,-6.2805,-6.2805,-6.2805,-6.2805,-6.2805,-6.2254,-6.1777,-6.1447,-6.0419,-5.9478,-5.9148,-5.8547,-5.807,-5.7997,-5.7997,-5.7997,-5.7997,-5.7997,-5.7997,-5.7997,-5.7997,-5.7997,-8.2186,-8.2186,-8.2186,-8.2113,-8.1966,-8.1158,-7.9984,-7.8552,-7.7708,-7.731,-7.731,-7.731,-7.7212,-7.7118,-7.7243,-7.7212,-7.7082,-7.7243,-7.731,-7.731,-7.731,-7.6827,-7.5909,-7.5249,-7.4441,-7.3523,-7.2826,-7.2532,-7.2532,-7.2532,-7.2532,-7.2386,-7.1578,-7.044,-6.9119,-6.8164,-6.7687,-6.7687,-6.7687,-6.7283,-6.6512,-6.5705,-6.4457,-6.2695,-6.119,-5.9942,-5.8927,-5.8854,-5.8781,-5.8561,-5.9208,-5.9245,-5.8597,-5.9098,-5.9355,-5.8927,-5.9612,-6.0089,-6.0052,-6.0199,-6.0529,-6.1227,-6.2034,-6.1777,-6.0272,-6.0786,-6.13,-6.1447,-6.2108,-6.2475,-6.2475,-6.2622,-6.2695,-6.2695,-6.2743,-6.2842,-6.2853,-6.2879,-6.2842,-6.2805,-6.2805,-6.2805,-6.2805,-6.2805,-6.2805,-6.2805,-6.2805,-6.2805,-6.2805,-6.2805,-6.2805,-6.2805,-6.2805,-6.2805,-6.2805,-6.2805,-6.2805,-6.2805,-6.2695,-6.2365,-6.1777,-6.0896,-6.0052,-5.9331,-5.8657,-5.8107,-5.7997,-5.7997,-5.7997,-5.7997,-5.7997,-5.7997,-5.7997,-5.7997,-5.7997,-8.2186,-8.2186,-8.2186,-8.2186,-8.2113,-8.0865,-7.969,-7.8552,-7.7677,-7.731,-7.731,-7.731,-7.731,-7.731,-7.731,-7.731,-7.731,-7.731,-7.731,-7.731,-7.731,-7.687,-7.6056,-7.5285,-7.4515,-7.367,-7.2863,-7.2532,-7.2532,-7.2532,-7.2532,-7.2422,-7.1248,-7.0073,-6.8935,-6.8091,-6.7687,-6.7687,-6.7687,-6.7504,-6.7136,-6.6366,-6.5191,-6.3539,-6.2328,-6.1117,-5.9905,-5.9845,-5.9869,-5.9869,-6.0199,-6.0236,-5.9905,-6.0199,-6.0236,-5.9905,-6.0603,-6.1043,-6.1043,-6.1887,-6.2732,-6.3539,-6.3943,-6.387,-6.3135,-6.2989,-6.3135,-6.3576,-6.3943,-6.4163,-6.4163,-6.4163,-6.4138,-6.4163,-6.4138,-6.398,-6.3613,-6.3503,-6.3319,-6.2915,-6.2805,-6.2805,-6.2805,-6.2805,-6.2805,-6.2805,-6.2805,-6.2805,-6.2805,-6.2805,-6.2805,-6.2805,-6.2805,-6.2805,-6.2805,-6.2805,-6.2805,-6.2805,-6.2805,-6.2633,-6.2254,-6.1594,-6.0786,-6.0015,-5.9208,-5.851,-5.8143,-5.7997,-5.7997,-5.7997,-5.7997,-5.7997,-5.7997,-5.7997,-5.7997,-8.2186,-8.2186,-8.2186,-8.2186,-8.2039,-8.0461,-7.9433,-7.8772,-7.7745,-7.731,-7.731,-7.731,-7.731,-7.731,-7.731,-7.731,-7.731,-7.731,-7.731,-7.731,-7.731,-7.6974,-7.635,-7.5542,-7.4771,-7.3927,-7.3156,-7.2679,-7.2532,-7.2532,-7.2532,-7.2349,-7.1064,-6.9963,-6.9155,-6.8348,-6.7871,-6.7724,-6.7687,-6.7687,-6.7677,-6.6916,-6.5888,-6.4714,-6.3833,-6.2768,-6.1594,-6.152,-6.152,-6.1484,-6.1337,-6.1227,-6.1227,-6.1227,-6.1227,-6.13,-6.1961,-6.2438,-6.2511,-6.3613,-6.464,-6.5264,-6.5338,-6.5375,-6.5521,-6.5007,-6.4787,-6.5228,-6.5228,-6.5264,-6.5228,-6.5238,-6.5338,-6.5338,-6.5338,-6.5007,-6.4494,-6.4347,-6.4016,-6.3282,-6.3099,-6.3062,-6.2853,-6.2805,-6.2805,-6.2805,-6.2805,-6.2805,-6.2805,-6.2805,-6.2805,-6.2805,-6.2805,-6.2805,-6.2805,-6.2805,-6.2805,-6.2805,-6.2805,-6.2768,-6.2622,-6.2108,-6.1337,-6.0493,-5.9722,-5.8914,-5.818,-5.7997,-5.7997,-5.7997,-5.7997,-5.7997,-5.7997,-5.7997,-5.7997,-8.2186,-8.2186,-8.2186,-8.2186,-8.2003,-8.0461,-7.9727,-7.947,-7.8002,-7.731,-7.731,-7.731,-7.731,-7.731,-7.731,-7.731,-7.731,-7.731,-7.731,-7.731,-7.731,-7.7237,-7.709,-7.635,-7.5579,-7.4735,-7.3927,-7.3156,-7.2532,-7.2532,-7.2532,-7.2422,-7.1615,-7.077,-6.9963,-6.9192,-6.8421,-6.7687,-6.7687,-6.7687,-6.7677,-6.6916,-6.6402,-6.6292,-6.5485,-6.5044,-6.4677,-6.4835,-6.4824,-6.4787,-6.4053,-6.3723,-6.3723,-6.3723,-6.3723,-6.3759,-6.4457,-6.4971,-6.4971,-6.5118,-6.5228,-6.5301,-6.5411,-6.5668,-6.6292,-6.6292,-6.5962,-6.5595,-6.5375,-6.5448,-6.5338,-6.5375,-6.5485,-6.5521,-6.5485,-6.5264,-6.5228,-6.5191,-6.4897,-6.409,-6.3906,-6.3686,-6.3062,-6.2879,-6.2805,-6.2805,-6.2805,-6.2805,-6.2805,-6.2805,-6.2805,-6.2805,-6.2805,-6.2805,-6.2805,-6.2805,-6.2805,-6.2805,-6.2805,-6.2805,-6.2658,-6.2181,-6.1337,-6.0566,-5.9832,-5.9061,-5.829,-5.7997,-5.7997,-5.7997,-5.7997,-5.7997,-5.7997,-5.7997,-5.7997,-8.2186,-8.2186,-8.2186,-8.2186,-8.1966,-8.0461,-7.9832,-7.9617,-7.8038,-7.731,-7.731,-7.731,-7.731,-7.731,-7.731,-7.731,-7.731,-7.731,-7.731,-7.731,-7.731,-7.731,-7.72,-7.6497,-7.5689,-7.4882,-7.4074,-7.3303,-7.2642,-7.2532,-7.2532,-7.2422,-7.1725,-7.1109,-7.0734,-6.9559,-6.8752,-6.8421,-6.7907,-6.7687,-6.765,-6.7357,-6.699,-6.6512,-6.6182,-6.5778,-6.5375,-6.5338,-6.5338,-6.5301,-6.4971,-6.4824,-6.4824,-6.4824,-6.4824,-6.4824,-6.5118,-6.5521,-6.5999,-6.5999,-6.6219,-6.6696,-6.6733,-6.688,-6.7136,-6.721,-6.7063,-6.6806,-6.6696,-6.6733,-6.6696,-6.6696,-6.6696,-6.6733,-6.6733,-6.6512,-6.6035,-6.6035,-6.5705,-6.4934,-6.4383,-6.398,-6.3576,-6.3135,-6.2842,-6.2805,-6.2805,-6.2805,-6.2805,-6.2805,-6.2805,-6.2805,-6.2805,-6.2805,-6.2805,-6.2805,-6.2805,-6.2805,-6.2805,-6.2805,-6.2732,-6.2585,-6.1924,-6.0639,-6.0126,-5.9355,-5.8217,-5.8033,-5.7997,-5.7997,-5.7997,-5.7997,-5.7997,-5.7997,-5.7997,-8.2186,-8.2186,-8.2186,-8.2186,-8.2076,-8.0718,-7.9984,-7.9617,-7.8295,-7.753,-7.731,-7.731,-7.731,-7.731,-7.731,-7.731,-7.731,-7.731,-7.731,-7.731,-7.731,-7.731,-7.7237,-7.6717,-7.6019,-7.5212,-7.4441,-7.3487,-7.2606,-7.2532,-7.2532,-7.2422,-7.1908,-7.1513,-7.1183,-7.011,-6.9339,-6.8898,-6.8274,-6.7944,-6.7724,-6.7687,-6.7393,-6.688,-6.6806,-6.6549,-6.5999,-6.5962,-6.5962,-6.5962,-6.5778,-6.5632,-6.5632,-6.5632,-6.5742,-6.5925,-6.5962,-6.6182,-6.6806,-6.6843,-6.7063,-6.7614,-6.7687,-6.7687,-6.7687,-6.7687,-6.7687,-6.765,-6.7687,-6.7614,-6.7687,-6.7687,-6.7687,-6.7687,-6.7687,-6.7393,-6.6916,-6.6806,-6.6512,-6.5742,-6.5191,-6.453,-6.4127,-6.3539,-6.3172,-6.2879,-6.2805,-6.2805,-6.2805,-6.2805,-6.2805,-6.2805,-6.2805,-6.2805,-6.2805,-6.2805,-6.2805,-6.2805,-6.2805,-6.2805,-6.2805,-6.2805,-6.2254,-6.0823,-6.0566,-5.9832,-5.84,-5.7997,-5.7997,-5.7997,-5.7997,-5.7997,-5.7997,-5.7997,-5.7997,-8.2186,-8.2186,-8.2186,-8.2186,-8.2113,-8.1269,-8.0461,-7.9727,-7.8846,-7.8075,-7.7347,-7.731,-7.731,-7.731,-7.731,-7.731,-7.731,-7.731,-7.731,-7.731,-7.731,-7.731,-7.731,-7.7237,-7.6827,-7.5909,-7.5139,-7.3964,-7.2606,-7.2532,-7.2532,-7.2496,-7.2422,-7.2055,-7.1468,-7.1146,-7.044,-6.9192,-6.8862,-6.8458,-6.7834,-6.7687,-6.765,-6.7577,-6.764,-6.754,-6.7504,-6.754,-6.754,-6.7577,-6.6843,-6.6439,-6.6439,-6.6439,-6.6769,-6.742,-6.7504,-6.754,-6.7577,-6.7577,-6.7614,-6.7687,-6.7687,-6.7687,-6.7687,-6.7687,-6.7687,-6.7687,-6.7687,-6.7687,-6.7687,-6.7687,-6.7687,-6.7687,-6.7687,-6.764,-6.7614,-6.7504,-6.7247,-6.6623,-6.6292,-6.5595,-6.4347,-6.4079,-6.3613,-6.3099,-6.2842,-6.2805,-6.2805,-6.2805,-6.2805,-6.2805,-6.2805,-6.2805,-6.2805,-6.2805,-6.2805,-6.2805,-6.2805,-6.2805,-6.2805,-6.2622,-6.1777,-6.1006,-6.0603,-5.9832,-5.8547,-5.7997,-5.7997,-5.7997,-5.7997,-5.7997,-5.7997,-5.7997,-5.7997,-8.2186,-8.2186,-8.2186,-8.2186,-8.2113,-8.1342,-8.0534,-7.9758,-7.8919,-7.8112,-7.7384,-7.731,-7.731,-7.731,-7.731,-7.731,-7.731,-7.731,-7.731,-7.731,-7.731,-7.731,-7.731,-7.7273,-7.687,-7.6093,-7.5285,-7.4074,-7.2679,-7.2532,-7.2532,-7.2532,-7.2532,-7.2349,-7.2018,-7.1541,-7.0991,-7.0403,-6.9486,-6.8752,-6.8458,-6.7944,-6.7687,-6.7687,-6.7687,-6.7687,-6.7687,-6.7687,-6.7687,-6.7687,-6.7393,-6.7247,-6.7247,-6.7247,-6.7357,-6.765,-6.7687,-6.7687,-6.7687,-6.7687,-6.7687,-6.7687,-6.7687,-6.7724,-6.7687,-6.7687,-6.7687,-6.7687,-6.7687,-6.7687,-6.7687,-6.7687,-6.7687,-6.7687,-6.7687,-6.7687,-6.7687,-6.7687,-6.7577,-6.7247,-6.6843,-6.6035,-6.5118,-6.442,-6.398,-6.3649,-6.3172,-6.2879,-6.2805,-6.2805,-6.2805,-6.2805,-6.2805,-6.2805,-6.2805,-6.2805,-6.2805,-6.2805,-6.2805,-6.2805,-6.2805,-6.2805,-6.2181,-6.1006,-6.0566,-5.9795,-5.8547,-5.7997,-5.7997,-5.7997,-5.7997,-5.7997,-5.7997,-5.7997,-5.7997,-8.2186,-8.2186,-8.2186,-8.2186,-8.2113,-8.1599,-8.0791,-7.98,-7.9213,-7.8369,-7.7457,-7.731,-7.731,-7.731,-7.731,-7.731,-7.731,-7.731,-7.731,-7.731,-7.731,-7.731,-7.731,-7.731,-7.7017,-7.6387,-7.5395,-7.4184,-7.2973,-7.2642,-7.2532,-7.2532,-7.2532,-7.2532,-7.2422,-7.1982,-7.1615,-7.1109,-7.022,-6.9596,-6.9265,-6.8752,-6.8458,-6.8458,-6.8458,-6.8164,-6.7724,-6.7687,-6.7687,-6.7687,-6.7687,-6.7687,-6.7687,-6.7687,-6.7687,-6.7687,-6.7687,-6.7687,-6.7687,-6.7687,-6.7797,-6.8054,-6.8091,-6.8164,-6.8385,-6.8238,-6.8091,-6.8054,-6.7797,-6.7687,-6.7687,-6.7687,-6.7687,-6.7687,-6.7687,-6.7687,-6.7687,-6.7687,-6.7687,-6.7577,-6.7247,-6.6549,-6.5778,-6.4971,-6.4457,-6.4163,-6.3356,-6.2842,-6.2805,-6.2805,-6.2805,-6.2805,-6.2805,-6.2805,-6.2805,-6.2805,-6.2805,-6.2805,-6.2805,-6.2805,-6.2805,-6.2805,-6.2365,-6.1227,-6.0272,-5.9501,-5.8804,-5.818,-5.802,-5.7983,-5.7997,-5.7997,-5.7997,-5.7997,-5.7997,-8.2186,-8.2186,-8.2186,-8.2186,-8.2186,-8.2113,-8.1232,-8.0021,-7.9764,-7.8846,-7.7567,-7.7347,-7.731,-7.731,-7.731,-7.731,-7.731,-7.731,-7.731,-7.731,-7.731,-7.731,-7.731,-7.731,-7.72,-7.698,-7.5689,-7.4515,-7.3597,-7.2973,-7.2606,-7.2532,-7.2532,-7.2532,-7.2532,-7.2422,-7.2092,-7.1505,-7.1174,-7.0807,-7.0183,-6.9963,-6.9853,-6.9926,-6.9926,-6.9265,-6.7871,-6.7797,-6.776,-6.7714,-6.776,-6.7751,-6.7797,-6.7871,-6.7824,-6.7834,-6.776,-6.776,-6.7824,-6.7871,-6.8311,-6.8752,-6.8898,-6.9192,-6.9559,-6.9265,-6.8898,-6.8825,-6.8348,-6.7898,-6.7934,-6.7834,-6.776,-6.7687,-6.7687,-6.7687,-6.7687,-6.7687,-6.7687,-6.765,-6.7577,-6.732,-6.6586,-6.5815,-6.5081,-6.4347,-6.3539,-6.2915,-6.2842,-6.2805,-6.2805,-6.2805,-6.2805,-6.2805,-6.2805,-6.2805,-6.2805,-6.2805,-6.2805,-6.2805,-6.2805,-6.2805,-6.2438,-6.141,-6.0309,-5.9538,-5.8841,-5.8313,-5.8133,-5.8097,-5.8051,-5.8074,-5.8164,-5.815,-5.8006,-8.2186,-8.2186,-8.2186,-8.2186,-8.2186,-8.2186,-8.1562,-8.0608,-8.0057,-7.9176,-7.8222,-7.753,-7.731,-7.731,-7.731,-7.731,-7.731,-7.731,-7.731,-7.731,-7.731,-7.731,-7.731,-7.731,-7.698,-7.6497,-7.5983,-7.5028,-7.3891,-7.345,-7.3083,-7.2606,-7.2532,-7.2532,-7.2532,-7.2496,-7.2312,-7.2129,-7.155,-7.1174,-7.0881,-7.0403,-7.011,-7.011,-7.011,-6.9816,-6.9339,-6.8825,-6.8274,-6.7824,-6.8238,-6.8531,-6.8605,-6.9045,-6.9082,-6.8641,-6.9045,-6.9339,-6.9339,-6.9302,-6.9376,-6.9669,-6.9706,-6.9816,-7.0036,-6.9889,-6.9706,-6.9743,-6.9486,-6.9339,-6.9265,-6.8825,-6.8348,-6.776,-6.7687,-6.7687,-6.7687,-6.7687,-6.7687,-6.7687,-6.7687,-6.754,-6.7247,-6.6586,-6.5778,-6.5044,-6.42,-6.3503,-6.2989,-6.2842,-6.2805,-6.2805,-6.2805,-6.2805,-6.2805,-6.2805,-6.2805,-6.2805,-6.2805,-6.2805,-6.2805,-6.2732,-6.2365,-6.1704,-6.0603,-5.9758,-5.9024,-5.863,-5.8538,-5.8342,-5.8305,-5.8356,-5.8434,-5.8304,-5.8074,-8.2186,-8.2186,-8.2186,-8.2186,-8.2186,-8.2186,-8.1746,-8.0938,-8.0131,-7.9323,-7.8516,-7.7677,-7.731,-7.731,-7.731,-7.731,-7.731,-7.731,-7.731,-7.731,-7.731,-7.731,-7.731,-7.731,-7.7053,-7.657,-7.624,-7.5579,-7.4588,-7.3964,-7.3413,-7.301,-7.2679,-7.2532,-7.2532,-7.2532,-7.2532,-7.2422,-7.2018,-7.1762,-7.1688,-7.1248,-7.0991,-7.0991,-7.0991,-7.0844,-7.055,-7.0036,-6.9412,-6.8825,-6.9082,-6.9339,-6.9412,-6.9816,-6.9853,-6.9596,-6.9779,-7.0073,-7.011,-7.0,-7.0257,-7.044,-7.055,-7.0734,-7.0844,-7.0807,-7.055,-7.055,-7.022,-7.011,-7.0,-6.9669,-6.9009,-6.8238,-6.7871,-6.7724,-6.7687,-6.7687,-6.7687,-6.7687,-6.7687,-6.7687,-6.754,-6.699,-6.6366,-6.5742,-6.4787,-6.4016,-6.3356,-6.3,-6.2915,-6.2842,-6.2805,-6.2805,-6.2805,-6.2805,-6.2805,-6.2805,-6.2805,-6.2805,-6.2805,-6.278,-6.2523,-6.1887,-6.0933,-6.0493,-5.9832,-5.9465,-5.9241,-5.8997,-5.8776,-5.8665,-5.865,-5.8268,-5.8042,-8.2186,-8.2186,-8.2186,-8.2186,-8.2186,-8.2186,-8.1819,-8.1048,-8.0167,-7.9396,-7.8626,-7.7745,-7.731,-7.731,-7.731,-7.731,-7.731,-7.731,-7.731,-7.731,-7.731,-7.731,-7.731,-7.731,-7.7237,-7.709,-7.657,-7.613,-7.5763,-7.4661,-7.378,-7.3707,-7.3046,-7.2606,-7.2679,-7.2569,-7.2532,-7.2496,-7.2459,-7.2422,-7.2422,-7.2386,-7.2386,-7.2349,-7.2312,-7.2018,-7.1468,-7.1284,-7.0917,-7.0257,-7.0146,-7.0183,-7.0146,-7.0183,-7.0367,-7.022,-7.022,-7.0367,-7.0293,-7.0477,-7.0697,-7.1321,-7.1394,-7.1623,-7.2055,-7.1688,-7.1358,-7.1321,-7.0807,-7.0403,-7.0403,-7.022,-6.9779,-6.8972,-6.8128,-6.7724,-6.7687,-6.7687,-6.7687,-6.7687,-6.7687,-6.7687,-6.765,-6.7063,-6.6696,-6.6219,-6.5228,-6.4567,-6.387,-6.3466,-6.2989,-6.2842,-6.2805,-6.2805,-6.2805,-6.2805,-6.2805,-6.2805,-6.2805,-6.2805,-6.2805,-6.278,-6.2743,-6.2071,-6.1484,-6.108,-6.0676,-6.0236,-6.0029,-5.9922,-5.9594,-5.919,-5.9028,-5.8903,-5.8662,-8.2186,-8.2186,-8.2186,-8.2186,-8.2186,-8.2186,-8.2076,-8.1709,-8.0388,-7.969,-7.9176,-7.7965,-7.731,-7.731,-7.731,-7.731,-7.731,-7.731,-7.731,-7.731,-7.731,-7.731,-7.731,-7.731,-7.731,-7.7237,-7.7047,-7.668,-7.613,-7.5616,-7.5102,-7.4588,-7.378,-7.3377,-7.334,-7.2826,-7.2532,-7.2532,-7.2532,-7.2532,-7.2532,-7.2532,-7.2532,-7.2532,-7.2532,-7.2386,-7.2202,-7.2202,-7.1835,-7.1101,-7.0991,-7.0991,-7.1027,-7.1468,-7.1505,-7.1138,-7.1505,-7.1835,-7.1835,-7.1798,-7.1945,-7.2129,-7.2129,-7.2275,-7.2459,-7.2312,-7.2202,-7.2165,-7.1945,-7.1798,-7.1762,-7.1284,-7.0403,-6.9082,-6.8311,-6.7797,-6.7687,-6.7687,-6.7687,-6.7687,-6.7687,-6.7687,-6.7614,-6.7467,-6.71,-6.6623,-6.6035,-6.5375,-6.464,-6.3943,-6.3503,-6.2964,-6.278,-6.2805,-6.2805,-6.2805,-6.2805,-6.2805,-6.2805,-6.2805,-6.2805,-6.2805,-6.2768,-6.2511,-6.1961,-6.152,-6.119,-6.0823,-6.0765,-6.08,-6.0571,-6.0292,-6.046,-6.0401,-6.0055,-8.2186,-8.2186,-8.2186,-8.2186,-8.2186,-8.2186,-8.2186,-8.1966,-8.0865,-8.0094,-7.9543,-7.8442,-7.7671,-7.731,-7.731,-7.731,-7.731,-7.731,-7.731,-7.731,-7.731,-7.731,-7.731,-7.731,-7.731,-7.731,-7.731,-7.7047,-7.6607,-7.6276,-7.5836,-7.5359,-7.4588,-7.4037,-7.3634,-7.3303,-7.2826,-7.2569,-7.2532,-7.2532,-7.2532,-7.2532,-7.2532,-7.2532,-7.2532,-7.2532,-7.2496,-7.2496,-7.2275,-7.1908,-7.1798,-7.1835,-7.1835,-7.2202,-7.2275,-7.1806,-7.2275,-7.2496,-7.2532,-7.2532,-7.2532,-7.2496,-7.2532,-7.2532,-7.2532,-7.2532,-7.2532,-7.2459,-7.2496,-7.2532,-7.2386,-7.1798,-7.0926,-7.0082,-6.9192,-6.8421,-6.7834,-6.7687,-6.7687,-6.7687,-6.7687,-6.7687,-6.7687,-6.7687,-6.7467,-6.7063,-6.6659,-6.6035,-6.5338,-6.464,-6.4016,-6.3576,-6.3,-6.2915,-6.2879,-6.2879,-6.2805,-6.2805,-6.2805,-6.2805,-6.2805,-6.2805,-6.2805,-6.2658,-6.2328,-6.2034,-6.1777,-6.163,-6.1671,-6.1678,-6.156,-6.1388,-6.1305,-6.1438,-6.1092,-8.2186,-8.2186,-8.2186,-8.2186,-8.2186,-8.2186,-8.2186,-8.2039,-8.1305,-8.0571,-7.9874,-7.8993,-7.8148,-7.742,-7.7384,-7.731,-7.731,-7.731,-7.731,-7.731,-7.731,-7.731,-7.731,-7.731,-7.731,-7.731,-7.731,-7.7273,-7.7017,-7.657,-7.6313,-7.6056,-7.5432,-7.4698,-7.4294,-7.3927,-7.3377,-7.2826,-7.2753,-7.2642,-7.2569,-7.2532,-7.2532,-7.2532,-7.2532,-7.2532,-7.2532,-7.2532,-7.2459,-7.2496,-7.2532,-7.2422,-7.2459,-7.2496,-7.2496,-7.2422,-7.2459,-7.2532,-7.2532,-7.2532,-7.2532,-7.2532,-7.2532,-7.2532,-7.2532,-7.2532,-7.2532,-7.2532,-7.2532,-7.2532,-7.2422,-7.1835,-7.1431,-7.0991,-7.0477,-6.9522,-6.8348,-6.7871,-6.7797,-6.7687,-6.7687,-6.7687,-6.7687,-6.7687,-6.765,-6.743,-6.7063,-6.6623,-6.6035,-6.5411,-6.4824,-6.431,-6.3723,-6.3025,-6.2989,-6.2927,-6.2879,-6.2805,-6.2805,-6.2805,-6.2805,-6.2805,-6.2805,-6.2695,-6.2511,-6.2475,-6.2548,-6.2487,-6.2459,-6.2507,-6.2391,-6.1945,-6.1611,-6.1827,-6.1735,-8.2186,-8.2186,-8.2186,-8.2186,-8.2186,-8.2186,-8.2186,-8.2113,-8.1342,-8.0938,-8.0424,-7.925,-7.8552,-7.8259,-7.7635,-7.731,-7.731,-7.731,-7.731,-7.731,-7.731,-7.731,-7.731,-7.731,-7.731,-7.731,-7.731,-7.731,-7.72,-7.709,-7.7017,-7.69,-7.624,-7.5763,-7.5469,-7.4845,-7.4258,-7.356,-7.345,-7.312,-7.2642,-7.2569,-7.2569,-7.2532,-7.2532,-7.2532,-7.2532,-7.2532,-7.2532,-7.2532,-7.2532,-7.2532,-7.2532,-7.2532,-7.2532,-7.2532,-7.2532,-7.2532,-7.2532,-7.2532,-7.2532,-7.2532,-7.2532,-7.2532,-7.2532,-7.2532,-7.2532,-7.2532,-7.2532,-7.2532,-7.2459,-7.2386,-7.1945,-7.1505,-7.1174,-7.066,-6.9743,-6.9009,-6.8385,-6.7907,-6.7687,-6.7687,-6.7687,-6.7687,-6.7687,-6.765,-6.7467,-6.7136,-6.6659,-6.6109,-6.5595,-6.5081,-6.4163,-6.3539,-6.3356,-6.3172,-6.2842,-6.2805,-6.2805,-6.2805,-6.2805,-6.2953,-6.2965,-6.2929,-6.2768,-6.283,-6.2965,-6.2793,-6.2647,-6.2905,-6.3082,-6.2784,-6.2517,-6.2538,-6.2456,-8.2186,-8.2186,-8.2186,-8.2186,-8.2186,-8.2186,-8.2186,-8.2113,-8.1782,-8.1342,-8.0791,-7.9653,-7.8956,-7.8516,-7.7745,-7.731,-7.731,-7.731,-7.731,-7.731,-7.731,-7.731,-7.731,-7.731,-7.731,-7.731,-7.731,-7.731,-7.731,-7.731,-7.7237,-7.731,-7.6864,-7.6423,-7.6166,-7.5689,-7.5065,-7.4441,-7.4258,-7.3891,-7.3193,-7.3046,-7.2789,-7.2569,-7.2532,-7.2532,-7.2532,-7.2532,-7.2532,-7.2532,-7.2532,-7.2532,-7.2532,-7.2532,-7.2532,-7.2532,-7.2532,-7.2532,-7.2532,-7.2532,-7.2532,-7.2532,-7.2532,-7.2532,-7.2532,-7.2532,-7.2532,-7.2532,-7.2532,-7.2532,-7.2532,-7.2496,-7.2202,-7.2055,-7.1872,-7.1505,-7.0697,-6.9633,-6.8788,-6.8274,-6.7944,-6.776,-6.7687,-6.7687,-6.7687,-6.765,-6.765,-6.7393,-6.721,-6.6696,-6.6292,-6.5668,-6.4677,-6.4016,-6.3833,-6.3466,-6.2879,-6.2805,-6.2805,-6.2805,-6.2805,-6.3014,-6.3215,-6.3144,-6.311,-6.3191,-6.3285,-6.3086,-6.2855,-6.2903,-6.3043,-6.3303,-6.3386,-6.3208,-6.3126,-8.2186,-8.2186,-8.2186,-8.2186,-8.2186,-8.2186,-8.2186,-8.2186,-8.2186,-8.1782,-8.1158,-8.0351,-7.958,-7.8736,-7.7965,-7.7524,-7.731,-7.731,-7.731,-7.731,-7.731,-7.731,-7.731,-7.731,-7.731,-7.731,-7.731,-7.731,-7.731,-7.731,-7.731,-7.731,-7.7273,-7.6907,-7.6423,-7.624,-7.5873,-7.5212,-7.5102,-7.4698,-7.4037,-7.3854,-7.356,-7.323,-7.312,-7.312,-7.3083,-7.2936,-7.2716,-7.2679,-7.2569,-7.2532,-7.2532,-7.2532,-7.2532,-7.2532,-7.2532,-7.2532,-7.2532,-7.2532,-7.2532,-7.2532,-7.2532,-7.2532,-7.2532,-7.2532,-7.2532,-7.2532,-7.2532,-7.2532,-7.2532,-7.2532,-7.2532,-7.2459,-7.2496,-7.2202,-7.1468,-7.0146,-6.9449,-6.8788,-6.8385,-6.8091,-6.7797,-6.7687,-6.7687,-6.7687,-6.7687,-6.765,-6.7467,-6.7283,-6.688,-6.6512,-6.5632,-6.4457,-6.4127,-6.418,-6.3541,-6.3002,-6.294,-6.2879,-6.2941,-6.3363,-6.3653,-6.352,-6.3498,-6.3565,-6.3408,-6.311,-6.2917,-6.2904,-6.3121,-6.3483,-6.3659,-6.3745,-6.3702,-8.2186,-8.2186,-8.2186,-8.2186,-8.2186,-8.2186,-8.2186,-8.2186,-8.2186,-8.2113,-8.1856,-8.1122,-8.0277,-7.9507,-7.8736,-7.8038,-7.742,-7.731,-7.731,-7.731,-7.731,-7.731,-7.731,-7.731,-7.731,-7.731,-7.731,-7.731,-7.731,-7.731,-7.731,-7.731,-7.731,-7.7127,-7.7053,-7.7017,-7.6644,-7.6019,-7.5909,-7.5469,-7.4882,-7.4588,-7.4551,-7.4258,-7.4221,-7.4258,-7.4221,-7.3817,-7.3487,-7.345,-7.2863,-7.2642,-7.2679,-7.2679,-7.2642,-7.2532,-7.2606,-7.2679,-7.2642,-7.2642,-7.2569,-7.2532,-7.2606,-7.2569,-7.2569,-7.2532,-7.2532,-7.2532,-7.2532,-7.2532,-7.2532,-7.2532,-7.2532,-7.2532,-7.2496,-7.2422,-7.2092,-7.1394,-7.0293,-6.9412,-6.8935,-6.8458,-6.8128,-6.7834,-6.7687,-6.7687,-6.7687,-6.7687,-6.7577,-6.754,-6.7467,-6.7136,-6.6769,-6.5448,-6.4347,-6.457,-6.4387,-6.353,-6.3235,-6.3062,-6.327,-6.3846,-6.4056,-6.3892,-6.3787,-6.3787,-6.3543,-6.3215,-6.3168,-6.3285,-6.3483,-6.3707,-6.3998,-6.4197,-6.4059,-8.2186,-8.2186,-8.2186,-8.2186,-8.2186,-8.2186,-8.2186,-8.2186,-8.2186,-8.2186,-8.1966,-8.1342,-8.0534,-7.9727,-7.8956,-7.8112,-7.7494,-7.731,-7.731,-7.731,-7.731,-7.731,-7.731,-7.731,-7.731,-7.731,-7.731,-7.731,-7.731,-7.731,-7.731,-7.731,-7.731,-7.731,-7.7273,-7.7237,-7.709,-7.6754,-7.668,-7.6313,-7.5542,-7.5212,-7.4925,-7.4888,-7.4925,-7.4888,-7.4845,-7.4625,-7.4331,-7.4258,-7.3964,-7.378,-7.3707,-7.3634,-7.3377,-7.2789,-7.2899,-7.312,-7.323,-7.345,-7.3817,-7.3744,-7.3413,-7.312,-7.301,-7.2826,-7.2569,-7.2532,-7.2532,-7.2532,-7.2532,-7.2532,-7.2532,-7.2532,-7.2532,-7.2532,-7.2422,-7.2129,-7.1248,-7.011,-6.9412,-6.8898,-6.8495,-6.8128,-6.7797,-6.7687,-6.7687,-6.7687,-6.7687,-6.7687,-6.7714,-6.7589,-6.7263,-6.6642,-6.5507,-6.5445,-6.5315,-6.4456,-6.3763,-6.3528,-6.3601,-6.4198,-6.4287,-6.4138,-6.4059,-6.4236,-6.3934,-6.368,-6.368,-6.3593,-6.3659,-6.3813,-6.437,-6.4608,-6.4518,-8.2186,-8.2186,-8.2186,-8.2186,-8.2186,-8.2186,-8.2186,-8.2186,-8.2186,-8.2186,-8.2076,-8.1525,-8.0718,-7.9727,-7.8772,-7.7928,-7.731,-7.731,-7.731,-7.731,-7.731,-7.731,-7.731,-7.731,-7.731,-7.731,-7.731,-7.731,-7.731,-7.731,-7.731,-7.731,-7.731,-7.731,-7.731,-7.731,-7.731,-7.731,-7.7273,-7.6937,-7.6313,-7.5763,-7.5365,-7.5365,-7.5395,-7.5439,-7.5549,-7.5285,-7.5175,-7.5102,-7.4955,-7.4815,-7.4852,-7.4888,-7.4294,-7.334,-7.3634,-7.3854,-7.4074,-7.4368,-7.4632,-7.4625,-7.4221,-7.4001,-7.3744,-7.3303,-7.2753,-7.2569,-7.2532,-7.2532,-7.2532,-7.2532,-7.2532,-7.2532,-7.2532,-7.2532,-7.2532,-7.2349,-7.2165,-7.1138,-7.0073,-6.9339,-6.8935,-6.8164,-6.7724,-6.7687,-6.7687,-6.7687,-6.7687,-6.7687,-6.7731,-6.7757,-6.7654,-6.7456,-6.6918,-6.6574,-6.6238,-6.5514,-6.4795,-6.4372,-6.4375,-6.4635,-6.4612,-6.4708,-6.4921,-6.5003,-6.4572,-6.4116,-6.3871,-6.3723,-6.368,-6.3978,-6.4626,-6.5035,-6.5083,-8.2186,-8.2186,-8.2186,-8.2186,-8.2186,-8.2186,-8.2186,-8.2186,-8.2186,-8.2186,-8.2186,-8.2003,-8.1158,-7.9727,-7.8148,-7.7457,-7.731,-7.731,-7.731,-7.731,-7.731,-7.731,-7.731,-7.731,-7.731,-7.731,-7.731,-7.731,-7.731,-7.731,-7.731,-7.731,-7.731,-7.731,-7.731,-7.731,-7.731,-7.731,-7.731,-7.7237,-7.7121,-7.6907,-7.687,-7.687,-7.6833,-7.6796,-7.6613,-7.624,-7.5983,-7.5909,-7.5322,-7.4992,-7.4888,-7.4888,-7.4882,-7.4698,-7.4735,-7.4771,-7.4808,-7.5065,-7.5182,-7.5219,-7.4882,-7.4808,-7.4478,-7.3964,-7.3303,-7.2532,-7.2569,-7.2532,-7.2532,-7.2532,-7.2532,-7.2532,-7.2532,-7.2532,-7.2532,-7.2496,-7.2312,-7.2018,-7.0954,-7.0036,-6.9376,-6.8458,-6.7687,-6.7687,-6.7714,-6.7714,-6.7741,-6.7731,-6.7826,-6.7973,-6.8315,-6.8243,-6.8236,-6.7932,-6.7526,-6.6759,-6.5922,-6.5297,-6.5297,-6.5396,-6.5373,-6.5502,-6.5687,-6.5719,-6.5366,-6.4835,-6.4154,-6.3954,-6.3998,-6.4426,-6.4954,-6.5261,-6.5542,-8.2186,-8.2186,-8.2186,-8.2186,-8.2186,-8.2186,-8.2186,-8.2186,-8.2186,-8.2186,-8.2186,-8.2186,-8.1305,-7.969,-7.8075,-7.731,-7.731,-7.731,-7.731,-7.731,-7.731,-7.731,-7.731,-7.731,-7.731,-7.731,-7.731,-7.731,-7.731,-7.731,-7.731,-7.731,-7.731,-7.731,-7.731,-7.731,-7.731,-7.731,-7.731,-7.731,-7.731,-7.731,-7.731,-7.731,-7.731,-7.731,-7.72,-7.7047,-7.679,-7.6754,-7.6387,-7.6276,-7.6276,-7.6283,-7.6246,-7.6246,-7.6246,-7.6026,-7.5726,-7.5989,-7.6099,-7.6063,-7.5836,-7.5395,-7.4992,-7.4588,-7.4037,-7.3266,-7.3193,-7.2973,-7.2642,-7.2532,-7.2532,-7.2532,-7.2532,-7.2532,-7.2532,-7.2532,-7.2422,-7.2129,-7.1835,-7.0917,-7.0036,-6.9229,-6.8472,-6.8195,-6.8081,-6.7904,-6.7878,-6.7852,-6.7996,-6.821,-6.8676,-6.9086,-6.9228,-6.9169,-6.9113,-6.8373,-6.7143,-6.6624,-6.6354,-6.6329,-6.6174,-6.6087,-6.6176,-6.6138,-6.6032,-6.5356,-6.4537,-6.4407,-6.4407,-6.4643,-6.4921,-6.5461,-6.5583,-8.2186,-8.2186,-8.2186,-8.2186,-8.2186,-8.2186,-8.2186,-8.2186,-8.2186,-8.2186,-8.2113,-8.1929,-8.1085,-7.9764,-7.8369,-7.7598,-7.731,-7.731,-7.731,-7.731,-7.731,-7.731,-7.731,-7.731,-7.731,-7.731,-7.731,-7.731,-7.731,-7.731,-7.731,-7.731,-7.731,-7.731,-7.731,-7.731,-7.731,-7.731,-7.731,-7.731,-7.731,-7.731,-7.731,-7.731,-7.731,-7.731,-7.731,-7.7273,-7.7237,-7.72,-7.7163,-7.7053,-7.709,-7.7053,-7.7053,-7.7053,-7.7053,-7.687,-7.668,-7.6796,-7.7237,-7.709,-7.6827,-7.613,-7.5395,-7.5175,-7.4882,-7.4074,-7.4001,-7.3597,-7.3046,-7.2863,-7.2716,-7.2642,-7.2532,-7.2532,-7.2532,-7.2532,-7.2496,-7.2349,-7.2055,-7.1688,-7.0844,-7.0082,-6.9463,-6.8865,-6.8494,-6.821,-6.8123,-6.8097,-6.8047,-6.8235,-6.859,-6.9131,-6.9474,-6.9717,-6.9901,-6.9769,-6.8508,-6.774,-6.7416,-6.7029,-6.6715,-6.6666,-6.6762,-6.6955,-6.7089,-6.5956,-6.4883,-6.4626,-6.4407,-6.45,-6.4782,-6.5403,-6.5768,-8.2186,-8.2186,-8.2186,-8.2186,-8.2186,-8.2186,-8.2186,-8.2186,-8.2186,-8.2186,-8.2076,-8.1415,-8.0681,-7.9727,-7.8809,-7.7965,-7.731,-7.731,-7.731,-7.731,-7.731,-7.731,-7.731,-7.731,-7.731,-7.731,-7.731,-7.731,-7.731,-7.731,-7.731,-7.731,-7.731,-7.731,-7.731,-7.731,-7.731,-7.731,-7.731,-7.731,-7.731,-7.731,-7.731,-7.731,-7.731,-7.731,-7.731,-7.731,-7.731,-7.731,-7.731,-7.731,-7.731,-7.731,-7.731,-7.731,-7.731,-7.7163,-7.7127,-7.7127,-7.7237,-7.7273,-7.7127,-7.679,-7.613,-7.6019,-7.5616,-7.4992,-7.4845,-7.4441,-7.3927,-7.3523,-7.3156,-7.2899,-7.2679,-7.2532,-7.2532,-7.2532,-7.2496,-7.2496,-7.2275,-7.1982,-7.1615,-7.0881,-7.0253,-6.9694,-6.9168,-6.888,-6.8525,-6.8416,-6.8148,-6.8136,-6.8392,-6.8803,-6.9251,-6.9588,-7.0061,-7.0044,-6.9228,-6.8677,-6.8352,-6.7898,-6.7315,-6.7509,-6.7655,-6.7926,-6.7941,-6.6925,-6.5878,-6.4853,-6.4482,-6.4815,-6.4913,-6.5245,-6.5649,-8.2186,-8.2186,-8.2186,-8.2186,-8.2186,-8.2186,-8.2186,-8.2186,-8.2186,-8.2186,-8.215,-8.1342,-8.0571,-7.9764,-7.8956,-7.8112,-7.7384,-7.731,-7.731,-7.731,-7.731,-7.731,-7.731,-7.731,-7.731,-7.731,-7.731,-7.731,-7.731,-7.731,-7.731,-7.731,-7.731,-7.731,-7.731,-7.731,-7.731,-7.731,-7.731,-7.731,-7.731,-7.731,-7.731,-7.731,-7.731,-7.731,-7.731,-7.731,-7.731,-7.731,-7.731,-7.731,-7.731,-7.731,-7.731,-7.731,-7.731,-7.731,-7.731,-7.731,-7.731,-7.731,-7.7273,-7.7157,-7.679,-7.6827,-7.6423,-7.5946,-7.5652,-7.5285,-7.4625,-7.4001,-7.3487,-7.3193,-7.2936,-7.2679,-7.2532,-7.2532,-7.2496,-7.2496,-7.2496,-7.2349,-7.1982,-7.1578,-7.1025,-7.0487,-7.0013,-6.9557,-6.925,-6.8728,-6.8416,-6.8185,-6.8392,-6.8773,-6.921,-6.972,-7.0266,-7.0112,-6.9865,-6.9472,-6.8999,-6.853,-6.8137,-6.8316,-6.8452,-6.8557,-6.835,-6.7808,-6.6912,-6.5755,-6.5361,-6.5475,-6.5432,-6.5321,-6.5614,-8.2186,-8.2186,-8.2186,-8.2186,-8.2186,-8.2186,-8.2186,-8.2186,-8.2186,-8.2186,-8.215,-8.1562,-8.0718,-7.9837,-7.925,-7.8295,-7.7598,-7.731,-7.731,-7.731,-7.731,-7.731,-7.731,-7.731,-7.731,-7.731,-7.731,-7.731,-7.731,-7.731,-7.731,-7.731,-7.731,-7.731,-7.731,-7.731,-7.731,-7.731,-7.731,-7.731,-7.731,-7.731,-7.731,-7.731,-7.731,-7.731,-7.731,-7.731,-7.731,-7.731,-7.731,-7.731,-7.731,-7.731,-7.731,-7.731,-7.731,-7.731,-7.731,-7.731,-7.731,-7.731,-7.731,-7.7273,-7.731,-7.7273,-7.69,-7.6607,-7.6423,-7.613,-7.5359,-7.4882,-7.4111,-7.378,-7.334,-7.3046,-7.2642,-7.2532,-7.2532,-7.2496,-7.2496,-7.2496,-7.2349,-7.203,-7.1732,-7.1237,-7.0776,-7.0417,-7.0153,-6.9529,-6.8728,-6.8535,-6.844,-6.884,-6.9251,-6.9607,-6.9992,-7.0478,-7.0211,-6.9918,-6.9473,-6.8978,-6.8869,-6.9169,-6.9203,-6.9137,-6.9136,-6.9131,-6.7998,-6.6584,-6.6339,-6.6094,-6.6032,-6.5965,-6.6,-8.2186,-8.2186,-8.2186,-8.2186,-8.2186,-8.2186,-8.2186,-8.2186,-8.2186,-8.2186,-8.2186,-8.2039,-8.1232,-8.0131,-7.9727,-7.8809,-7.7708,-7.7384,-7.731,-7.731,-7.731,-7.731,-7.731,-7.731,-7.731,-7.731,-7.731,-7.731,-7.731,-7.731,-7.731,-7.731,-7.731,-7.731,-7.731,-7.731,-7.731,-7.731,-7.731,-7.731,-7.731,-7.731,-7.731,-7.731,-7.731,-7.731,-7.731,-7.731,-7.731,-7.731,-7.731,-7.731,-7.731,-7.731,-7.731,-7.731,-7.731,-7.731,-7.731,-7.731,-7.731,-7.731,-7.731,-7.731,-7.731,-7.7273,-7.7273,-7.6943,-7.7053,-7.679,-7.635,-7.5873,-7.4992,-7.4404,-7.3964,-7.3377,-7.2973,-7.2532,-7.2532,-7.2532,-7.2532,-7.2496,-7.2496,-7.2437,-7.2309,-7.1937,-7.1541,-7.1271,-7.1136,-7.046,-6.9566,-6.9072,-6.8929,-6.8705,-6.9064,-6.9292,-6.9701,-7.0314,-7.0554,-7.0266,-6.9793,-6.921,-6.9315,-6.9847,-6.9677,-6.9321,-7.0015,-7.0717,-6.9322,-6.7973,-6.6975,-6.6617,-6.6597,-6.6605,-6.6713,-8.2186,-8.2186,-8.2186,-8.2186,-8.2186,-8.2186,-8.2186,-8.2186,-8.2186,-8.2186,-8.2186,-8.2186,-8.1672,-8.0718,-7.991,-7.914,-7.8259,-7.742,-7.731,-7.731,-7.731,-7.731,-7.731,-7.731,-7.731,-7.731,-7.731,-7.731,-7.731,-7.731,-7.731,-7.731,-7.731,-7.731,-7.731,-7.731,-7.731,-7.731,-7.731,-7.731,-7.731,-7.731,-7.731,-7.731,-7.731,-7.731,-7.731,-7.731,-7.731,-7.731,-7.731,-7.731,-7.731,-7.731,-7.731,-7.731,-7.731,-7.731,-7.731,-7.731,-7.731,-7.731,-7.731,-7.731,-7.731,-7.731,-7.731,-7.731,-7.731,-7.7053,-7.6943,-7.6313,-7.5616,-7.5285,-7.4771,-7.3891,-7.3303,-7.2789,-7.2532,-7.2532,-7.2532,-7.2553,-7.2545,-7.3024,-7.3017,-7.3101,-7.2792,-7.2677,-7.2581,-7.1603,-7.0669,-7.0012,-6.959,-6.9034,-6.8891,-6.9353,-6.9645,-7.0145,-7.0509,-7.0578,-7.0026,-6.9511,-6.9472,-6.9793,-6.9626,-6.953,-7.0217,-7.0695,-7.0348,-6.9415,-6.8365,-6.7578,-6.7496,-6.7478,-6.7477,-8.2186,-8.2186,-8.2186,-8.2186,-8.2186,-8.2186,-8.2186,-8.2186,-8.2186,-8.2186,-8.2186,-8.2186,-8.1709,-8.0938,-8.0167,-7.936,-7.8552,-7.7708,-7.731,-7.731,-7.731,-7.731,-7.731,-7.731,-7.731,-7.731,-7.731,-7.731,-7.731,-7.731,-7.731,-7.731,-7.731,-7.731,-7.731,-7.731,-7.731,-7.731,-7.731,-7.731,-7.731,-7.731,-7.731,-7.731,-7.731,-7.731,-7.731,-7.731,-7.731,-7.731,-7.731,-7.731,-7.731,-7.731,-7.731,-7.731,-7.731,-7.731,-7.731,-7.731,-7.731,-7.731,-7.731,-7.731,-7.731,-7.731,-7.731,-7.731,-7.731,-7.7273,-7.7163,-7.657,-7.6313,-7.5983,-7.5432,-7.4588,-7.3634,-7.312,-7.2716,-7.2679,-7.2582,-7.2602,-7.2834,-7.3417,-7.3815,-7.3975,-7.4119,-7.3979,-7.3776,-7.2734,-7.17,-7.0991,-7.0259,-6.9633,-6.9378,-6.9607,-6.9865,-7.0078,-7.0346,-7.0705,-7.0478,-7.0009,-6.9847,-6.9738,-6.9775,-6.9901,-7.0298,-7.0448,-7.0439,-7.0164,-6.955,-6.8902,-6.8542,-6.8378,-6.8334,-8.2186,-8.2186,-8.2186,-8.2186,-8.2186,-8.2186,-8.2186,-8.2186,-8.2186,-8.2186,-8.2186,-8.2186,-8.1819,-8.1048,-8.0204,-7.9433,-7.8626,-7.7781,-7.7384,-7.731,-7.731,-7.731,-7.731,-7.731,-7.731,-7.731,-7.731,-7.731,-7.731,-7.731,-7.731,-7.731,-7.731,-7.731,-7.731,-7.731,-7.731,-7.731,-7.731,-7.731,-7.731,-7.731,-7.731,-7.731,-7.731,-7.731,-7.731,-7.731,-7.731,-7.731,-7.731,-7.731,-7.731,-7.731,-7.731,-7.731,-7.731,-7.731,-7.731,-7.731,-7.731,-7.731,-7.731,-7.731,-7.731,-7.731,-7.731,-7.731,-7.731,-7.731,-7.72,-7.7017,-7.69,-7.6497,-7.613,-7.5212,-7.4111,-7.3523,-7.312,-7.292,-7.274,-7.2844,-7.3391,-7.3957,-7.4447,-7.4654,-7.477,-7.4882,-7.4559,-7.3645,-7.2673,-7.1875,-7.1086,-7.018,-6.9982,-6.9853,-6.972,-6.9793,-7.0478,-7.0791,-7.0622,-7.0448,-7.0145,-7.0026,-7.0112,-7.0314,-7.0569,-7.0748,-7.0805,-7.0465,-7.0133,-7.0064,-6.9567,-6.9298,-6.9199,-8.2186,-8.2186,-8.2186,-8.2186,-8.2186,-8.2186,-8.2186,-8.2186,-8.2186,-8.2186,-8.2186,-8.2186,-8.1966,-8.1746,-8.0424,-7.9727,-7.8956,-7.8148,-7.7494,-7.731,-7.731,-7.731,-7.731,-7.731,-7.731,-7.731,-7.731,-7.731,-7.731,-7.731,-7.731,-7.731,-7.731,-7.731,-7.731,-7.731,-7.731,-7.731,-7.731,-7.731,-7.731,-7.731,-7.731,-7.731,-7.731,-7.731,-7.731,-7.731,-7.731,-7.731,-7.731,-7.731,-7.731,-7.731,-7.731,-7.731,-7.731,-7.731,-7.731,-7.731,-7.731,-7.731,-7.731,-7.731,-7.731,-7.731,-7.731,-7.731,-7.731,-7.731,-7.731,-7.72,-7.7127,-7.6937,-7.646,-7.5689,-7.4661,-7.4001,-7.3553,-7.3056,-7.2844,-7.3492,-7.4049,-7.4509,-7.498,-7.5201,-7.5336,-7.5472,-7.5334,-7.4474,-7.3712,-7.2902,-7.205,-7.1218,-7.0152,-6.9817,-6.962,-6.9607,-7.0266,-7.0815,-7.0762,-7.0539,-7.033,-7.0244,-7.0314,-7.0509,-7.0777,-7.0885,-7.0898,-7.0898,-7.0623,-7.0686,-7.0657,-7.0186,-7.0003,-8.1929,-8.2186,-8.2186,-8.2186,-8.2186,-8.2186,-8.2186,-8.2186,-8.2186,-8.2186,-8.2186,-8.2186,-8.2003,-8.1489,-8.0388,-7.958,-7.9103,-7.7965,-7.731,-7.731,-7.731,-7.731,-7.731,-7.731,-7.731,-7.731,-7.731,-7.731,-7.731,-7.731,-7.731,-7.731,-7.731,-7.731,-7.731,-7.731,-7.731,-7.731,-7.731,-7.731,-7.731,-7.731,-7.731,-7.731,-7.731,-7.731,-7.731,-7.731,-7.731,-7.731,-7.731,-7.731,-7.731,-7.731,-7.731,-7.731,-7.731,-7.731,-7.731,-7.731,-7.731,-7.731,-7.731,-7.731,-7.731,-7.731,-7.731,-7.731,-7.731,-7.731,-7.731,-7.7273,-7.7273,-7.7273,-7.6717,-7.6093,-7.5322,-7.4551,-7.3893,-7.3266,-7.3492,-7.4124,-7.4652,-7.5165,-7.5463,-7.5584,-7.5686,-7.578,-7.5793,-7.5417,-7.4704,-7.4005,-7.3132,-7.2278,-7.1176,-7.0197,-7.005,-7.0024,-7.0068,-7.0524,-7.0676,-7.0762,-7.0608,-7.0509,-7.0478,-7.0666,-7.0885,-7.0885,-7.0898,-7.0898,-7.0898,-7.0871,-7.0805,-7.0714,-7.0637,-8.1342,-8.1929,-8.2003,-8.1856,-8.1966,-8.1893,-8.1893,-8.2003,-8.1856,-8.2076,-8.2113,-8.2113,-8.1672,-8.1048,-8.0021,-7.925,-7.8662,-7.7781,-7.731,-7.731,-7.731,-7.731,-7.731,-7.731,-7.731,-7.731,-7.731,-7.731,-7.731,-7.731,-7.731,-7.731,-7.731,-7.731,-7.731,-7.731,-7.731,-7.731,-7.731,-7.731,-7.731,-7.731,-7.731,-7.731,-7.731,-7.731,-7.731,-7.731,-7.731,-7.731,-7.731,-7.731,-7.731,-7.731,-7.731,-7.731,-7.731,-7.731,-7.731,-7.731,-7.731,-7.731,-7.731,-7.731,-7.731,-7.731,-7.731,-7.731,-7.731,-7.731,-7.731,-7.7335,-7.7335,-7.751,-7.7356,-7.6692,-7.5953,-7.5115,-7.4263,-7.3814,-7.4101,-7.4711,-7.5165,-7.56,-7.5702,-7.5864,-7.5947,-7.5976,-7.5976,-7.5861,-7.5524,-7.4849,-7.3915,-7.2998,-7.2146,-7.1295,-7.0871,-7.0688,-7.0489,-7.0445,-7.0787,-7.0871,-7.0898,-7.0777,-7.0666,-7.0762,-7.0898,-7.0898,-7.0898,-7.0898,-7.0898,-7.0898,-7.0898,-7.0898,-7.0898,-8.0167,-8.0388,-8.0351,-8.0351,-8.0351,-8.0351,-8.0388,-8.0351,-8.0351,-8.1085,-8.1929,-8.1562,-8.1158,-8.0681,-7.9507,-7.8772,-7.8405,-7.7708,-7.7347,-7.731,-7.731,-7.731,-7.731,-7.731,-7.731,-7.731,-7.731,-7.731,-7.731,-7.731,-7.731,-7.731,-7.731,-7.731,-7.731,-7.731,-7.731,-7.731,-7.731,-7.731,-7.731,-7.731,-7.731,-7.731,-7.731,-7.731,-7.731,-7.731,-7.731,-7.731,-7.731,-7.731,-7.731,-7.731,-7.731,-7.731,-7.731,-7.731,-7.731,-7.731,-7.731,-7.731,-7.731,-7.731,-7.731,-7.731,-7.731,-7.731,-7.731,-7.731,-7.7304,-7.7335,-7.745,-7.7768,-7.7942,-7.7265,-7.655,-7.5612,-7.4648,-7.4636,-7.4825,-7.5201,-7.5616,-7.5833,-7.5947,-7.5976,-7.5962,-7.5976,-7.5976,-7.5938,-7.5938,-7.5311,-7.4468,-7.3588,-7.2887,-7.225,-7.1764,-7.1274,-7.1047,-7.0992,-7.0944,-7.0885,-7.0898,-7.0898,-7.0885,-7.0898,-7.0898,-7.0898,-7.0898,-7.0898,-7.0898,-7.0898,-7.0898,-7.0898,-7.0898,-7.947,-7.9795,-7.9832,-7.9832,-7.9832,-7.9832,-7.9832,-7.9832,-7.9832,-8.0277,-8.1012,-8.0645,-8.0277,-8.0021,-7.8956,-7.8259,-7.8075,-7.7561,-7.7347,-7.731,-7.731,-7.731,-7.731,-7.731,-7.731,-7.731,-7.731,-7.731,-7.731,-7.731,-7.731,-7.731,-7.731,-7.731,-7.731,-7.731,-7.731,-7.731,-7.731,-7.731,-7.731,-7.731,-7.731,-7.731,-7.731,-7.731,-7.731,-7.731,-7.731,-7.731,-7.731,-7.731,-7.731,-7.731,-7.731,-7.731,-7.731,-7.731,-7.731,-7.731,-7.731,-7.731,-7.731,-7.731,-7.731,-7.731,-7.731,-7.731,-7.731,-7.731,-7.731,-7.7335,-7.7651,-7.7988,-7.8024,-7.7649,-7.693,-7.612,-7.5296,-7.4857,-7.5127,-7.5567,-7.5864,-7.5879,-7.5976,-7.5976,-7.5976,-7.5976,-7.5976,-7.5976,-7.5976,-7.5817,-7.5009,-7.4528,-7.4125,-7.3323,-7.2518,-7.205,-7.1712,-7.1574,-7.1496,-7.1098,-7.0898,-7.0898,-7.0898,-7.0898,-7.0898,-7.0898,-7.0898,-7.0898,-7.0898,-7.0898,-7.0898,-7.0898,-7.0898,-7.8809,-7.9433,-7.9433,-7.9433,-7.947,-7.947,-7.9396,-7.9396,-7.9433,-7.9396,-7.9433,-7.9433,-7.9029,-7.8772,-7.8405,-7.7892,-7.7494,-7.7384,-7.731,-7.731,-7.731,-7.731,-7.731,-7.731,-7.731,-7.731,-7.731,-7.731,-7.731,-7.731,-7.731,-7.731,-7.731,-7.731,-7.731,-7.731,-7.731,-7.731,-7.731,-7.731,-7.731,-7.731,-7.731,-7.731,-7.731,-7.731,-7.731,-7.731,-7.731,-7.731,-7.731,-7.731,-7.731,-7.731,-7.731,-7.731,-7.731,-7.731,-7.731,-7.731,-7.731,-7.731,-7.731,-7.731,-7.731,-7.7304,-7.7304,-7.7304,-7.7304,-7.7304,-7.7304,-7.7365,-7.7739,-7.8325,-7.8286,-7.8204,-7.7492,-7.6764,-7.6065,-7.5396,-7.5578,-7.5994,-7.5962,-7.5976,-7.5976,-7.5976,-7.5976,-7.5976,-7.5976,-7.5976,-7.5976,-7.5976,-7.5618,-7.5288,-7.4994,-7.4334,-7.338,-7.3041,-7.2735,-7.2389,-7.2042,-7.1646,-7.1245,-7.0898,-7.0898,-7.0937,-7.0898,-7.0898,-7.0898,-7.0898,-7.0898,-7.0898,-7.0898,-7.0898,-7.0898,-7.7604,-7.7781,-7.7781,-7.7787,-7.7818,-7.7818,-7.7818,-7.775,-7.7855,-7.775,-7.7928,-7.7892,-7.7965,-7.8552,-7.7818,-7.7384,-7.7384,-7.731,-7.731,-7.731,-7.731,-7.731,-7.731,-7.731,-7.731,-7.731,-7.731,-7.731,-7.731,-7.731,-7.731,-7.731,-7.731,-7.731,-7.731,-7.731,-7.731,-7.731,-7.731,-7.731,-7.731,-7.731,-7.731,-7.731,-7.731,-7.731,-7.731,-7.731,-7.731,-7.731,-7.731,-7.731,-7.731,-7.731,-7.731,-7.731,-7.731,-7.731,-7.731,-7.731,-7.731,-7.731,-7.731,-7.731,-7.7335,-7.7396,-7.7365,-7.7304,-7.7335,-7.7335,-7.7335,-7.7304,-7.7592,-7.8691,-7.9154,-7.8988,-7.8599,-7.7818,-7.7111,-7.6432,-7.606,-7.6117,-7.5976,-7.5976,-7.5976,-7.5976,-7.5976,-7.5976,-7.5976,-7.5976,-7.5976,-7.5976,-7.5976,-7.5616,-7.518,-7.5014,-7.4352,-7.4065,-7.3659,-7.3265,-7.2786,-7.2213,-7.1822,-7.136,-7.1052,-7.1014,-7.0975,-7.0898,-7.0898,-7.0898,-7.0898,-7.0898,-7.0898,-7.0898,-7.0898]},{"header":{"parameterUnit":"m.s-1","parameterCategory":1,"la1":31.0,"la2":29.5877,"lo1":-88.7671,"lo2":-86.6584,"dy":0.0162,"dx":0.0185,"nx":115,"ny":88,"refTime":"2025-05-14T12:00:00:Z","depth":0,"parameterNumber":3,"parameterNumberName":"V-component_of_WINDS"},"data":[0.0,0.0,0.0,0.0,0.0,0.0,0.0,0.0,0.0,0.0,0.0,0.0,0.0,0.0,0.0,0.0,0.0,0.0,0.0,0.0,0.0,0.0,0.0,0.0,0.0,0.0,0.0,0.0,0.0,0.0,0.0,0.0,0.0,0.0,0.0,0.0,0.0,0.0,0.0,0.0,0.0,0.0,0.0,0.0,0.0,0.0,0.0,0.0,0.0,0.0,0.0,0.0,0.0,0.0,0.0,0.0,0.0,0.0,0.0,0.0,0.0,0.0,0.0,0.0,0.0,0.0,0.0,0.0,0.0,0.0,0.0,0.0,0.0,0.0,0.0,0.0,0.0,0.0,0.0,0.0,0.0,0.0,0.0,0.0,0.0,0.0,0.0,0.0,0.0,0.0,0.0,0.0,0.0,0.0,0.0,0.0,0.0,0.0,0.0,0.0,0.0,0.0,0.0,0.0,0.0,0.0,0.0,0.0,0.0,0.0,0.0,0.0,0.0,0.0,0.0,0.0,0.0,0.0,0.0,0.0,0.0,0.0,0.0,0.0,0.0,0.0,0.0,0.0,0.0,0.0,0.0,0.0,0.0,0.0,0.0,0.0,0.0,0.0,0.0,0.0,0.0,0.0,0.0,0.0,0.0,0.0,0.0,0.0,0.0,0.0,0.0,0.0,0.0,0.0,0.0,0.0,0.0,0.0,0.0,0.0,0.0,0.0,0.0,0.0,0.0,0.0,0.0,0.0,0.0,0.0,0.0,0.0,0.0,0.0,0.0,0.0,0.0,0.0,0.0,0.0,0.0,0.0,0.0,0.0,0.0,0.0,0.0,0.0,0.0,0.0,0.0,0.0,0.0,0.0,0.0,0.0,0.0,0.0,0.0,0.0,0.0,0.0,0.0,0.0,0.0,0.0,0.0,0.0,0.0,0.0,0.0,0.0,0.0,0.0,0.0,0.0,0.0,0.0,0.0,0.0,0.0,0.0,0.0,0.0,0.0,0.0,0.0,0.0,0.0,0.0,0.0,0.0,0.0,0.0,0.0,0.0,0.0,0.0,0.0,0.0,0.0,0.0,0.0,0.0,0.0,0.0,0.0,0.0,0.0,0.0,0.0,0.0,0.0,0.0,0.0,0.0,0.0,0.0,0.0,0.0,0.0,0.0,0.0,0.0,0.0,0.0,0.0,0.0,0.0,0.0,0.0,0.0,0.0,0.0,0.0,0.0,0.0,0.0,0.0,0.0,0.0,0.0,0.0,0.0,0.0,0.0,0.0,0.0,0.0,0.0,0.0,0.0,0.0,0.0,0.0,0.0,0.0,0.0,0.0,0.0,0.0,0.0,0.0,0.0,0.0,0.0,0.0,0.0,0.0,0.0,0.0,0.0,0.0,0.0,0.0,0.0,0.0,0.0,0.0,0.0,0.0,0.0,0.0,0.0,0.0,0.0,0.0,0.0,0.0,0.0,0.0,0.0,0.0,0.0,0.0,0.0,0.0,0.0,0.0,0.0,0.0,0.0,0.0,0.0,0.0,0.0,0.0,0.0,0.0,0.0,0.0,0.0,0.0,0.0,0.0,0.0,0.0,0.0,0.0,0.0,0.0,0.0,0.0,0.0,0.0,0.0,0.0,0.0,0.0,0.0,0.0,0.0,0.0,0.0,0.0,0.0,0.0,0.0,0.0,0.0,0.0,0.0,0.0,0.0,0.0,0.0,0.0,0.0,0.0,0.0,0.0,0.0,0.0,0.0,0.0,0.0,0.0,0.0,0.0,0.0,0.0,0.0,0.0,0.0,0.0,0.0,0.0,0.0,0.0,0.0,0.0,0.0,0.0,0.0,0.0,0.0,0.0,0.0,0.0,0.0,0.0,0.0,0.0,0.0,0.0,0.0,0.0,0.0,0.0,0.0,0.0,0.0,0.0,0.0,0.0,0.0,0.0,0.0,0.0,0.0,0.0,0.0,0.0,0.0,0.0,0.0,0.0,0.0,0.0,0.0,0.0,0.0,0.0,0.0,0.0,0.0,0.0,0.0,0.0,0.0,0.0,0.0,0.0,0.0,0.0,0.0,0.0,0.0,0.0,0.0,0.0,0.0,0.0,0.0,0.0,0.0,0.0,0.0,0.0,0.0,0.0,0.0,0.0,0.0,0.0,0.0,0.0,0.0,0.0,0.0,0.0,0.0,0.0,0.0,0.0,0.0,0.0,0.0,0.0,0.0,0.0,0.0,0.0,0.0,0.0,0.0,0.0,0.0,0.0,0.0,0.0,0.0,0.0,0.0,0.0,0.0,0.0,0.0,0.0,0.0,0.0,0.0,0.0,0.0,0.0,0.0,0.0,0.0,0.0,0.0,0.0,0.0,0.0,0.0,0.0,0.0,0.0,0.0,0.0,0.0,0.0,0.0,0.0,0.0,0.0,0.0,0.0,0.0,0.0,0.0,0.0,0.0,0.0,0.0,0.0,0.0,0.0,0.0,0.0,0.0,0.0,0.0,0.0,0.0,0.0,0.0,0.0,0.0,0.0,0.0,0.0,0.0,0.0,0.0,0.0,0.0,0.0,0.0,0.0,0.0,0.0,0.0,0.0,0.0,0.0,0.0,0.0,0.0,0.0,0.0,0.0,0.0,0.0,0.0,0.0,0.0,0.0,0.0,0.0,0.0,0.0,0.0,0.0,0.0,0.0,0.0,0.0,0.0,0.0,0.0,0.0,0.0,0.0,0.0,0.0,0.0,0.0,0.0,0.0,0.0,0.0,0.0,0.0,0.0,0.0,0.0,0.0,0.0,0.0,0.0,0.0,0.0,0.0,0.0,0.0,0.0,0.0,0.0,0.0,0.0,0.0,0.0,0.0,0.0,0.0,0.0,0.0,0.0,0.0,0.0,0.0,0.0,0.0,0.0,0.0,0.0,0.0,0.0,0.0,0.0,0.0,0.0,0.0,0.0,0.0,0.0,0.0,0.0,0.0,0.0,0.0,0.0,0.0,0.0,0.0,0.0,0.0,0.0,0.0,0.0,0.0,0.0,0.0,0.0,0.0,0.0,0.0,0.0,0.0,0.0,0.0,0.0,0.0,0.0,0.0,0.0,0.0,0.0,0.0,0.0,0.0,0.0,0.0,0.0,0.0,0.0,0.0,0.0,0.0,0.0,0.0,0.0,0.0,0.0,0.0,0.0,0.0,0.0,0.0,0.0,0.0,0.0,0.0,0.0,0.0,0.0,0.0,0.0,0.0,0.0,0.0,0.0,0.0,0.0,0.0,0.0,0.0,0.0,0.0,0.0,0.0,0.0,0.0,0.0,0.0,0.0,0.0,0.0,0.0,0.0,0.0,0.0,0.0,0.0,0.0,0.0,0.0,0.0,0.0,0.0,0.0,0.0,0.0,0.0,0.0,0.0,0.0,0.0,0.0,0.0,0.0,0.0,0.0,0.0,0.0,0.0,0.0,0.0,0.0,0.0,0.0,0.0,0.0,0.0,0.0,0.0,0.0,0.0,0.0,0.0,0.0,0.0,0.0,0.0,0.0,0.0,0.0,0.0,0.0,0.0,0.0,0.0,0.0,0.0,0.0,0.0,0.0,0.0,0.0,0.0,0.0,0.0,0.0,0.0,0.0,0.0,0.0,0.0,0.0,0.0,0.0,0.0,0.0,0.0,0.0,0.0,0.0,0.0,0.0,0.0,0.0,0.0,0.0,0.0,0.0,0.0,0.0,0.0,0.0,0.0,0.0,0.0,0.0,0.0,0.0,0.0,0.0,0.0,0.0,0.0,0.0,0.0,0.0,0.0,0.0,0.0,0.0,0.0,0.0,0.0,0.0,0.0,0.0,0.0,0.0,0.0,0.0,0.0,0.0,0.0,0.0,0.0,0.0,0.0,0.0,0.0,0.0,0.0,0.0,0.0,0.0,0.0,0.0,0.0,0.0,0.0,0.0,0.0,0.0,0.0,0.0,0.0,0.0,0.0,0.0,0.0,0.0,0.0,0.0,0.0,0.0,0.0,0.0,0.0,0.0,0.0,0.0,0.0,0.0,0.0,0.0,0.0,0.0,0.0,0.0,0.0,0.0,0.0,0.0,0.0,0.0,0.0,0.0,0.0,0.0,0.0,0.0,0.0,0.0,0.0,0.0,0.0,0.0,0.0,0.0,0.0,0.0,0.0,0.0,0.0,0.0,0.0,0.0,0.0,0.0,0.0,0.0,0.0,0.0,0.0,0.0,0.0,0.0,0.0,0.0,0.0,0.0,0.0,0.0,0.0,0.0,0.0,0.0,0.0,0.0,0.0,-0.6272,0.0,0.0,0.0,0.0,0.0,0.0,0.0,0.0,0.0,0.0,0.0,0.0,0.0,0.0,0.0,0.0,0.0,0.0,0.0,0.0,0.0,0.0,0.0,0.0,0.0,0.0,0.0,0.0,0.0,0.0,0.0,0.0,0.0,0.0,0.0,0.0,0.0,0.0,0.0,0.0,0.0,0.0,0.0,0.0,0.0,0.0,0.0,0.0,0.0,0.0,0.0,0.0,0.0,0.0,0.0,0.0,0.0,0.0,0.0,0.0,0.0,0.0,0.0,0.0,0.0,0.0,0.0,0.0,0.0,0.0,0.0,0.0,0.0,0.0,0.0,0.0,0.0,0.0,0.0,0.0,0.0,0.0,0.0,0.0,0.0,0.0,0.0,0.0,0.0,0.0,0.0,0.0,0.0,0.0,0.0,0.0,0.0,0.0,0.0,0.0,0.0,0.0,0.0,0.0,0.0,0.0,0.0,0.0,0.0,0.0,-0.6668,-0.6817,-0.6675,-0.6566,-0.6416,0.0,0.0,0.0,0.0,0.0,0.0,0.0,0.0,0.0,0.0,0.0,0.0,0.0,0.0,0.0,0.0,0.0,0.0,0.0,0.0,0.0,0.0,0.0,0.0,0.0,0.0,0.0,0.0,0.0,0.0,0.0,0.0,0.0,0.0,0.0,0.0,0.0,0.0,0.0,0.0,0.0,0.0,0.0,0.0,0.0,0.0,0.0,0.0,0.0,0.0,0.0,0.0,0.0,0.0,0.0,0.0,0.0,0.0,0.0,0.0,0.0,0.0,0.0,0.0,0.0,0.0,0.0,0.0,0.0,0.0,0.0,0.0,0.0,0.0,0.0,0.0,0.0,0.0,0.0,0.0,0.0,0.0,0.0,0.0,0.0,0.0,0.0,0.0,0.0,0.0,0.0,0.0,0.0,0.0,0.0,0.0,0.0,0.0,0.0,0.0,0.0,0.0,0.0,0.0,0.0,0.0,0.0,0.0,0.0,0.0,0.0,0.0,-0.7268,-0.7382,-0.7425,0.0,0.0,0.0,0.0,0.0,0.0,0.0,0.0,0.0,0.0,0.0,0.0,0.0,0.0,0.0,0.0,0.0,0.0,0.0,0.0,0.0,0.0,0.0,0.0,0.0,0.0,0.0,0.0,0.0,0.0,0.0,0.0,0.0,0.0,0.0,0.0,0.0,0.0,0.0,0.0,0.0,0.0,0.0,0.0,0.0,0.0,0.0,0.0,0.0,0.0,0.0,0.0,0.0,0.0,0.0,0.0,0.0,0.0,0.0,0.0,0.0,0.0,0.0,0.0,0.0,0.0,0.0,0.0,0.0,0.0,0.0,0.0,0.0,0.0,0.0,0.0,0.0,0.0,0.0,0.0,0.0,0.0,0.0,0.0,0.0,0.0,0.0,0.0,0.0,0.0,0.0,0.0,0.0,0.0,0.0,0.0,0.0,0.0,0.0,0.0,0.0,0.0,0.0,0.0,0.0,0.0,0.0,0.0,0.0,0.0,-0.6966,-0.7516,-0.8639,0.0,-1.0136,0.0,0.0,0.0,0.0,0.0,0.0,0.0,0.0,0.0,0.0,0.0,0.0,0.0,0.0,0.0,0.0,0.0,0.0,0.0,0.0,0.0,0.0,0.0,0.0,0.0,0.0,0.0,0.0,0.0,0.0,0.0,0.0,0.0,0.0,0.0,0.0,0.0,0.0,0.0,0.0,0.0,0.0,0.0,0.0,0.0,0.0,0.0,0.0,0.0,0.0,0.0,0.0,0.0,0.0,0.0,0.0,0.0,0.0,0.0,0.0,0.0,0.0,0.0,0.0,0.0,0.0,0.0,0.0,0.0,0.0,0.0,0.0,0.0,0.0,0.0,0.0,0.0,0.0,0.0,0.0,0.0,0.0,0.0,0.0,0.0,0.0,0.0,0.0,0.0,0.0,0.0,0.0,0.0,0.0,0.0,0.0,0.0,0.0,0.0,0.0,0.0,0.0,0.0,0.0,0.0,0.0,0.0,0.0,0.0,0.0,0.0,-0.8673,-0.9749,-1.032,0.0,0.0,0.0,0.0,0.0,0.0,0.0,0.0,0.0,0.0,0.0,0.0,0.0,0.0,0.0,0.0,0.0,0.0,0.0,0.0,0.0,0.0,0.0,0.0,0.0,0.0,0.0,0.0,0.0,0.0,0.0,0.0,0.0,0.0,0.0,0.0,0.0,0.0,0.0,0.0,0.0,0.0,0.0,0.0,0.0,0.0,0.0,0.0,0.0,0.0,0.0,0.0,0.0,0.0,0.0,0.0,0.0,0.0,0.0,0.0,0.0,0.0,0.0,0.0,0.0,0.0,0.0,0.0,0.0,0.0,0.0,0.0,0.0,0.0,0.0,0.0,0.0,0.0,0.0,0.0,0.0,0.0,0.0,0.0,0.0,0.0,0.0,0.0,0.0,0.0,0.0,0.0,0.0,0.0,0.0,0.0,0.0,0.0,0.0,0.0,0.0,0.0,0.0,0.0,0.0,0.0,0.0,0.0,0.0,0.0,-0.7021,0.0,-0.9958,-1.1059,-1.1413,-1.1042,0.0,0.0,0.0,0.0,0.0,0.0,0.0,0.0,0.0,0.0,0.0,0.0,0.0,0.0,0.0,0.0,0.0,0.0,0.0,0.0,0.0,0.0,0.0,0.0,0.0,0.0,0.0,0.0,0.0,0.0,0.0,0.0,0.0,0.0,0.0,0.0,0.0,0.0,0.0,0.0,0.0,0.0,0.0,0.0,0.0,0.0,0.0,0.0,0.0,0.0,0.0,0.0,0.0,0.0,0.0,0.0,0.0,0.0,0.0,0.0,0.0,0.0,0.0,0.0,0.0,0.0,0.0,0.0,0.0,0.0,0.0,0.0,0.0,0.0,0.0,0.0,0.0,0.0,0.0,0.0,0.0,0.0,0.0,0.0,0.0,0.0,0.0,0.0,0.0,0.0,0.0,0.0,0.0,0.0,0.0,0.0,0.0,0.0,0.0,0.0,0.0,0.0,0.0,0.0,0.0,0.0,0.0,0.0,0.0,-0.7272,-0.8509,-1.1358,-1.2785,-1.3407,0.0,0.0,0.0,0.0,0.0,0.0,0.0,0.0,0.0,0.0,0.0,0.0,0.0,0.0,0.0,0.0,0.0,0.0,0.0,0.0,0.0,0.0,0.0,0.0,0.0,0.0,0.0,0.0,0.0,0.0,0.0,0.0,0.0,0.0,0.0,0.0,0.0,0.0,0.0,0.0,0.0,0.0,0.0,0.0,0.0,0.0,0.0,0.0,0.0,0.0,0.0,0.0,0.0,0.0,0.0,0.0,0.0,0.0,0.0,0.0,0.0,0.0,0.0,0.0,0.0,0.0,0.0,0.0,0.0,0.0,0.0,0.0,0.0,0.0,0.0,0.0,0.0,0.0,0.0,0.0,0.0,0.0,0.0,0.0,0.0,0.0,0.0,0.0,0.0,0.0,0.0,0.0,0.0,0.0,0.0,0.0,0.0,0.0,0.0,0.0,0.0,0.0,0.0,0.0,0.0,0.0,0.0,0.0,0.0,-0.6812,-0.8463,-1.0676,-1.3335,-1.3586,-1.3685,0.0,0.0,0.0,0.0,0.0,0.0,0.0,0.0,0.0,0.0,0.0,0.0,0.0,0.0,0.0,0.0,0.0,0.0,0.0,0.0,0.0,0.0,0.0,0.0,0.0,0.0,0.0,0.0,0.0,0.0,0.0,0.0,0.0,0.0,0.0,0.0,0.0,0.0,0.0,0.0,0.0,0.0,0.0,0.0,0.0,0.0,0.0,0.0,0.0,0.0,0.0,0.0,0.0,0.0,0.0,0.0,0.0,0.0,0.0,0.0,0.0,0.0,0.0,0.0,0.0,0.0,0.0,0.0,0.0,0.0,0.0,0.0,0.0,0.0,0.0,0.0,0.0,0.0,0.0,0.0,0.0,0.0,0.0,0.0,0.0,0.0,0.0,0.0,0.0,0.0,0.0,0.0,0.0,0.0,0.0,0.0,0.0,0.0,0.0,0.0,0.0,0.0,0.0,0.0,0.0,0.0,0.0,0.0,0.0,-0.7465,0.0,-1.2483,0.0,-1.4078,-1.3854,0.0,0.0,0.0,0.0,0.0,0.0,0.0,0.0,0.0,0.0,0.0,0.0,0.0,0.0,0.0,0.0,0.0,0.0,0.0,0.0,0.0,0.0,0.0,0.0,0.0,0.0,0.0,0.0,0.0,0.0,0.0,0.0,0.0,0.0,0.0,0.0,0.0,0.0,0.0,0.0,0.0,0.0,0.0,0.0,0.0,0.0,0.0,0.0,0.0,0.0,0.0,0.0,0.0,0.0,0.0,0.0,0.0,0.0,0.0,0.0,0.0,0.0,0.0,0.0,0.0,0.0,0.0,0.0,0.0,0.0,0.0,0.0,0.0,0.0,0.0,0.0,0.0,0.0,0.0,0.0,0.0,0.0,0.0,0.0,0.0,0.0,0.0,0.0,0.0,0.0,0.0,0.0,0.0,0.0,0.0,0.0,0.0,0.0,0.0,0.0,0.0,0.0,0.0,0.0,0.0,0.0,0.0,0.0,-0.7529,-0.98,-1.2544,-1.3669,-1.2917,-1.4276,-1.403,0.0,0.0,0.0,0.0,0.0,0.0,0.0,0.0,0.0,0.0,0.0,0.0,0.0,0.0,0.0,0.0,0.0,0.0,0.0,0.0,0.0,0.0,0.0,0.0,0.0,0.0,0.0,0.0,0.0,0.0,0.0,0.0,0.0,0.0,0.0,0.0,0.0,0.0,0.0,0.0,0.0,0.0,0.0,0.0,0.0,0.0,0.0,0.0,0.0,0.0,0.0,0.0,0.0,0.0,0.0,0.0,0.0,0.0,0.0,0.0,0.0,0.0,0.0,0.0,0.0,0.0,0.0,0.0,0.0,0.0,0.0,0.0,0.0,0.0,0.0,0.0,0.0,0.0,0.0,0.0,0.0,0.0,0.0,0.0,0.0,0.0,0.0,0.0,0.0,0.0,0.0,0.0,0.0,0.0,0.0,0.0,0.0,0.0,0.0,0.0,0.0,0.0,0.0,0.0,0.0,0.0,0.0,0.0,0.0,-1.2003,-1.3287,-1.4643,-1.6009,-1.4963,-1.4349,0.0,0.0,0.0,0.0,0.0,0.0,0.0,0.0,0.0,0.0,0.0,0.0,0.0,0.0,0.0,0.0,0.0,0.0,0.0,0.0,0.0,0.0,0.0,0.0,0.0,0.0,0.0,0.0,0.0,0.0,0.0,0.0,0.0,0.0,0.0,0.0,0.0,0.0,0.0,0.0,0.0,0.0,0.0,0.0,0.0,0.0,0.0,0.0,0.0,0.0,0.0,0.0,0.0,0.0,0.0,0.0,0.0,0.0,0.0,0.0,0.0,0.0,0.0,0.0,0.0,0.0,0.0,0.0,0.0,0.0,0.0,0.0,0.0,0.0,0.0,0.0,0.0,0.0,0.0,0.0,0.0,0.0,0.0,0.0,0.0,0.0,0.0,0.0,0.0,0.0,0.0,0.0,0.0,0.0,0.0,0.0,0.0,0.0,0.0,0.0,0.0,0.0,0.0,0.0,0.0,0.0,0.0,0.0,0.0,-1.4844,-1.5443,-1.6304,-1.7408,-1.5885,-1.5017,-1.4883,0.0,0.0,0.0,0.0,0.0,0.0,0.0,0.0,0.0,0.0,0.0,0.0,0.0,0.0,0.0,0.0,0.0,0.0,0.0,0.0,0.0,0.0,0.0,0.0,0.0,0.0,0.0,0.0,0.0,0.0,0.0,0.0,0.0,0.0,0.0,0.0,0.0,0.0,0.0,0.0,0.0,0.0,0.0,0.0,0.0,0.0,0.0,0.0,0.0,0.0,0.0,0.0,0.0,0.0,0.0,0.0,0.0,0.0,0.0,0.0,0.0,0.0,0.0,0.0,0.0,0.0,0.0,0.0,0.0,0.0,0.0,0.0,0.0,0.0,0.0,0.0,0.0,0.0,0.0,0.0,0.0,0.0,0.0,0.0,0.0,0.0,0.0,0.0,0.0,0.0,0.0,0.0,0.0,0.0,0.0,0.0,0.0,0.0,0.0,0.0,0.0,0.0,0.0,0.0,0.0,0.0,0.0,0.0,-1.8049,-1.8688,-1.8517,-1.7474,-1.6967,-1.5965,0.0,0.0,0.0,0.0,0.0,0.0,0.0,0.0,0.0,0.0,0.0,0.0,0.0,0.0,0.0,0.0,0.0,0.0,0.0,0.0,0.0,0.0,0.0,0.0,0.0,0.0,0.0,0.0,0.0,0.0,0.0,0.0,0.0,0.0,0.0,0.0,0.0,0.0,0.0,0.0,0.0,0.0,0.0,0.0,0.0,0.0,0.0,0.0,0.0,0.0,0.0,0.0,0.0,0.0,0.0,0.0,0.0,0.0,0.0,0.0,0.0,0.0,0.0,0.0,0.0,0.0,0.0,0.0,0.0,0.0,0.0,0.0,0.0,0.0,0.0,0.0,0.0,0.0,0.0,0.0,0.0,0.0,0.0,0.0,0.0,0.0,0.0,0.0,0.0,0.0,0.0,0.0,0.0,0.0,0.0,0.0,0.0,0.0,0.0,0.0,0.0,0.0,0.0,0.0,0.0,0.0,0.0,0.0,0.0,-1.8968,-2.0227,-2.0569,-1.976,-1.8196,-1.7034,0.0,0.0,0.0,0.0,0.0,0.0,0.0,0.0,0.0,0.0,0.0,0.0,0.0,0.0,0.0,0.0,0.0,0.0,0.0,0.0,0.0,0.0,0.0,0.0,0.0,0.0,0.0,0.0,0.0,0.0,0.0,0.0,0.0,0.0,0.0,0.0,0.0,0.0,0.0,0.0,0.0,0.0,0.0,0.0,0.0,0.0,0.0,0.0,0.0,0.0,0.0,0.0,0.0,0.0,0.0,0.0,0.0,0.0,0.0,0.0,0.0,0.0,0.0,0.0,0.0,0.0,0.0,0.0,0.0,0.0,0.0,0.0,0.0,0.0,0.0,0.0,0.0,0.0,0.0,0.0,0.0,0.0,0.0,0.0,0.0,0.0,0.0,0.0,0.0,0.0,0.0,0.0,0.0,0.0,0.0,0.0,0.0,0.0,0.0,0.0,0.0,0.0,0.0,0.0,0.0,0.0,0.0,0.0,-1.8197,-2.0267,-2.1413,-2.1817,-2.159,-1.9899,-1.8385,0.0,0.0,0.0,0.0,0.0,0.0,0.0,0.0,0.0,0.0,0.0,0.0,0.0,0.0,0.0,0.0,0.0,0.0,0.0,0.0,0.0,0.0,0.0,0.0,0.0,0.0,0.0,0.0,0.0,0.0,0.0,0.0,0.0,0.0,0.0,0.0,0.0,0.0,0.0,0.0,0.0,0.0,0.0,0.0,0.0,0.0,0.0,0.0,0.0,0.0,0.0,0.0,0.0,0.0,0.0,0.0,0.0,0.0,0.0,0.0,0.0,0.0,0.0,0.0,0.0,0.0,0.0,0.0,0.0,0.0,0.0,0.0,0.0,0.0,0.0,0.0,0.0,0.0,0.0,0.0,0.0,0.0,0.0,0.0,0.0,0.0,0.0,0.0,0.0,0.0,0.0,0.0,0.0,0.0,0.0,0.0,0.0,0.0,0.0,0.0,0.0,0.0,0.0,0.0,0.0,0.0,0.0,0.0,-1.9653,-2.1614,-2.2231,-2.2672,-2.2859,-2.143,-1.9586,0.0,0.0,0.0,0.0,0.0,0.0,0.0,0.0,0.0,0.0,0.0,0.0,0.0,0.0,0.0,0.0,0.0,0.0,0.0,0.0,0.0,0.0,0.0,0.0,0.0,0.0,0.0,0.0,0.0,0.0,0.0,0.0,0.0,0.0,0.0,0.0,0.0,0.0,0.0,0.0,0.0,0.0,0.0,0.0,0.0,0.0,0.0,0.0,0.0,0.0,0.0,0.0,0.0,0.0,0.0,0.0,0.0,0.0,0.0,0.0,0.0,0.0,0.0,0.0,0.0,0.0,0.0,0.0,0.0,0.0,0.0,0.0,0.0,0.0,0.0,0.0,0.0,0.0,0.0,0.0,0.0,0.0,0.0,0.0,0.0,0.0,0.0,0.0,0.0,0.0,0.0,0.0,0.0,0.0,0.0,0.0,0.0,0.0,0.0,0.0,0.0,0.0,0.0,0.0,0.0,0.0,0.0,0.0,-2.0748,-2.1871,-2.2939,-2.3394,-2.3233,-2.1336,-1.9653,0.0,0.0,0.0,0.0,0.0,0.0,0.0,0.0,0.0,0.0,0.0,0.0,0.0,0.0,0.0,0.0,0.0,0.0,0.0,0.0,0.0,0.0,0.0,0.0,0.0,0.0,0.0,0.0,0.0,0.0,0.0,0.0,0.0,0.0,0.0,0.0,0.0,0.0,0.0,0.0,0.0,0.0,0.0,0.0,0.0,0.0,0.0,0.0,-0.7776,0.0,0.0,0.0,0.0,0.0,0.0,0.0,0.0,0.0,0.0,0.0,0.0,0.0,0.0,0.0,0.0,0.0,0.0,0.0,0.0,0.0,0.0,0.0,0.0,0.0,0.0,0.0,0.0,0.0,0.0,0.0,0.0,0.0,0.0,0.0,0.0,0.0,0.0,0.0,0.0,0.0,0.0,0.0,0.0,0.0,0.0,0.0,0.0,0.0,0.0,0.0,0.0,0.0,0.0,0.0,0.0,0.0,0.0,0.0,-2.151,-2.2779,-2.3447,-2.3701,-2.3487,-2.1924,-2.0307,0.0,0.0,0.0,0.0,0.0,0.0,0.0,0.0,0.0,0.0,0.0,0.0,0.0,0.0,0.0,0.0,0.0,0.0,0.0,0.0,0.0,0.0,0.0,0.0,0.0,0.0,0.0,0.0,0.0,0.0,0.0,0.0,0.0,0.0,0.0,0.0,0.0,0.0,0.0,0.0,0.0,0.0,0.0,0.0,0.0,0.0,0.0,0.0,0.0,0.0,0.0,0.0,0.0,0.0,0.0,0.0,0.0,0.0,0.0,0.0,0.0,0.0,0.0,0.0,0.0,0.0,0.0,0.0,0.0,0.0,0.0,0.0,0.0,0.0,0.0,0.0,0.0,0.0,0.0,0.0,0.0,0.0,0.0,0.0,0.0,0.0,0.0,0.0,0.0,0.0,0.0,0.0,0.0,0.0,0.0,0.0,0.0,0.0,0.0,0.0,0.0,0.0,0.0,0.0,0.0,0.0,0.0,-2.0227,-2.1991,-2.3754,-2.3888,-2.3861,-2.3754,-2.2699,-2.1136,-1.9078,0.0,0.0,0.0,0.0,0.0,0.0,0.0,0.0,0.0,0.0,0.0,0.0,0.0,0.0,0.0,0.0,0.0,0.0,0.0,0.0,0.0,0.0,0.0,0.0,0.0,0.0,0.0,0.0,0.0,0.0,0.0,0.0,0.0,0.0,0.0,0.0,0.0,0.0,-0.5135,-0.7557,0.0,0.0,0.0,0.0,0.0,0.0,0.0,0.0,-1.0606,0.0,0.0,0.0,0.0,0.0,0.0,0.0,0.0,0.0,0.0,0.0,0.0,0.0,0.0,0.0,0.0,0.0,0.0,0.0,0.0,0.0,0.0,0.0,0.0,0.0,0.0,0.0,0.0,0.0,0.0,0.0,0.0,0.0,0.0,0.0,0.0,0.0,0.0,0.0,0.0,0.0,0.0,0.0,0.0,0.0,0.0,0.0,0.0,0.0,0.0,0.0,0.0,0.0,0.0,0.0,0.0,-2.0548,-2.0935,-2.2084,-2.4075,-2.4369,-2.4262,-2.3781,-2.3086,-2.1643,-1.9399,0.0,0.0,0.0,0.0,0.0,0.0,0.0,0.0,0.0,0.0,0.0,0.0,0.0,0.0,0.0,0.0,0.0,0.0,0.0,0.0,0.0,0.0,0.0,0.0,0.0,0.0,0.0,0.0,0.0,0.0,0.0,0.0,0.0,0.0,0.0,0.0,0.0,0.0,0.0,-0.9836,-1.1403,0.0,0.0,0.0,0.0,0.0,0.0,0.0,0.0,-1.197,0.0,0.0,0.0,0.0,0.0,0.0,0.0,0.0,0.0,0.0,0.0,0.0,0.0,0.0,0.0,0.0,0.0,0.0,0.0,0.0,0.0,0.0,0.0,0.0,0.0,0.0,0.0,0.0,0.0,0.0,0.0,0.0,0.0,0.0,0.0,0.0,0.0,0.0,0.0,0.0,0.0,0.0,0.0,0.0,0.0,0.0,0.0,0.0,0.0,0.0,0.0,0.0,0.0,0.0,0.0,-2.0307,-2.147,-2.2792,-2.4369,-2.4496,-2.4356,-2.3768,-2.2807,-2.136,0.0,0.0,0.0,0.0,0.0,0.0,0.0,0.0,0.0,0.0,0.0,0.0,0.0,0.0,0.0,0.0,0.0,0.0,0.0,0.0,0.0,0.0,0.0,0.0,0.0,0.0,0.0,0.0,0.0,0.0,0.0,0.0,0.0,0.0,0.0,0.0,0.0,0.0,0.0,0.0,-1.1271,-1.2939,-1.3391,0.0,0.0,0.0,0.0,0.0,0.0,-1.376,-1.3489,0.0,0.0,0.0,0.0,0.0,0.0,0.0,0.0,0.0,0.0,0.0,0.0,0.0,0.0,0.0,0.0,0.0,0.0,0.0,0.0,0.0,0.0,0.0,0.0,0.0,0.0,0.0,0.0,0.0,0.0,0.0,0.0,0.0,0.0,0.0,0.0,0.0,0.0,0.0,0.0,0.0,0.0,0.0,0.0,0.0,0.0,0.0,0.0,0.0,0.0,0.0,0.0,0.0,0.0,0.0,-1.9853,-2.1737,-2.3327,-2.4556,-2.4636,-2.4356,-2.3768,-2.2498,-2.1105,0.0,0.0,0.0,0.0,0.0,0.0,0.0,0.0,0.0,0.0,0.0,0.0,0.0,0.0,0.0,0.0,0.0,0.0,0.0,0.0,0.0,0.0,0.0,0.0,0.0,0.0,0.0,0.0,0.0,0.0,0.0,0.0,0.0,0.0,0.0,0.0,0.0,0.0,0.0,0.0,0.0,-1.422,-1.4256,-1.5046,0.0,0.0,0.0,0.0,-1.5351,-1.5311,0.0,0.0,0.0,0.0,0.0,0.0,0.0,0.0,0.0,0.0,0.0,0.0,0.0,0.0,0.0,0.0,0.0,0.0,0.0,0.0,0.0,0.0,0.0,0.0,0.0,0.0,0.0,0.0,0.0,0.0,0.0,0.0,0.0,0.0,0.0,0.0,0.0,0.0,0.0,0.0,0.0,0.0,0.0,0.0,0.0,0.0,0.0,0.0,0.0,0.0,0.0,0.0,0.0,0.0,0.0,0.0,-2.0107,-2.143,-2.2913,-2.4529,-2.4636,-2.4356,-2.3781,-2.3073,-2.1722,0.0,0.0,0.0,0.0,0.0,0.0,0.0,0.0,0.0,0.0,0.0,0.0,0.0,0.0,0.0,0.0,0.0,0.0,0.0,0.0,0.0,0.0,0.0,0.0,0.0,0.0,0.0,0.0,0.0,0.0,0.0,0.0,0.0,0.0,0.0,0.0,0.0,0.0,0.0,0.0,0.0,-1.5192,-1.5543,-1.5923,-1.6201,0.0,0.0,-1.6321,-1.6857,-1.7315,0.0,0.0,0.0,0.0,0.0,0.0,0.0,0.0,0.0,0.0,0.0,0.0,0.0,0.0,0.0,0.0,0.0,0.0,0.0,0.0,0.0,0.0,0.0,0.0,0.0,0.0,0.0,0.0,0.0,0.0,0.0,0.0,0.0,0.0,0.0,0.0,0.0,0.0,0.0,0.0,0.0,0.0,0.0,0.0,0.0,0.0,0.0,0.0,0.0,0.0,0.0,0.0,0.0,0.0,0.0,-1.7782,-2.0127,-2.1897,-2.3367,-2.4583,-2.4636,-2.4356,-2.3781,-2.2767,-2.1176,0.0,0.0,0.0,0.0,0.0,0.0,0.0,0.0,0.0,0.0,0.0,0.0,0.0,0.0,0.0,0.0,0.0,0.0,0.0,0.0,0.0,0.0,0.0,0.0,0.0,0.0,0.0,0.0,0.0,0.0,0.0,0.0,0.0,0.0,0.0,0.0,0.0,0.0,0.0,0.0,0.0,0.0,-1.6797,-1.7088,0.0,0.0,0.0,-1.7221,-1.7876,0.0,0.0,0.0,0.0,0.0,0.0,0.0,0.0,0.0,0.0,0.0,0.0,0.0,0.0,0.0,0.0,0.0,0.0,0.0,0.0,0.0,0.0,0.0,0.0,0.0,0.0,0.0,0.0,0.0,0.0,0.0,0.0,0.0,0.0,0.0,0.0,0.0,0.0,0.0,0.0,0.0,0.0,0.0,0.0,0.0,0.0,0.0,0.0,0.0,0.0,0.0,0.0,0.0,0.0,0.0,0.0,0.0,-2.0227,-2.2352,-2.3821,-2.4596,-2.4636,-2.4356,-2.3781,-2.2539,0.0,0.0,0.0,0.0,0.0,0.0,0.0,0.0,0.0,0.0,0.0,0.0,0.0,0.0,0.0,0.0,0.0,0.0,0.0,0.0,0.0,0.0,0.0,0.0,0.0,0.0,0.0,-0.7322,0.0,0.0,0.0,0.0,0.0,0.0,0.0,0.0,0.0,0.0,0.0,0.0,0.0,0.0,-1.738,-1.7555,-1.8036,-1.837,0.0,0.0,-1.8263,-1.8651,-1.8517,-1.7983,0.0,0.0,0.0,0.0,0.0,0.0,0.0,0.0,0.0,0.0,0.0,0.0,0.0,0.0,0.0,0.0,0.0,0.0,0.0,0.0,0.0,0.0,0.0,0.0,0.0,0.0,0.0,0.0,0.0,0.0,0.0,0.0,0.0,0.0,0.0,0.0,0.0,0.0,0.0,0.0,0.0,0.0,0.0,0.0,0.0,0.0,0.0,0.0,0.0,0.0,0.0,0.0,0.0,0.0,0.0,-2.0241,-2.2539,-2.4035,-2.4609,-2.4636,-2.4369,-2.3781,-2.3126,-2.1748,0.0,0.0,0.0,0.0,0.0,0.0,0.0,0.0,0.0,0.0,0.0,0.0,0.0,0.0,0.0,0.0,0.0,0.0,0.0,0.0,0.0,0.0,0.0,0.0,0.0,0.0,0.0,0.0,0.0,0.0,0.0,0.0,0.0,0.0,0.0,0.0,0.0,0.0,0.0,0.0,0.0,-1.7555,-1.7635,-1.8557,-1.9279,0.0,0.0,-1.9573,-1.9345,-1.996,-1.9765,-1.7514,0.0,0.0,0.0,0.0,0.0,0.0,0.0,0.0,0.0,0.0,0.0,0.0,0.0,0.0,0.0,0.0,0.0,0.0,0.0,0.0,0.0,0.0,0.0,0.0,0.0,0.0,0.0,0.0,0.0,0.0,0.0,0.0,0.0,0.0,0.0,0.0,0.0,0.0,0.0,0.0,0.0,0.0,0.0,0.0,0.0,0.0,0.0,0.0,0.0,0.0,0.0,0.0,0.0,-1.845,-2.0227,-2.2565,-2.4048,-2.4609,-2.4636,-2.4356,-2.3781,-2.3249,-2.1829,0.0,0.0,0.0,0.0,0.0,0.0,0.0,0.0,0.0,0.0,0.0,0.0,0.0,0.0,0.0,0.0,0.0,0.0,0.0,0.0,0.0,0.0,0.0,0.0,0.0,0.0,0.0,0.0,-1.0899,-1.1213,-1.1149,0.0,0.0,0.0,0.0,0.0,0.0,0.0,0.0,0.0,0.0,-1.813,-1.8851,-1.9492,0.0,0.0,-2.012,-2.016,-2.0401,-1.996,-1.9158,-1.7889,-1.6834,0.0,0.0,0.0,0.0,0.0,0.0,0.0,0.0,0.0,0.0,0.0,0.0,0.0,0.0,0.0,0.0,0.0,0.0,0.0,0.0,0.0,0.0,0.0,0.0,0.0,0.0,0.0,0.0,0.0,0.0,0.0,0.0,0.0,0.0,0.0,0.0,0.0,0.0,0.0,0.0,0.0,0.0,0.0,0.0,0.0,0.0,0.0,0.0,0.0,0.0,0.0,0.0,-1.8544,-2.0227,-2.2565,-2.4048,-2.4623,-2.4636,-2.4356,-2.3781,-2.3249,-2.1949,0.0,0.0,0.0,0.0,0.0,0.0,0.0,0.0,0.0,0.0,0.0,0.0,0.0,0.0,0.0,0.0,0.0,0.0,0.0,0.0,0.0,0.0,0.0,0.0,0.0,0.0,0.0,0.0,-1.2238,-1.2118,-1.1698,0.0,0.0,0.0,0.0,0.0,0.0,0.0,0.0,0.0,0.0,-1.8648,-1.9773,-2.0254,-2.0561,-2.0775,-2.0561,-2.0441,-2.0681,-1.992,-1.8928,-1.8036,0.0,0.0,0.0,0.0,0.0,0.0,0.0,0.0,0.0,0.0,0.0,0.0,0.0,0.0,0.0,0.0,0.0,0.0,0.0,0.0,0.0,0.0,0.0,0.0,0.0,0.0,0.0,-1.5832,0.0,0.0,-1.5022,0.0,0.0,0.0,0.0,0.0,0.0,0.0,0.0,0.0,0.0,0.0,0.0,0.0,0.0,0.0,0.0,0.0,0.0,0.0,0.0,0.0,0.0,-1.8715,-2.018,-2.2579,-2.4048,-2.4609,-2.4636,-2.4356,-2.3781,-2.3249,-2.2164,-2.0655,0.0,0.0,0.0,0.0,0.0,0.0,0.0,0.0,0.0,0.0,0.0,0.0,0.0,0.0,0.0,0.0,0.0,0.0,0.0,0.0,0.0,0.0,0.0,0.0,0.0,0.0,-1.2728,-1.2478,-1.1984,0.0,0.0,0.0,0.0,0.0,0.0,0.0,0.0,0.0,0.0,-1.7983,-1.9225,-2.0047,-2.0722,-2.1069,-2.1082,-2.0855,-2.0481,-1.9973,-2.004,-1.9613,0.0,0.0,0.0,0.0,0.0,0.0,0.0,0.0,0.0,0.0,0.0,0.0,0.0,0.0,0.0,0.0,0.0,0.0,0.0,0.0,0.0,0.0,0.0,0.0,0.0,0.0,0.0,-1.8237,-1.7595,0.0,0.0,0.0,0.0,0.0,0.0,0.0,0.0,0.0,0.0,0.0,-2.0374,-2.0481,0.0,0.0,0.0,0.0,0.0,0.0,0.0,0.0,0.0,0.0,0.0,0.0,-1.9065,-2.0548,-2.2659,-2.4048,-2.4609,-2.4449,-2.4168,-2.3781,-2.3249,-2.1991,-2.0147,0.0,0.0,0.0,0.0,0.0,0.0,0.0,0.0,0.0,0.0,0.0,0.0,0.0,0.0,0.0,0.0,0.0,0.0,0.0,0.0,0.0,0.0,0.0,0.0,0.0,-1.2569,0.0,0.0,0.0,0.0,0.0,0.0,0.0,0.0,0.0,0.0,0.0,-1.6633,-1.7996,-1.8945,-1.9746,-2.0441,-2.0855,-2.1109,0.0,0.0,0.0,0.0,0.0,0.0,0.0,0.0,0.0,0.0,0.0,0.0,0.0,0.0,-1.7835,-1.5202,-1.4782,-1.4773,-1.4773,0.0,0.0,0.0,0.0,0.0,0.0,0.0,0.0,0.0,0.0,0.0,0.0,0.0,0.0,-1.984,0.0,-1.8771,0.0,0.0,0.0,0.0,0.0,0.0,0.0,0.0,-2.179,-2.2377,-2.2178,-2.2378,-2.2325,0.0,-2.1162,-1.9746,0.0,0.0,0.0,0.0,0.0,0.0,0.0,0.0,-1.9613,-2.1002,-2.2926,-2.4155,-2.4522,-2.4356,-2.4062,-2.3768,-2.2979,-2.1737,-2.0,-1.8918,-1.7889,0.0,0.0,0.0,0.0,0.0,0.0,0.0,0.0,0.0,0.0,0.0,0.0,0.0,0.0,0.0,0.0,0.0,0.0,0.0,0.0,0.0,0.0,0.0,-1.3172,0.0,0.0,0.0,0.0,0.0,0.0,0.0,0.0,0.0,-1.5712,-1.674,-1.7916,-1.9078,-1.9733,-2.0281,-2.0762,0.0,0.0,0.0,0.0,0.0,0.0,0.0,-1.9559,-1.9639,-1.9105,-1.8677,-1.8784,-1.9519,-1.9947,-1.9511,0.0,0.0,-1.7689,-1.7194,-1.7061,-1.7061,-1.7448,-1.7702,-1.7515,-1.8023,-1.845,0.0,0.0,0.0,0.0,0.0,0.0,0.0,0.0,-2.1015,-2.1029,0.0,-2.016,0.0,0.0,0.0,0.0,0.0,-2.4505,0.0,0.0,-2.5942,-2.587,-2.4294,-2.4222,-2.4088,-2.3861,-2.4035,-2.3247,-2.1561,-1.8464,0.0,0.0,0.0,0.0,0.0,0.0,-2.0414,-2.1655,-2.33,-2.4342,-2.4536,-2.4342,-2.4048,-2.3714,-2.2605,-2.147,-2.0361,-1.9973,-1.9025,-1.738,-1.638,0.0,0.0,0.0,0.0,0.0,0.0,0.0,0.0,0.0,0.0,0.0,0.0,0.0,0.0,0.0,0.0,0.0,0.0,0.0,0.0,-1.3761,0.0,0.0,0.0,0.0,0.0,0.0,0.0,0.0,0.0,0.0,-1.658,-1.7903,-1.9185,-1.9746,0.0,0.0,0.0,0.0,-2.1109,-2.1109,-2.0869,-2.0601,-2.0321,-2.0481,-2.0361,-1.9631,0.0,0.0,-1.9631,-2.012,-2.0475,-1.9645,-1.9933,-2.0267,-2.0214,-1.9653,-1.9319,-1.9363,-1.9105,-1.8985,-1.8985,-1.9212,-1.9439,-2.4035,0.0,0.0,0.0,0.0,-2.2632,-2.3447,-2.4556,-2.4476,-2.3901,-2.3117,-2.4089,0.0,0.0,0.0,0.0,0.0,0.0,-2.6596,-2.5807,-2.6698,-2.6358,-2.513,-2.513,-2.5197,-2.5317,-2.477,-2.4142,-2.3394,-2.1871,-1.984,-1.7448,0.0,0.0,0.0,0.0,-2.1216,-2.2191,-2.3514,-2.4342,-2.4623,-2.4155,-2.3647,-2.3196,-2.2378,-2.183,-2.1496,-2.0802,-2.0,-1.9065,-1.7782,0.0,0.0,0.0,0.0,0.0,0.0,0.0,0.0,0.0,0.0,0.0,0.0,0.0,0.0,0.0,0.0,0.0,0.0,0.0,-1.3734,-1.4175,-1.4335,0.0,0.0,0.0,0.0,0.0,0.0,0.0,0.0,0.0,-1.9078,-1.9474,-2.0,0.0,0.0,-2.0935,-2.0815,-2.0975,-2.1109,-2.1109,-2.1042,0.0,-2.0869,-2.0575,-2.0414,-2.0575,-2.0828,-2.0895,-2.0655,-2.0815,-2.0909,-2.0628,-2.0735,-2.0855,-2.0828,-2.0388,-2.0013,-1.9987,-2.008,-2.0174,-2.0187,-2.0401,-2.0601,-2.6466,-2.5157,-2.4235,-2.3981,-2.4222,-2.4516,-2.5264,-2.6293,-2.6172,-2.5758,-2.5206,-2.5999,-2.6002,-2.5392,-2.6726,0.0,0.0,0.0,-2.7791,-2.7139,-2.7458,-2.7006,-2.5903,-2.5865,-2.5892,-2.5932,-2.5411,-2.501,-2.4716,-2.3941,-2.2405,-2.0174,0.0,0.0,-1.9479,-2.0895,-2.2058,-2.2953,-2.3888,-2.4462,-2.4623,-2.4075,-2.342,-2.2712,-2.2231,-2.1937,-2.1804,-2.1189,-2.0628,-2.016,-1.8958,-1.7702,0.0,0.0,0.0,0.0,0.0,0.0,0.0,0.0,0.0,0.0,0.0,-1.2385,0.0,0.0,0.0,0.0,-1.312,-1.4082,-1.5044,-1.5391,0.0,0.0,0.0,0.0,0.0,0.0,0.0,-1.8611,-1.9519,-2.0241,-2.0695,-2.0855,-2.0989,-2.1176,-2.1349,-2.139,-2.1216,0.0,-2.1456,-2.1456,-2.1456,-2.1456,-2.1456,-2.1162,-2.1015,-2.1243,-2.1283,-2.1229,-2.1122,-2.1109,-2.1109,-2.1109,-2.1109,-2.1109,-2.1109,-2.0815,-2.0575,-2.0588,-2.0722,-2.0842,-2.0855,-2.0989,-2.1109,-2.847,-2.8114,-2.5865,-2.5237,-2.5705,-2.5985,-2.6413,-2.6894,-2.6653,-2.6814,-2.7201,-2.6571,-2.7647,-2.9861,-3.0475,0.0,-2.9242,-2.9453,-2.9168,-2.8339,-2.8339,-2.7668,-2.6492,-2.6426,-2.6279,-2.5999,-2.6077,-2.5838,-2.5531,-2.4997,-2.4302,-2.342,-2.2058,-2.147,-2.1708,-2.2218,-2.2953,-2.3866,-2.4342,-2.4536,-2.4556,-2.4048,-2.334,-2.2445,-2.2138,-2.1923,-2.1628,-2.1269,-2.0989,-2.0708,-1.9867,-1.8814,-1.7393,0.0,0.0,0.0,0.0,0.0,0.0,0.0,0.0,0.0,0.0,0.0,0.0,0.0,0.0,0.0,-1.5244,0.0,-1.6767,-1.7061,0.0,0.0,0.0,-1.7353,-1.7474,-1.837,-1.9265,-1.9867,0.0,0.0,-2.159,-2.1857,-2.2031,-2.2058,-2.2017,-2.1991,-2.1991,-2.1964,-2.1991,-2.1951,-2.1977,-2.1977,-2.1924,-2.1911,-2.1804,-2.163,-2.1628,-2.1443,-2.1216,-2.1109,-2.1109,-2.1109,-2.1109,-2.1109,-2.1109,-2.1082,-2.1109,-2.1069,-2.1082,-2.1096,-2.1082,-2.1096,-2.1109,-2.8898,-2.8764,-2.7989,-2.7482,-2.7188,-2.7255,-2.7495,-2.7899,-2.7749,-2.7549,-2.7418,-2.8613,-2.9834,-3.1072,-3.287,-3.285,-3.1408,-3.1759,-3.1101,-2.9878,-2.9814,-2.8661,-2.672,-2.672,-2.6573,-2.6306,-2.6279,-2.6132,-2.5852,-2.5705,-2.5197,-2.4342,-2.3968,-2.326,-2.2285,-2.3033,-2.3661,-2.4088,-2.4462,-2.4422,-2.3995,-2.3834,-2.334,-2.2445,-2.2138,-2.1844,-2.1628,-2.1269,-2.1069,-2.0989,-2.0174,-1.9332,-1.8531,-1.6607,0.0,0.0,0.0,0.0,0.0,0.0,0.0,0.0,0.0,-1.4847,-1.2837,0.0,-1.5084,0.0,-1.6152,-1.7074,-1.7609,-1.7782,0.0,0.0,-1.8492,-1.8611,-1.9765,-1.988,-2.0227,-2.1105,-2.151,-2.1884,-2.2178,-2.2271,-2.2405,-2.2605,-2.2271,-2.1991,-2.1991,-2.1991,-2.1991,-2.2004,-2.2004,-2.1991,-2.2004,-2.1991,-2.1977,-2.1897,-2.171,-2.1588,-2.1521,-2.1256,-2.1109,-2.1109,-2.1109,-2.1109,-2.1109,-2.1109,-2.1109,-2.1109,-2.1109,-2.1109,-2.1109,-2.1109,-2.1109,-2.9232,-2.9219,-2.8925,-2.8524,-2.8083,-2.7963,-2.8073,-2.8221,-2.8234,-2.8033,-2.7808,-2.9598,-3.1192,-3.2516,-3.266,-3.2769,-3.2675,-3.1088,-2.9777,-2.9001,-2.892,-2.8214,-2.6827,-2.6827,-2.6667,-2.64,-2.64,-2.6306,-2.6146,-2.6026,-2.5705,-2.5224,-2.4957,-2.4422,-2.3647,-2.3848,-2.4102,-2.4396,-2.4556,-2.4356,-2.3794,-2.3781,-2.3273,-2.2271,-2.2071,-2.1789,-2.1253,-2.1002,-2.0788,-2.0535,-1.9947,-1.9345,-1.8744,-1.7275,-1.6139,0.0,0.0,0.0,0.0,0.0,0.0,0.0,0.0,0.0,0.0,0.0,-1.6281,-1.6353,-1.7501,-1.8385,-1.8784,-1.9172,-1.9599,-2.0094,-2.0094,-2.0321,-2.1002,-2.1029,-2.1256,-2.1871,-2.2084,-2.2285,-2.2579,-2.2619,-2.2672,-2.2914,-2.2579,-2.2378,-2.2378,-2.2445,-2.2378,-2.2378,-2.2378,-2.2378,-2.2378,-2.2378,-2.2325,-2.2178,-2.1937,-2.171,-2.1628,-2.1309,-2.1109,-2.1109,-2.1109,-2.1109,-2.1109,-2.1109,-2.1109,-2.1109,-2.1109,-2.1109,-2.1109,-2.1109,-2.1109,-2.9539,-2.9513,-2.9219,-2.8951,-2.8684,-2.835,-2.8261,-2.8234,-2.8234,-2.8234,-2.8292,-3.0054,-3.1772,-3.313,-3.1319,-3.1342,-3.2618,-2.9129,-2.7457,-2.7375,-2.7457,-2.7201,-2.6881,-2.6867,-2.6707,-2.64,-2.64,-2.64,-2.6386,-2.6132,-2.6077,-2.601,-2.5411,-2.5117,-2.5064,-2.4529,-2.4382,-2.4623,-2.4636,-2.4356,-2.3794,-2.3781,-2.3207,-2.2058,-2.1951,-2.1537,-2.0722,-2.0668,-2.0441,-1.9947,-1.9666,-1.9292,-1.8731,-1.7916,-1.7273,0.0,-1.6353,0.0,0.0,0.0,0.0,0.0,0.0,0.0,0.0,-1.7527,-1.7728,-1.7862,-1.8985,-1.9846,-2.0013,-2.0748,-2.1229,-2.1243,-2.167,-2.1897,-2.1762,-2.1884,-2.2151,-2.2445,-2.2472,-2.2579,-2.2806,-2.2859,-2.2859,-2.2859,-2.2901,-2.2806,-2.2846,-2.2832,-2.2819,-2.2859,-2.2859,-2.2792,-2.2806,-2.2832,-2.2752,-2.2498,-2.2231,-2.1937,-2.167,-2.1376,-2.1162,-2.1122,-2.1109,-2.1109,-2.1109,-2.1109,-2.1109,-2.1109,-2.1109,-2.1109,-2.1109,-2.1109,-2.1109,-2.9833,-2.9806,-2.9526,-2.9366,-2.9272,-2.8738,-2.8377,-2.8234,-2.8234,-2.8234,-2.8389,-3.0354,-3.0588,-2.9439,-3.0598,-3.0486,-2.9202,-2.8381,-2.806,-2.806,-2.806,-2.7779,-2.7201,-2.7188,-2.6907,-2.6413,-2.64,-2.64,-2.6386,-2.6333,-2.6186,-2.6023,-2.5598,-2.5317,-2.5077,0.0,0.0,0.0,-2.4636,-2.4356,-2.3808,-2.3781,-2.3207,-2.2031,-2.1829,0.0,-2.0722,-2.0668,-2.0628,-2.0583,-2.0454,0.0,0.0,0.0,0.0,0.0,0.0,0.0,0.0,0.0,0.0,0.0,-1.9011,-1.841,-1.7969,-1.9185,-1.984,-1.9466,-2.0668,-2.1416,-2.1306,-2.1577,-2.1817,-2.183,-2.1924,-2.2058,-2.2231,-2.2311,-2.2445,-2.2739,-2.2779,-2.2861,-2.2846,-2.2859,-2.2859,-2.2859,-2.2859,-2.2859,-2.2859,-2.2859,-2.2859,-2.2859,-2.2859,-2.2859,-2.2859,-2.2859,-2.2846,-2.2752,-2.2539,-2.2231,-2.1951,-2.1657,-2.1363,-2.1176,-2.1109,-2.1109,-2.1109,-2.1109,-2.1109,-2.1109,-2.1109,-2.1109,-2.1109,-2.1109,-2.1109,-2.9913,0.0,-2.9753,-2.9619,0.0,-2.9018,-2.8657,-2.8364,-2.8301,-2.8234,-2.8305,-2.937,-2.9774,-2.9774,-2.9774,-2.9857,-2.969,-2.8712,-2.8234,-2.8234,-2.8234,-2.7829,-2.735,-2.735,-2.6961,-2.64,-2.64,-2.64,-2.64,-2.64,-2.6319,-2.6159,-2.5732,-2.5438,-2.5291,-2.485,-2.4636,-2.4636,-2.4636,-2.4422,-2.4008,-2.3848,-2.3273,-2.2245,-2.1924,0.0,0.0,0.0,0.0,0.0,0.0,0.0,0.0,0.0,0.0,-1.9332,-1.9332,-1.9319,-1.9332,-1.9613,-2.0094,-2.0815,-2.0748,-2.0347,-1.9613,-2.0508,-2.1105,-2.0909,-2.1563,-2.1924,-2.1856,-2.2031,-2.2205,-2.2205,-2.2325,-2.2485,-2.2605,-2.2645,-2.2699,-2.2819,-2.2859,-2.2859,-2.2859,-2.2859,-2.2859,-2.2859,-2.2859,-2.2859,-2.2859,-2.2859,-2.2859,-2.2859,-2.2859,-2.2859,-2.2859,-2.2859,-2.2859,-2.2832,-2.2619,-2.2378,-2.2231,-2.1844,-2.1561,-2.1349,-2.1216,-2.1109,-2.1109,-2.1109,-2.1109,-2.1109,-2.1109,-2.1109,-2.1109,-2.1109,-2.1109,-2.9913,-2.9913,-2.9913,-2.978,-2.9539,-2.9245,-2.8925,-2.8591,0.0,0.0,0.0,-2.8234,-2.9202,-3.0661,-2.8964,-2.9118,-3.0661,-2.895,-2.8234,-2.8234,-2.8234,-2.7939,-2.7348,-2.7295,-2.6987,-2.648,-2.6413,-2.64,-2.64,-2.64,-2.64,-2.6346,-2.5852,-2.5545,-2.5411,-2.4903,-2.4636,-2.4636,-2.4636,-2.4489,-2.4209,-2.3915,-2.3367,-2.2512,-2.2164,-2.1617,-2.0931,-2.0828,-2.0615,-2.0147,-2.016,-2.016,-2.012,-2.016,-2.0374,-2.0802,-2.1109,-2.1269,-2.1269,-2.1496,-2.1722,-2.171,-2.1977,-2.1897,-2.1309,-2.1537,-2.1804,-2.2044,-2.2111,-2.2138,-2.2138,-2.2352,-2.2498,-2.2498,-2.2712,-2.2859,-2.2859,-2.2859,-2.2846,-2.2859,-2.2859,-2.2859,-2.2859,-2.2859,-2.2859,-2.2859,-2.2859,-2.2859,-2.2859,-2.2859,-2.2859,-2.2859,-2.2859,-2.2859,-2.2859,-2.2859,-2.2859,-2.2859,-2.2659,-2.2485,-2.2365,-2.1991,-2.1722,-2.1601,-2.1309,-2.1136,-2.1109,-2.1109,-2.1109,-2.1109,-2.1109,-2.1109,-2.1109,-2.1109,-2.1109,-2.9913,-2.9913,-2.9913,-2.9887,-2.9833,-2.9539,-2.9112,-2.8591,-2.8283,-2.8234,-2.8234,-2.8234,-2.8389,-2.8642,-2.8305,-2.8389,-2.8628,-2.8305,-2.8234,-2.8234,-2.8234,-2.7963,-2.7629,-2.7388,-2.7094,-2.676,-2.6507,-2.64,-2.64,-2.64,-2.64,-2.6346,-2.6052,-2.5638,-2.5157,-2.481,-2.4636,-2.4636,-2.4636,-2.4489,-2.4209,-2.3915,-2.346,-2.2819,-2.2271,-2.1817,-2.1521,-2.1494,-2.1467,-2.1387,-2.155,-2.1563,-2.14,-2.151,-2.1603,-2.1521,-2.1697,-2.1871,-2.1857,-2.1911,-2.2031,-2.2285,-2.2579,-2.2485,-2.1937,-2.2124,-2.2311,-2.2365,-2.2605,-2.2739,-2.2739,-2.2792,-2.2819,-2.2819,-2.2914,-2.2873,-2.2954,-2.2886,-2.2873,-2.2859,-2.2859,-2.2859,-2.2859,-2.2859,-2.2859,-2.2859,-2.2859,-2.2859,-2.2859,-2.2859,-2.2859,-2.2859,-2.2859,-2.2859,-2.2859,-2.2859,-2.2859,-2.2859,-2.2819,-2.2699,-2.2485,-2.2164,-2.1857,-2.1668,-2.1349,-2.1149,-2.1109,-2.1109,-2.1109,-2.1109,-2.1109,-2.1109,-2.1109,-2.1109,-2.1109,-2.9913,-2.9913,-2.9913,-2.9913,-2.9887,-2.9432,-2.9005,-2.8591,-2.8368,-2.8234,-2.8234,-2.8234,-2.8234,-2.8234,-2.8234,-2.8234,-2.8234,-2.8234,-2.8234,-2.8234,-2.8234,-2.8073,-2.7682,-2.7402,-2.7121,-2.6814,-2.652,-2.64,-2.64,-2.64,-2.64,-2.636,-2.5932,-2.5504,-2.509,-2.4783,-2.4636,-2.4636,-2.4636,-2.4569,-2.4436,-2.4155,-2.3728,-2.3126,-2.2686,-2.2245,-2.1804,-2.1856,-2.179,-2.179,-2.1911,-2.1924,-2.1804,-2.1911,-2.1924,-2.1804,-2.2058,-2.2218,-2.2218,-2.2525,-2.2832,-2.3126,-2.3273,-2.3247,-2.2979,-2.2926,-2.2979,-2.314,-2.3273,-2.3354,-2.3354,-2.3354,-2.3423,-2.3354,-2.3423,-2.3287,-2.3153,-2.3113,-2.3046,-2.2899,-2.2859,-2.2859,-2.2859,-2.2859,-2.2859,-2.2859,-2.2859,-2.2859,-2.2859,-2.2859,-2.2859,-2.2859,-2.2859,-2.2859,-2.2859,-2.2859,-2.2859,-2.2859,-2.2859,-2.2874,-2.2659,-2.2418,-2.2124,-2.1844,-2.155,-2.1296,-2.1162,-2.1109,-2.1109,-2.1109,-2.1109,-2.1109,-2.1109,-2.1109,-2.1109,-2.9913,-2.9913,-2.9913,-2.9913,-2.986,-2.9285,-2.8911,-2.8671,-2.8297,-2.8234,-2.8234,-2.8234,-2.8234,-2.8234,-2.8234,-2.8234,-2.8234,-2.8234,-2.8234,-2.8234,-2.8234,-2.8016,-2.7789,-2.7495,-2.7215,-2.6907,-2.6627,-2.6453,-2.64,-2.64,-2.64,-2.6333,-2.5865,-2.5464,-2.517,-2.4877,-2.4703,-2.4649,-2.4636,-2.4636,-2.4549,-2.4356,-2.3981,-2.3554,-2.3233,-2.2846,-2.2418,-2.2392,-2.2392,-2.2378,-2.2325,-2.2285,-2.2285,-2.2285,-2.2285,-2.2311,-2.2552,-2.2726,-2.2752,-2.3153,-2.3527,-2.3754,-2.3781,-2.3794,-2.3848,-2.3661,-2.3581,-2.3741,-2.3741,-2.3754,-2.3741,-2.3825,-2.3781,-2.3781,-2.3781,-2.3661,-2.3474,-2.342,-2.33,-2.3033,-2.2966,-2.2953,-2.2954,-2.2859,-2.2859,-2.2859,-2.2859,-2.2859,-2.2859,-2.2859,-2.2859,-2.2859,-2.2859,-2.2859,-2.2859,-2.2859,-2.2859,-2.2859,-2.2859,-2.2846,-2.2792,-2.2605,-2.2325,-2.2017,-2.1737,-2.1443,-2.1176,-2.1109,-2.1109,-2.1109,-2.1109,-2.1109,-2.1109,-2.1109,-2.1109,-2.9913,-2.9913,-2.9913,-2.9913,-2.9847,-2.9285,-2.9018,-2.8925,-2.839,-2.8234,-2.8234,-2.8234,-2.8234,-2.8234,-2.8234,-2.8234,-2.8234,-2.8234,-2.8234,-2.8234,-2.8234,-2.8207,-2.8154,-2.7789,-2.7509,-2.7201,-2.6907,-2.6627,-2.64,-2.64,-2.64,-2.636,-2.6066,-2.5758,-2.5464,-2.5184,-2.4903,-2.4636,-2.4636,-2.4636,-2.4549,-2.4356,-2.4168,-2.4128,-2.3834,-2.3674,-2.3541,-2.3678,-2.3594,-2.3581,-2.3313,-2.3193,-2.3193,-2.3193,-2.3193,-2.3207,-2.346,-2.3647,-2.3647,-2.3701,-2.3741,-2.3768,-2.3808,-2.3901,-2.4128,-2.4128,-2.4008,-2.3875,-2.3794,-2.3821,-2.3781,-2.3794,-2.3834,-2.3848,-2.3834,-2.3754,-2.3741,-2.3728,-2.3621,-2.3327,-2.326,-2.318,-2.2953,-2.2886,-2.2859,-2.2859,-2.2859,-2.2859,-2.2859,-2.2859,-2.2859,-2.2859,-2.2859,-2.2859,-2.2859,-2.2859,-2.2859,-2.2859,-2.2859,-2.2859,-2.2806,-2.2632,-2.2325,-2.2044,-2.1777,-2.1496,-2.1216,-2.1109,-2.1109,-2.1109,-2.1109,-2.1109,-2.1109,-2.1109,-2.1109,-2.9913,-2.9913,-2.9913,-2.9913,-2.9833,-2.9285,-2.8958,-2.8978,-2.8404,-2.8234,-2.8234,-2.8234,-2.8234,-2.8234,-2.8234,-2.8234,-2.8234,-2.8234,-2.8234,-2.8234,-2.8234,-2.8234,-2.8194,-2.7843,-2.7549,-2.7255,-2.6961,-2.668,-2.644,-2.64,-2.64,-2.636,-2.6106,-2.597,-2.5745,-2.5317,-2.5024,-2.4903,-2.4716,-2.4636,-2.4623,-2.4516,-2.4382,-2.4209,-2.4088,-2.3941,-2.3794,-2.3781,-2.3781,-2.3768,-2.3647,-2.3594,-2.3594,-2.3594,-2.3594,-2.3594,-2.3701,-2.3848,-2.4022,-2.4022,-2.4102,-2.4275,-2.4289,-2.4342,-2.4436,-2.4462,-2.4409,-2.4315,-2.4275,-2.4289,-2.4275,-2.4275,-2.4275,-2.4289,-2.4289,-2.4209,-2.4035,-2.4035,-2.3915,-2.3634,-2.3434,-2.3287,-2.314,-2.2979,-2.2873,-2.2859,-2.2859,-2.2859,-2.2859,-2.2859,-2.2859,-2.2859,-2.2859,-2.2859,-2.2859,-2.2859,-2.2859,-2.2859,-2.2859,-2.2859,-2.2832,-2.2779,-2.2539,-2.2071,-2.1884,-2.1603,-2.1189,-2.1122,-2.1109,-2.1109,-2.1109,-2.1109,-2.1109,-2.1109,-2.1109,-2.9913,-2.9913,-2.9913,-2.9913,-2.9873,-2.9379,-2.9112,-2.8978,-2.8497,-2.8315,-2.8234,-2.8234,-2.8234,-2.8234,-2.8234,-2.8234,-2.8234,-2.8234,-2.8234,-2.8234,-2.8234,-2.8234,-2.8207,-2.7923,-2.7669,-2.7375,-2.7094,-2.6747,-2.6426,-2.64,-2.64,-2.636,-2.6172,-2.6117,-2.5996,-2.5518,-2.5237,-2.5077,-2.485,-2.473,-2.4649,-2.4636,-2.4529,-2.4342,-2.4315,-2.4222,-2.4022,-2.4008,-2.4008,-2.4008,-2.3941,-2.3888,-2.3888,-2.3888,-2.3928,-2.3995,-2.4008,-2.4088,-2.4315,-2.4329,-2.4409,-2.4609,-2.4636,-2.4636,-2.4636,-2.4636,-2.4636,-2.4623,-2.4636,-2.4609,-2.4636,-2.4636,-2.4636,-2.4636,-2.4636,-2.4529,-2.4356,-2.4315,-2.4209,-2.3928,-2.3728,-2.3487,-2.334,-2.3126,-2.2993,-2.2886,-2.2859,-2.2859,-2.2859,-2.2859,-2.2859,-2.2859,-2.2859,-2.2859,-2.2859,-2.2859,-2.2859,-2.2859,-2.2859,-2.2859,-2.2859,-2.2859,-2.2659,-2.2138,-2.2044,-2.1777,-2.1256,-2.1109,-2.1109,-2.1109,-2.1109,-2.1109,-2.1109,-2.1109,-2.1109,-2.9913,-2.9913,-2.9913,-2.9913,-2.9887,-2.9579,-2.9285,-2.9018,-2.8698,-2.8417,-2.8248,-2.8234,-2.8234,-2.8234,-2.8234,-2.8234,-2.8234,-2.8234,-2.8234,-2.8234,-2.8234,-2.8234,-2.8234,-2.8207,-2.7963,-2.7629,-2.7348,-2.6921,-2.6426,-2.64,-2.64,-2.6386,-2.636,-2.6226,-2.6012,-2.5983,-2.5638,-2.5184,-2.5064,-2.4917,-2.469,-2.4636,-2.4623,-2.4596,-2.4536,-2.4583,-2.4569,-2.4583,-2.4583,-2.4596,-2.4329,-2.4182,-2.4182,-2.4182,-2.4302,-2.4456,-2.4569,-2.4583,-2.4596,-2.4596,-2.4609,-2.4636,-2.4636,-2.4636,-2.4636,-2.4636,-2.4636,-2.4636,-2.4636,-2.4636,-2.4636,-2.4636,-2.4636,-2.4636,-2.4636,-2.4536,-2.4609,-2.4569,-2.4476,-2.4249,-2.4128,-2.3875,-2.342,-2.3244,-2.3153,-2.2966,-2.2873,-2.2859,-2.2859,-2.2859,-2.2859,-2.2859,-2.2859,-2.2859,-2.2859,-2.2859,-2.2859,-2.2859,-2.2859,-2.2859,-2.2859,-2.2792,-2.2485,-2.2205,-2.2058,-2.1777,-2.1309,-2.1109,-2.1109,-2.1109,-2.1109,-2.1109,-2.1109,-2.1109,-2.1109,-2.9913,-2.9913,-2.9913,-2.9913,-2.9887,-2.9606,-2.9312,-2.8931,-2.8724,-2.843,-2.8261,-2.8234,-2.8234,-2.8234,-2.8234,-2.8234,-2.8234,-2.8234,-2.8234,-2.8234,-2.8234,-2.8234,-2.8234,-2.8221,-2.8073,-2.7696,-2.7402,-2.6961,-2.6453,-2.64,-2.64,-2.64,-2.64,-2.6333,-2.6213,-2.6039,-2.5838,-2.5625,-2.5291,-2.5024,-2.4917,-2.473,-2.4636,-2.4636,-2.4636,-2.4636,-2.4636,-2.4636,-2.4636,-2.4636,-2.4529,-2.4476,-2.4476,-2.4476,-2.4516,-2.4623,-2.4636,-2.4636,-2.4636,-2.4636,-2.4636,-2.4636,-2.4636,-2.4649,-2.4636,-2.4636,-2.4636,-2.4636,-2.4636,-2.4636,-2.4636,-2.4636,-2.4636,-2.4636,-2.4636,-2.4636,-2.4636,-2.4636,-2.4596,-2.4476,-2.4329,-2.4035,-2.3701,-2.3447,-2.3287,-2.3166,-2.2993,-2.2886,-2.2859,-2.2859,-2.2859,-2.2859,-2.2859,-2.2859,-2.2859,-2.2859,-2.2859,-2.2859,-2.2859,-2.2859,-2.2859,-2.2859,-2.2632,-2.2205,-2.2044,-2.1764,-2.1309,-2.1109,-2.1109,-2.1109,-2.1109,-2.1109,-2.1109,-2.1109,-2.1109,-2.9913,-2.9913,-2.9913,-2.9913,-2.9887,-2.97,-2.9406,-2.9045,-2.8831,-2.8524,-2.8288,-2.8234,-2.8234,-2.8234,-2.8234,-2.8234,-2.8234,-2.8234,-2.8234,-2.8234,-2.8234,-2.8234,-2.8234,-2.8234,-2.8127,-2.7802,-2.7442,-2.7001,-2.656,-2.644,-2.64,-2.64,-2.64,-2.64,-2.636,-2.6199,-2.6066,-2.597,-2.5558,-2.5331,-2.5211,-2.5024,-2.4917,-2.4917,-2.4917,-2.481,-2.4649,-2.4636,-2.4636,-2.4636,-2.4636,-2.4636,-2.4636,-2.4636,-2.4636,-2.4636,-2.4636,-2.4636,-2.4636,-2.4636,-2.4676,-2.477,-2.4783,-2.481,-2.489,-2.4836,-2.4783,-2.477,-2.4676,-2.4636,-2.4636,-2.4636,-2.4636,-2.4636,-2.4636,-2.4636,-2.4636,-2.4636,-2.4636,-2.4596,-2.4476,-2.4222,-2.3941,-2.3647,-2.346,-2.3354,-2.306,-2.2873,-2.2859,-2.2859,-2.2859,-2.2859,-2.2859,-2.2859,-2.2859,-2.2859,-2.2859,-2.2859,-2.2859,-2.2859,-2.2859,-2.2859,-2.2699,-2.2285,-2.1937,-2.1657,-2.1403,-2.1176,-2.1046,-2.1032,-2.1109,-2.1109,-2.1109,-2.1109,-2.1109,-2.9913,-2.9913,-2.9913,-2.9913,-2.9913,-2.9887,-2.9566,-2.9125,-2.9032,-2.8698,-2.8328,-2.8248,-2.8234,-2.8234,-2.8234,-2.8234,-2.8234,-2.8234,-2.8234,-2.8234,-2.8234,-2.8234,-2.8234,-2.8234,-2.8194,-2.8114,-2.7549,-2.7121,-2.6787,-2.656,-2.6426,-2.64,-2.64,-2.64,-2.64,-2.636,-2.6239,-2.6026,-2.5905,-2.5772,-2.5545,-2.5464,-2.5424,-2.5451,-2.5451,-2.5211,-2.4703,-2.4676,-2.4663,-2.4562,-2.4663,-2.4576,-2.4676,-2.4703,-2.4602,-2.469,-2.4663,-2.4663,-2.4602,-2.4703,-2.4863,-2.5024,-2.5077,-2.5184,-2.5317,-2.5211,-2.5077,-2.505,-2.4877,-2.4629,-2.4642,-2.469,-2.4663,-2.4636,-2.4636,-2.4636,-2.4636,-2.4636,-2.4636,-2.4623,-2.4596,-2.4502,-2.4235,-2.3955,-2.3688,-2.342,-2.3126,-2.2899,-2.2873,-2.2859,-2.2859,-2.2859,-2.2859,-2.2859,-2.2859,-2.2859,-2.2859,-2.2859,-2.2859,-2.2859,-2.2859,-2.2859,-2.2726,-2.2352,-2.1951,-2.167,-2.1416,-2.1152,-2.0729,-2.0716,-2.0843,-2.0779,-2.0526,-2.0449,-2.0969,-2.9913,-2.9913,-2.9913,-2.9913,-2.9913,-2.9913,-2.9686,-2.9339,-2.9138,-2.8818,-2.847,-2.8315,-2.8234,-2.8234,-2.8234,-2.8234,-2.8234,-2.8234,-2.8234,-2.8234,-2.8234,-2.8234,-2.8234,-2.8234,-2.8114,-2.7843,-2.7655,-2.7308,-2.6894,-2.6734,-2.66,-2.6426,-2.64,-2.64,-2.64,-2.6386,-2.6319,-2.6253,-2.613,-2.5905,-2.5798,-2.5625,-2.5518,-2.5518,-2.5518,-2.5411,-2.5237,-2.505,-2.485,-2.4602,-2.4836,-2.4943,-2.497,-2.513,-2.5144,-2.4983,-2.513,-2.5237,-2.5237,-2.5224,-2.5251,-2.5358,-2.5371,-2.5411,-2.5491,-2.5438,-2.5371,-2.5384,-2.5291,-2.5237,-2.5211,-2.505,-2.4877,-2.4663,-2.4636,-2.4636,-2.4636,-2.4636,-2.4636,-2.4636,-2.4636,-2.4583,-2.4476,-2.4235,-2.3941,-2.3674,-2.3367,-2.3113,-2.2926,-2.2873,-2.2859,-2.2859,-2.2859,-2.2859,-2.2859,-2.2859,-2.2859,-2.2859,-2.2859,-2.2859,-2.2859,-2.2832,-2.2699,-2.2458,-2.2058,-2.175,-2.1483,-2.1195,-2.0873,-2.0374,-2.0361,-2.0094,-1.9623,-2.0005,-2.0779,-2.9913,-2.9913,-2.9913,-2.9913,-2.9913,-2.9913,-2.9753,-2.9459,-2.9165,-2.8871,-2.8577,-2.8368,-2.8234,-2.8234,-2.8234,-2.8234,-2.8234,-2.8234,-2.8234,-2.8234,-2.8234,-2.8234,-2.8234,-2.8234,-2.814,-2.7869,-2.7749,-2.7509,-2.7148,-2.6921,-2.672,-2.6573,-2.6453,-2.64,-2.64,-2.64,-2.64,-2.636,-2.6213,-2.6119,-2.6092,-2.5932,-2.5838,-2.5838,-2.5838,-2.5785,-2.5678,-2.5491,-2.5264,-2.505,-2.5144,-2.5237,-2.5264,-2.5411,-2.5424,-2.5331,-2.5398,-2.5504,-2.5518,-2.5478,-2.5571,-2.5638,-2.5678,-2.5745,-2.5785,-2.5772,-2.5678,-2.5678,-2.5558,-2.5518,-2.5478,-2.5358,-2.5117,-2.4836,-2.4703,-2.4649,-2.4636,-2.4636,-2.4636,-2.4636,-2.4636,-2.4636,-2.4583,-2.4382,-2.4155,-2.3928,-2.3581,-2.33,-2.306,-2.3008,-2.2899,-2.2873,-2.2859,-2.2859,-2.2859,-2.2859,-2.2859,-2.2859,-2.2859,-2.2859,-2.2859,-2.2928,-2.2834,-2.2525,-2.2178,-2.2017,-2.1777,-2.1643,-2.1343,-2.0747,-1.9952,-1.9914,-1.9838,-2.0348,-2.0982,-2.9913,-2.9913,-2.9913,-2.9913,-2.9913,-2.9913,-2.978,-2.9499,-2.9179,-2.8898,-2.8617,-2.8297,-2.8234,-2.8234,-2.8234,-2.8234,-2.8234,-2.8234,-2.8234,-2.8234,-2.8234,-2.8234,-2.8234,-2.8234,-2.8207,-2.8154,-2.7869,-2.7709,-2.7575,-2.7175,-2.6854,-2.6827,-2.6587,-2.6426,-2.6453,-2.6413,-2.64,-2.6386,-2.6373,-2.636,-2.636,-2.6346,-2.6346,-2.6333,-2.6319,-2.6213,-2.6012,-2.5945,-2.5812,-2.5571,-2.5531,-2.5545,-2.5531,-2.5545,-2.5611,-2.5558,-2.5558,-2.5611,-2.5585,-2.5651,-2.5732,-2.5959,-2.5985,-2.6157,-2.6226,-2.6092,-2.5972,-2.5959,-2.5772,-2.5625,-2.5625,-2.5558,-2.5398,-2.5104,-2.4796,-2.4649,-2.4636,-2.4636,-2.4636,-2.4636,-2.4636,-2.4636,-2.4623,-2.4409,-2.4275,-2.4102,-2.3741,-2.35,-2.3247,-2.31,-2.2926,-2.2873,-2.2859,-2.2859,-2.2859,-2.2859,-2.2859,-2.2859,-2.2859,-2.2859,-2.2859,-2.2928,-2.2914,-2.2592,-2.2378,-2.2231,-2.2084,-2.1924,-2.111,-1.9977,-1.9723,-1.9948,-2.0181,-2.0426,-2.099,-2.9913,-2.9913,-2.9913,-2.9913,-2.9913,-2.9913,-2.9873,-2.974,-2.9259,-2.9005,-2.8818,-2.8377,-2.8234,-2.8234,-2.8234,-2.8234,-2.8234,-2.8234,-2.8234,-2.8234,-2.8234,-2.8234,-2.8234,-2.8234,-2.8234,-2.8207,-2.8043,-2.7909,-2.7709,-2.7522,-2.7335,-2.7148,-2.6854,-2.6707,-2.6694,-2.6507,-2.64,-2.64,-2.64,-2.64,-2.64,-2.64,-2.64,-2.64,-2.64,-2.6346,-2.6279,-2.6279,-2.6146,-2.5879,-2.5838,-2.5838,-2.5852,-2.6012,-2.6026,-2.5892,-2.6026,-2.6146,-2.6146,-2.6132,-2.6186,-2.6253,-2.6253,-2.6306,-2.6373,-2.6319,-2.6279,-2.6266,-2.6186,-2.6132,-2.6119,-2.5945,-2.5625,-2.5144,-2.4863,-2.4676,-2.4636,-2.4636,-2.4636,-2.4636,-2.4636,-2.4636,-2.4609,-2.4556,-2.4422,-2.4249,-2.4035,-2.3794,-2.3527,-2.3273,-2.3113,-2.2995,-2.2928,-2.2859,-2.2859,-2.2859,-2.2859,-2.2859,-2.2859,-2.2859,-2.2859,-2.2859,-2.2846,-2.2752,-2.2552,-2.2392,-2.2271,-2.2138,-2.0775,-1.9682,-1.9754,-2.01,-1.9717,-1.9771,-2.0679,-2.9913,-2.9913,-2.9913,-2.9913,-2.9913,-2.9913,-2.9913,-2.9833,-2.9432,-2.9152,-2.8951,-2.8551,-2.827,-2.8234,-2.8234,-2.8234,-2.8234,-2.8234,-2.8234,-2.8234,-2.8234,-2.8234,-2.8234,-2.8234,-2.8234,-2.8234,-2.8234,-2.8043,-2.7883,-2.7762,-2.7602,-2.7428,-2.7148,-2.6947,-2.68,-2.668,-2.6507,-2.6413,-2.64,-2.64,-2.64,-2.64,-2.64,-2.64,-2.64,-2.64,-2.6386,-2.6386,-2.6306,-2.6172,-2.6132,-2.6146,-2.6146,-2.6279,-2.6306,-2.6224,-2.6306,-2.6386,-2.64,-2.64,-2.64,-2.6386,-2.64,-2.64,-2.64,-2.64,-2.64,-2.6373,-2.6386,-2.64,-2.6346,-2.6132,-2.5903,-2.5594,-2.5184,-2.4903,-2.469,-2.4636,-2.4636,-2.4636,-2.4636,-2.4636,-2.4636,-2.4636,-2.4556,-2.4409,-2.4262,-2.4035,-2.3781,-2.3527,-2.33,-2.314,-2.3008,-2.2899,-2.2886,-2.2886,-2.2859,-2.2859,-2.2859,-2.2859,-2.2859,-2.2859,-2.2859,-2.2806,-2.2686,-2.2579,-2.2485,-2.2203,-2.1385,-2.0637,-2.0374,-2.002,-1.9771,-1.974,-2.0664,-2.9913,-2.9913,-2.9913,-2.9913,-2.9913,-2.9913,-2.9913,-2.986,-2.9593,-2.9325,-2.9072,-2.8751,-2.8444,-2.8274,-2.8261,-2.8234,-2.8234,-2.8234,-2.8234,-2.8234,-2.8234,-2.8234,-2.8234,-2.8234,-2.8234,-2.8234,-2.8234,-2.8221,-2.8127,-2.7869,-2.7776,-2.7682,-2.7455,-2.7188,-2.7041,-2.6907,-2.6707,-2.6507,-2.648,-2.644,-2.6413,-2.64,-2.64,-2.64,-2.64,-2.64,-2.64,-2.64,-2.6373,-2.6386,-2.64,-2.636,-2.6373,-2.6386,-2.6386,-2.636,-2.6373,-2.64,-2.64,-2.64,-2.64,-2.64,-2.64,-2.64,-2.64,-2.64,-2.64,-2.64,-2.64,-2.64,-2.636,-2.6146,-2.5999,-2.5838,-2.5651,-2.5304,-2.4877,-2.4703,-2.4676,-2.4636,-2.4636,-2.4636,-2.4636,-2.4636,-2.4623,-2.4543,-2.4409,-2.4249,-2.4035,-2.3808,-2.3594,-2.3407,-2.3193,-2.2939,-2.2926,-2.2981,-2.2886,-2.2859,-2.2859,-2.2859,-2.2859,-2.2859,-2.2859,-2.2819,-2.2752,-2.2739,-2.2766,-2.2358,-2.1735,-2.099,-2.0347,-2.0202,-2.0093,-2.0313,-2.0956,-2.9913,-2.9913,-2.9913,-2.9913,-2.9913,-2.9913,-2.9913,-2.9887,-2.9606,-2.9459,-2.9272,-2.8845,-2.8591,-2.8484,-2.8257,-2.8234,-2.8234,-2.8234,-2.8234,-2.8234,-2.8234,-2.8234,-2.8234,-2.8234,-2.8234,-2.8234,-2.8234,-2.8234,-2.8194,-2.8154,-2.8127,-2.7989,-2.7749,-2.7575,-2.7468,-2.7241,-2.7028,-2.6774,-2.6734,-2.6613,-2.644,-2.6413,-2.6413,-2.64,-2.64,-2.64,-2.64,-2.64,-2.64,-2.64,-2.64,-2.64,-2.64,-2.64,-2.64,-2.64,-2.64,-2.64,-2.64,-2.64,-2.64,-2.64,-2.64,-2.64,-2.64,-2.64,-2.64,-2.64,-2.64,-2.64,-2.6373,-2.6346,-2.6186,-2.6026,-2.5905,-2.5718,-2.5384,-2.5117,-2.489,-2.4716,-2.4636,-2.4636,-2.4636,-2.4636,-2.4636,-2.4623,-2.4556,-2.4436,-2.4262,-2.4062,-2.3875,-2.3688,-2.3354,-2.3126,-2.306,-2.2993,-2.2873,-2.2859,-2.2859,-2.2859,-2.2859,-2.2448,-2.2297,-2.2516,-2.2846,-2.2791,-2.2297,-2.2777,-2.2261,-2.1277,-2.0496,-2.04,-2.0464,-2.0773,-2.0897,-2.9913,-2.9913,-2.9913,-2.9913,-2.9913,-2.9913,-2.9913,-2.9887,-2.9766,-2.9606,-2.9406,-2.8991,-2.8738,-2.8577,-2.8297,-2.8234,-2.8234,-2.8234,-2.8234,-2.8234,-2.8234,-2.8234,-2.8234,-2.8234,-2.8234,-2.8234,-2.8234,-2.8234,-2.8234,-2.8234,-2.8207,-2.8234,-2.7976,-2.7816,-2.7722,-2.7549,-2.7321,-2.7094,-2.7028,-2.6894,-2.664,-2.6587,-2.6493,-2.6413,-2.64,-2.64,-2.64,-2.64,-2.64,-2.64,-2.64,-2.64,-2.64,-2.64,-2.64,-2.64,-2.64,-2.64,-2.64,-2.64,-2.64,-2.64,-2.64,-2.64,-2.64,-2.64,-2.64,-2.64,-2.64,-2.64,-2.64,-2.6386,-2.6279,-2.6226,-2.6159,-2.6026,-2.5732,-2.5344,-2.5037,-2.485,-2.473,-2.4663,-2.4636,-2.4636,-2.4636,-2.4623,-2.4623,-2.4529,-2.4462,-2.4275,-2.4128,-2.3901,-2.3541,-2.33,-2.3233,-2.31,-2.2886,-2.2859,-2.2859,-2.2859,-2.2859,-2.216,-2.1459,-2.1665,-2.1885,-2.1527,-2.1252,-2.1953,-2.2722,-2.2121,-2.1477,-2.0951,-2.0443,-2.0233,-2.0359,-2.9913,-2.9913,-2.9913,-2.9913,-2.9913,-2.9913,-2.9913,-2.9913,-2.9913,-2.9766,-2.9539,-2.9245,-2.8965,-2.8657,-2.8377,-2.8217,-2.8234,-2.8234,-2.8234,-2.8234,-2.8234,-2.8234,-2.8234,-2.8234,-2.8234,-2.8234,-2.8234,-2.8234,-2.8234,-2.8234,-2.8234,-2.8234,-2.8221,-2.8087,-2.7816,-2.7749,-2.7615,-2.7375,-2.7335,-2.7188,-2.6947,-2.6881,-2.6774,-2.6653,-2.6613,-2.6613,-2.66,-2.6547,-2.6466,-2.6453,-2.6413,-2.64,-2.64,-2.64,-2.64,-2.64,-2.64,-2.64,-2.64,-2.64,-2.64,-2.64,-2.64,-2.64,-2.64,-2.64,-2.64,-2.64,-2.64,-2.64,-2.64,-2.64,-2.64,-2.6373,-2.6386,-2.6279,-2.6012,-2.5531,-2.5277,-2.5037,-2.489,-2.4783,-2.4676,-2.4636,-2.4636,-2.4636,-2.4636,-2.4623,-2.4556,-2.4489,-2.4342,-2.4209,-2.3888,-2.346,-2.334,-2.2256,-2.219,-2.2775,-2.2831,-2.2886,-2.2598,-2.0894,-1.9993,-2.0409,-2.0479,-2.0271,-2.0756,-2.1885,-2.2435,-2.2585,-2.1734,-2.0397,-1.9843,-1.9565,-1.9704,-2.9913,-2.9913,-2.9913,-2.9913,-2.9913,-2.9913,-2.9913,-2.9913,-2.9913,-2.9887,-2.9793,-2.9526,-2.9219,-2.8938,-2.8657,-2.8404,-2.8274,-2.8234,-2.8234,-2.8234,-2.8234,-2.8234,-2.8234,-2.8234,-2.8234,-2.8234,-2.8234,-2.8234,-2.8234,-2.8234,-2.8234,-2.8234,-2.8234,-2.8167,-2.814,-2.8127,-2.7896,-2.7669,-2.7629,-2.7468,-2.7255,-2.7148,-2.7134,-2.7028,-2.7014,-2.7028,-2.7014,-2.6867,-2.6747,-2.6734,-2.652,-2.644,-2.6453,-2.6453,-2.644,-2.64,-2.6426,-2.6453,-2.644,-2.644,-2.6413,-2.64,-2.6426,-2.6413,-2.6413,-2.64,-2.64,-2.64,-2.64,-2.64,-2.64,-2.64,-2.64,-2.64,-2.6386,-2.636,-2.6239,-2.5985,-2.5585,-2.5264,-2.509,-2.4917,-2.4796,-2.469,-2.4636,-2.4636,-2.4636,-2.4636,-2.4596,-2.4583,-2.4556,-2.4436,-2.4302,-2.3821,-2.342,-2.184,-2.1154,-2.2341,-2.2704,-2.2953,-2.2018,-1.9367,-1.8519,-1.9077,-1.9426,-1.9426,-2.034,-2.1459,-2.1596,-2.1252,-2.0397,-1.9553,-1.8578,-1.7879,-1.8369,-2.9913,-2.9913,-2.9913,-2.9913,-2.9913,-2.9913,-2.9913,-2.9913,-2.9913,-2.9913,-2.9833,-2.9606,-2.9312,-2.9018,-2.8738,-2.843,-2.8301,-2.8234,-2.8234,-2.8234,-2.8234,-2.8234,-2.8234,-2.8234,-2.8234,-2.8234,-2.8234,-2.8234,-2.8234,-2.8234,-2.8234,-2.8234,-2.8234,-2.8234,-2.8221,-2.8207,-2.8154,-2.7936,-2.7909,-2.7776,-2.7495,-2.7375,-2.7363,-2.735,-2.7363,-2.735,-2.7241,-2.7161,-2.7054,-2.7028,-2.6921,-2.6854,-2.6827,-2.68,-2.6707,-2.6493,-2.6533,-2.6613,-2.6653,-2.6734,-2.6867,-2.6841,-2.672,-2.6613,-2.6573,-2.6507,-2.6413,-2.64,-2.64,-2.64,-2.64,-2.64,-2.64,-2.64,-2.64,-2.64,-2.636,-2.6253,-2.5932,-2.5518,-2.5264,-2.5077,-2.493,-2.4796,-2.4676,-2.4636,-2.4636,-2.4636,-2.4636,-2.4636,-2.4562,-2.4101,-2.3736,-2.2298,-2.1998,-2.1186,-2.0437,-2.1567,-2.2736,-2.3044,-2.1899,-1.9551,-1.8282,-1.8089,-1.8369,-1.7739,-1.8938,-1.9773,-1.9773,-2.0051,-1.9843,-1.9206,-1.7248,-1.6333,-1.6685,-2.9913,-2.9913,-2.9913,-2.9913,-2.9913,-2.9913,-2.9913,-2.9913,-2.9913,-2.9913,-2.9873,-2.9673,-2.9379,-2.9018,-2.8671,-2.8364,-2.8234,-2.8234,-2.8234,-2.8234,-2.8234,-2.8234,-2.8234,-2.8234,-2.8234,-2.8234,-2.8234,-2.8234,-2.8234,-2.8234,-2.8234,-2.8234,-2.8234,-2.8234,-2.8234,-2.8234,-2.8234,-2.8234,-2.8221,-2.8003,-2.7776,-2.7575,-2.7524,-2.7524,-2.7442,-2.7551,-2.7591,-2.7402,-2.7362,-2.7335,-2.7281,-2.7323,-2.7336,-2.735,-2.7041,-2.6694,-2.68,-2.6881,-2.6961,-2.7068,-2.7256,-2.7161,-2.7014,-2.6934,-2.6841,-2.668,-2.648,-2.6413,-2.64,-2.64,-2.64,-2.64,-2.64,-2.64,-2.64,-2.64,-2.64,-2.6333,-2.6266,-2.5892,-2.5504,-2.5237,-2.509,-2.481,-2.4649,-2.4636,-2.4636,-2.4636,-2.4636,-2.4636,-2.4401,-2.3745,-2.2719,-2.0784,-2.014,-2.0195,-2.0093,-2.0971,-2.239,-2.335,-2.1931,-1.9992,-1.8986,-1.7642,-1.5212,-1.4858,-1.6474,-1.8309,-1.9147,-1.9634,-1.9773,-1.8648,-1.6263,-1.4716,-1.4503,-2.9913,-2.9913,-2.9913,-2.9913,-2.9913,-2.9913,-2.9913,-2.9913,-2.9913,-2.9913,-2.9913,-2.9847,-2.9539,-2.9018,-2.8444,-2.8288,-2.8234,-2.8234,-2.8234,-2.8234,-2.8234,-2.8234,-2.8234,-2.8234,-2.8234,-2.8234,-2.8234,-2.8234,-2.8234,-2.8234,-2.8234,-2.8234,-2.8234,-2.8234,-2.8234,-2.8234,-2.8234,-2.8234,-2.8234,-2.8207,-2.807,-2.8087,-2.8073,-2.8073,-2.806,-2.8047,-2.798,-2.7749,-2.7655,-2.7629,-2.7415,-2.7295,-2.735,-2.735,-2.7255,-2.7188,-2.7201,-2.7215,-2.7228,-2.7321,-2.7457,-2.747,-2.7255,-2.7228,-2.7108,-2.6921,-2.668,-2.64,-2.6413,-2.64,-2.64,-2.64,-2.64,-2.64,-2.64,-2.64,-2.64,-2.6386,-2.6319,-2.6213,-2.5825,-2.5491,-2.5251,-2.4917,-2.4636,-2.4636,-2.4562,-2.4562,-2.4488,-2.4401,-2.4018,-2.3239,-2.1704,-1.9649,-1.8364,-1.8441,-1.8885,-1.9854,-2.1738,-2.3203,-2.2007,-2.0306,-1.8745,-1.7092,-1.4487,-1.2998,-1.4491,-1.6391,-1.832,-1.8868,-1.8578,-1.7037,-1.507,-1.3872,-1.2888,-2.9913,-2.9913,-2.9913,-2.9913,-2.9913,-2.9913,-2.9913,-2.9913,-2.9913,-2.9913,-2.9913,-2.9913,-2.9593,-2.9005,-2.8417,-2.8234,-2.8234,-2.8234,-2.8234,-2.8234,-2.8234,-2.8234,-2.8234,-2.8234,-2.8234,-2.8234,-2.8234,-2.8234,-2.8234,-2.8234,-2.8234,-2.8234,-2.8234,-2.8234,-2.8234,-2.8234,-2.8234,-2.8234,-2.8234,-2.8234,-2.8234,-2.8234,-2.8234,-2.8234,-2.8234,-2.8234,-2.8194,-2.8043,-2.7949,-2.7936,-2.7802,-2.7762,-2.7762,-2.7859,-2.7846,-2.7846,-2.7846,-2.7765,-2.7562,-2.7752,-2.7792,-2.7779,-2.7602,-2.7442,-2.7295,-2.7148,-2.6947,-2.6667,-2.664,-2.656,-2.644,-2.64,-2.64,-2.64,-2.64,-2.64,-2.64,-2.64,-2.636,-2.6253,-2.6146,-2.5812,-2.5491,-2.5197,-2.4416,-2.3315,-2.3525,-2.3796,-2.387,-2.3944,-2.3413,-2.2657,-2.0669,-1.8512,-1.7341,-1.6766,-1.6832,-1.8001,-2.0608,-2.1728,-2.18,-2.0596,-1.921,-1.7631,-1.5506,-1.4436,-1.381,-1.4714,-1.6766,-1.7107,-1.7107,-1.6192,-1.5212,-1.3095,-1.2674,-2.9913,-2.9913,-2.9913,-2.9913,-2.9913,-2.9913,-2.9913,-2.9913,-2.9913,-2.9913,-2.9887,-2.982,-2.9513,-2.9032,-2.8524,-2.8243,-2.8234,-2.8234,-2.8234,-2.8234,-2.8234,-2.8234,-2.8234,-2.8234,-2.8234,-2.8234,-2.8234,-2.8234,-2.8234,-2.8234,-2.8234,-2.8234,-2.8234,-2.8234,-2.8234,-2.8234,-2.8234,-2.8234,-2.8234,-2.8234,-2.8234,-2.8234,-2.8234,-2.8234,-2.8234,-2.8234,-2.8234,-2.8221,-2.8207,-2.8194,-2.8181,-2.814,-2.8154,-2.814,-2.814,-2.814,-2.814,-2.8073,-2.7909,-2.8047,-2.8207,-2.8154,-2.7963,-2.7709,-2.7442,-2.7362,-2.7255,-2.6961,-2.6934,-2.6787,-2.6587,-2.652,-2.6466,-2.644,-2.64,-2.64,-2.64,-2.64,-2.6386,-2.6333,-2.6226,-2.6092,-2.5785,-2.5594,-2.4428,-2.2542,-2.242,-2.2905,-2.3042,-2.3116,-2.3264,-2.2583,-2.1216,-1.9091,-1.7644,-1.6657,-1.6218,-1.6268,-1.8999,-2.0791,-2.1176,-2.0974,-2.0,-1.8332,-1.6414,-1.4537,-1.3117,-1.417,-1.5203,-1.6263,-1.7107,-1.6756,-1.5628,-1.3381,-1.2115,-2.9913,-2.9913,-2.9913,-2.9913,-2.9913,-2.9913,-2.9913,-2.9913,-2.9913,-2.9913,-2.9873,-2.9633,-2.9366,-2.9018,-2.8684,-2.8377,-2.8234,-2.8234,-2.8234,-2.8234,-2.8234,-2.8234,-2.8234,-2.8234,-2.8234,-2.8234,-2.8234,-2.8234,-2.8234,-2.8234,-2.8234,-2.8234,-2.8234,-2.8234,-2.8234,-2.8234,-2.8234,-2.8234,-2.8234,-2.8234,-2.8234,-2.8234,-2.8234,-2.8234,-2.8234,-2.8234,-2.8234,-2.8234,-2.8234,-2.8234,-2.8234,-2.8234,-2.8234,-2.8234,-2.8234,-2.8234,-2.8234,-2.8181,-2.8167,-2.8167,-2.8207,-2.8221,-2.8167,-2.7949,-2.7709,-2.7669,-2.7522,-2.7295,-2.7241,-2.7094,-2.6907,-2.676,-2.6627,-2.6533,-2.6453,-2.64,-2.64,-2.64,-2.6386,-2.6386,-2.6306,-2.6199,-2.6066,-2.5798,-2.4534,-2.2645,-2.1064,-2.147,-2.1688,-2.19,-2.2967,-2.2881,-2.1975,-2.038,-1.8799,-1.7512,-1.5693,-1.5769,-1.7662,-1.9693,-2.1061,-2.0677,-2.058,-1.8801,-1.6868,-1.4671,-1.2822,-1.354,-1.4529,-1.632,-1.6977,-1.631,-1.5584,-1.3943,-1.2538,-2.9913,-2.9913,-2.9913,-2.9913,-2.9913,-2.9913,-2.9913,-2.9913,-2.9913,-2.9913,-2.99,-2.9606,-2.9325,-2.9032,-2.8738,-2.843,-2.8261,-2.8234,-2.8234,-2.8234,-2.8234,-2.8234,-2.8234,-2.8234,-2.8234,-2.8234,-2.8234,-2.8234,-2.8234,-2.8234,-2.8234,-2.8234,-2.8234,-2.8234,-2.8234,-2.8234,-2.8234,-2.8234,-2.8234,-2.8234,-2.8234,-2.8234,-2.8234,-2.8234,-2.8234,-2.8234,-2.8234,-2.8234,-2.8234,-2.8234,-2.8234,-2.8234,-2.8234,-2.8234,-2.8234,-2.8234,-2.8234,-2.8234,-2.8234,-2.8234,-2.8234,-2.8234,-2.8221,-2.8083,-2.7949,-2.7963,-2.7816,-2.7642,-2.7535,-2.7402,-2.7161,-2.6934,-2.6747,-2.664,-2.6547,-2.6453,-2.64,-2.64,-2.6386,-2.6386,-2.6386,-2.6333,-2.6199,-2.6052,-2.4456,-2.2733,-2.1238,-2.0027,-2.0103,-2.0767,-2.19,-2.2732,-2.1975,-2.0617,-1.895,-1.698,-1.4935,-1.5463,-1.6371,-1.7967,-1.9704,-2.1279,-2.0831,-1.9106,-1.7385,-1.5434,-1.3984,-1.3104,-1.3994,-1.609,-1.6221,-1.5417,-1.4731,-1.4332,-1.3126,-2.9913,-2.9913,-2.9913,-2.9913,-2.9913,-2.9913,-2.9913,-2.9913,-2.9913,-2.9913,-2.99,-2.9686,-2.9379,-2.9058,-2.8845,-2.8497,-2.8243,-2.8234,-2.8234,-2.8234,-2.8234,-2.8234,-2.8234,-2.8234,-2.8234,-2.8234,-2.8234,-2.8234,-2.8234,-2.8234,-2.8234,-2.8234,-2.8234,-2.8234,-2.8234,-2.8234,-2.8234,-2.8234,-2.8234,-2.8234,-2.8234,-2.8234,-2.8234,-2.8234,-2.8234,-2.8234,-2.8234,-2.8234,-2.8234,-2.8234,-2.8234,-2.8234,-2.8234,-2.8234,-2.8234,-2.8234,-2.8234,-2.8234,-2.8234,-2.8234,-2.8234,-2.8234,-2.8234,-2.8221,-2.8234,-2.8221,-2.7989,-2.7883,-2.7816,-2.7709,-2.7428,-2.7255,-2.6974,-2.6854,-2.6694,-2.6587,-2.644,-2.64,-2.64,-2.6386,-2.6386,-2.6386,-2.6333,-2.595,-2.3827,-2.1779,-1.9296,-1.8211,-1.8143,-1.9119,-2.0767,-2.1527,-2.1826,-2.0391,-1.8799,-1.7436,-1.5998,-1.4099,-1.5004,-1.6142,-1.7805,-1.9779,-2.0155,-1.7888,-1.6455,-1.5882,-1.4616,-1.3047,-1.4144,-1.5985,-1.6003,-1.602,-1.5777,-1.5381,-1.3578,-2.9913,-2.9913,-2.9913,-2.9913,-2.9913,-2.9913,-2.9913,-2.9913,-2.9913,-2.9913,-2.9913,-2.986,-2.9566,-2.9165,-2.9018,-2.8684,-2.8283,-2.8261,-2.8234,-2.8234,-2.8234,-2.8234,-2.8234,-2.8234,-2.8234,-2.8234,-2.8234,-2.8234,-2.8234,-2.8234,-2.8234,-2.8234,-2.8234,-2.8234,-2.8234,-2.8234,-2.8234,-2.8234,-2.8234,-2.8234,-2.8234,-2.8234,-2.8234,-2.8234,-2.8234,-2.8234,-2.8234,-2.8234,-2.8234,-2.8234,-2.8234,-2.8234,-2.8234,-2.8234,-2.8234,-2.8234,-2.8234,-2.8234,-2.8234,-2.8234,-2.8234,-2.8234,-2.8234,-2.8234,-2.8234,-2.8221,-2.8221,-2.81,-2.814,-2.7949,-2.7789,-2.7615,-2.7295,-2.7081,-2.6921,-2.6707,-2.656,-2.64,-2.64,-2.64,-2.64,-2.6386,-2.6386,-2.574,-2.332,-2.0797,-1.7754,-1.6536,-1.6423,-1.7405,-1.9129,-2.0296,-2.091,-2.0841,-1.9478,-1.8648,-1.7056,-1.4705,-1.3714,-1.4935,-1.6675,-1.895,-1.8411,-1.6447,-1.6487,-1.6802,-1.4802,-1.2628,-1.4104,-1.5537,-1.701,-1.7306,-1.7068,-1.6067,-1.418,-2.9913,-2.9913,-2.9913,-2.9913,-2.9913,-2.9913,-2.9913,-2.9913,-2.9913,-2.9913,-2.9913,-2.9913,-2.9726,-2.9379,-2.9085,-2.8804,-2.8484,-2.8274,-2.8234,-2.8234,-2.8234,-2.8234,-2.8234,-2.8234,-2.8234,-2.8234,-2.8234,-2.8234,-2.8234,-2.8234,-2.8234,-2.8234,-2.8234,-2.8234,-2.8234,-2.8234,-2.8234,-2.8234,-2.8234,-2.8234,-2.8234,-2.8234,-2.8234,-2.8234,-2.8234,-2.8234,-2.8234,-2.8234,-2.8234,-2.8234,-2.8234,-2.8234,-2.8234,-2.8234,-2.8234,-2.8234,-2.8234,-2.8234,-2.8234,-2.8234,-2.8234,-2.8234,-2.8234,-2.8234,-2.8234,-2.8234,-2.8234,-2.8234,-2.8234,-2.814,-2.81,-2.7776,-2.7522,-2.7402,-2.7215,-2.6894,-2.668,-2.6493,-2.64,-2.64,-2.64,-2.6228,-2.6136,-2.4522,-2.2236,-2.0703,-1.8065,-1.5614,-1.4932,-1.5956,-1.7374,-1.8678,-1.9626,-2.0285,-2.008,-1.8421,-1.7284,-1.531,-1.3945,-1.3799,-1.5845,-1.7815,-1.7967,-1.6675,-1.736,-1.7739,-1.5165,-1.3182,-1.3754,-1.4992,-1.6098,-1.6693,-1.6204,-1.5424,-1.4343,-2.9913,-2.9913,-2.9913,-2.9913,-2.9913,-2.9913,-2.9913,-2.9913,-2.9913,-2.9913,-2.9913,-2.9913,-2.974,-2.9459,-2.9179,-2.8885,-2.8591,-2.8283,-2.8234,-2.8234,-2.8234,-2.8234,-2.8234,-2.8234,-2.8234,-2.8234,-2.8234,-2.8234,-2.8234,-2.8234,-2.8234,-2.8234,-2.8234,-2.8234,-2.8234,-2.8234,-2.8234,-2.8234,-2.8234,-2.8234,-2.8234,-2.8234,-2.8234,-2.8234,-2.8234,-2.8234,-2.8234,-2.8234,-2.8234,-2.8234,-2.8234,-2.8234,-2.8234,-2.8234,-2.8234,-2.8234,-2.8234,-2.8234,-2.8234,-2.8234,-2.8234,-2.8234,-2.8234,-2.8234,-2.8234,-2.8234,-2.8234,-2.8234,-2.8234,-2.8221,-2.8181,-2.7869,-2.7776,-2.7655,-2.7455,-2.7148,-2.68,-2.6613,-2.6466,-2.6453,-2.6149,-2.5977,-2.5079,-2.306,-2.0905,-1.9735,-1.8394,-1.6062,-1.3923,-1.4963,-1.606,-1.7371,-1.8662,-1.9475,-1.9077,-1.7436,-1.6371,-1.5616,-1.4552,-1.3344,-1.4099,-1.5922,-1.6447,-1.6904,-1.6751,-1.6218,-1.4782,-1.3853,-1.3692,-1.3877,-1.4546,-1.496,-1.496,-1.4612,-1.4058,-2.9913,-2.9913,-2.9913,-2.9913,-2.9913,-2.9913,-2.9913,-2.9913,-2.9913,-2.9913,-2.9913,-2.9913,-2.978,-2.9499,-2.9192,-2.8911,-2.8617,-2.831,-2.8261,-2.8234,-2.8234,-2.8234,-2.8234,-2.8234,-2.8234,-2.8234,-2.8234,-2.8234,-2.8234,-2.8234,-2.8234,-2.8234,-2.8234,-2.8234,-2.8234,-2.8234,-2.8234,-2.8234,-2.8234,-2.8234,-2.8234,-2.8234,-2.8234,-2.8234,-2.8234,-2.8234,-2.8234,-2.8234,-2.8234,-2.8234,-2.8234,-2.8234,-2.8234,-2.8234,-2.8234,-2.8234,-2.8234,-2.8234,-2.8234,-2.8234,-2.8234,-2.8234,-2.8234,-2.8234,-2.8234,-2.8234,-2.8234,-2.8234,-2.8234,-2.8234,-2.8194,-2.8127,-2.7989,-2.7843,-2.7709,-2.7375,-2.6974,-2.676,-2.6613,-2.6361,-2.5937,-2.5171,-2.314,-2.112,-1.9167,-1.8181,-1.7005,-1.5575,-1.3987,-1.4398,-1.5447,-1.6346,-1.7641,-1.8805,-1.818,-1.7578,-1.698,-1.6675,-1.4099,-1.2881,-1.3568,-1.4253,-1.531,-1.5845,-1.5463,-1.4705,-1.3637,-1.3112,-1.2804,-1.3139,-1.3632,-1.3778,-1.4075,-1.4414,-1.3922,-2.9913,-2.9913,-2.9913,-2.9913,-2.9913,-2.9913,-2.9913,-2.9913,-2.9913,-2.9913,-2.9913,-2.9913,-2.9833,-2.9753,-2.9272,-2.9018,-2.8738,-2.8444,-2.8301,-2.8234,-2.8234,-2.8234,-2.8234,-2.8234,-2.8234,-2.8234,-2.8234,-2.8234,-2.8234,-2.8234,-2.8234,-2.8234,-2.8234,-2.8234,-2.8234,-2.8234,-2.8234,-2.8234,-2.8234,-2.8234,-2.8234,-2.8234,-2.8234,-2.8234,-2.8234,-2.8234,-2.8234,-2.8234,-2.8234,-2.8234,-2.8234,-2.8234,-2.8234,-2.8234,-2.8234,-2.8234,-2.8234,-2.8234,-2.8234,-2.8234,-2.8234,-2.8234,-2.8234,-2.8234,-2.8234,-2.8234,-2.8234,-2.8234,-2.8234,-2.8234,-2.8234,-2.8194,-2.8167,-2.8003,-2.7829,-2.7549,-2.7175,-2.6934,-2.668,-2.5512,-2.5171,-2.282,-2.0797,-1.8923,-1.7138,-1.6328,-1.5499,-1.4414,-1.3877,-1.4224,-1.4662,-1.5496,-1.6634,-1.7757,-1.9208,-1.8952,-1.8329,-1.7436,-1.4935,-1.2965,-1.3035,-1.3791,-1.4629,-1.4851,-1.4705,-1.3945,-1.2958,-1.2579,-1.2501,-1.2501,-1.293,-1.3021,-1.3175,-1.3563,-1.3686,-2.982,-2.9913,-2.9913,-2.9913,-2.9913,-2.9913,-2.9913,-2.9913,-2.9913,-2.9913,-2.9913,-2.9913,-2.9847,-2.9659,-2.9259,-2.8965,-2.8791,-2.8377,-2.8234,-2.8234,-2.8234,-2.8234,-2.8234,-2.8234,-2.8234,-2.8234,-2.8234,-2.8234,-2.8234,-2.8234,-2.8234,-2.8234,-2.8234,-2.8234,-2.8234,-2.8234,-2.8234,-2.8234,-2.8234,-2.8234,-2.8234,-2.8234,-2.8234,-2.8234,-2.8234,-2.8234,-2.8234,-2.8234,-2.8234,-2.8234,-2.8234,-2.8234,-2.8234,-2.8234,-2.8234,-2.8234,-2.8234,-2.8234,-2.8234,-2.8234,-2.8234,-2.8234,-2.8234,-2.8234,-2.8234,-2.8234,-2.8234,-2.8234,-2.8234,-2.8234,-2.8234,-2.8221,-2.8221,-2.8221,-2.7923,-2.7696,-2.7415,-2.7134,-2.6076,-2.4781,-2.282,-2.0382,-1.8354,-1.6492,-1.5267,-1.4863,-1.4541,-1.4045,-1.3535,-1.3638,-1.3846,-1.4385,-1.5545,-1.6687,-1.8242,-1.9632,-1.8688,-1.754,-1.6015,-1.4268,-1.3498,-1.3035,-1.3645,-1.3945,-1.4099,-1.3337,-1.2579,-1.2579,-1.2501,-1.2501,-1.2501,-1.2656,-1.2804,-1.2867,-1.2853,-2.9606,-2.982,-2.9847,-2.9793,-2.9833,-2.9806,-2.9806,-2.9847,-2.9793,-2.9873,-2.9887,-2.9887,-2.9726,-2.9499,-2.9125,-2.8845,-2.8631,-2.831,-2.8234,-2.8234,-2.8234,-2.8234,-2.8234,-2.8234,-2.8234,-2.8234,-2.8234,-2.8234,-2.8234,-2.8234,-2.8234,-2.8234,-2.8234,-2.8234,-2.8234,-2.8234,-2.8234,-2.8234,-2.8234,-2.8234,-2.8234,-2.8234,-2.8234,-2.8234,-2.8234,-2.8234,-2.8234,-2.8234,-2.8234,-2.8234,-2.8234,-2.8234,-2.8234,-2.8234,-2.8234,-2.8234,-2.8234,-2.8234,-2.8234,-2.8234,-2.8234,-2.8234,-2.8234,-2.8234,-2.8234,-2.8234,-2.8234,-2.8234,-2.8234,-2.8234,-2.8234,-2.8052,-2.8052,-2.7448,-2.6825,-2.6594,-2.6338,-2.5773,-2.4758,-2.3097,-2.0463,-1.8109,-1.6492,-1.4781,-1.4458,-1.3804,-1.3562,-1.3397,-1.3397,-1.3376,-1.3487,-1.3704,-1.5038,-1.6518,-1.8072,-1.902,-1.8329,-1.7297,-1.6274,-1.4653,-1.312,-1.2656,-1.2501,-1.2958,-1.3337,-1.3035,-1.2501,-1.2501,-1.2501,-1.2501,-1.2501,-1.2501,-1.2501,-1.2501,-1.2501,-2.9179,-2.9259,-2.9245,-2.9245,-2.9245,-2.9245,-2.9259,-2.9245,-2.9245,-2.9513,-2.982,-2.9686,-2.9539,-2.9366,-2.8938,-2.8671,-2.8537,-2.8283,-2.8248,-2.8234,-2.8234,-2.8234,-2.8234,-2.8234,-2.8234,-2.8234,-2.8234,-2.8234,-2.8234,-2.8234,-2.8234,-2.8234,-2.8234,-2.8234,-2.8234,-2.8234,-2.8234,-2.8234,-2.8234,-2.8234,-2.8234,-2.8234,-2.8234,-2.8234,-2.8234,-2.8234,-2.8234,-2.8234,-2.8234,-2.8234,-2.8234,-2.8234,-2.8234,-2.8234,-2.8234,-2.8234,-2.8234,-2.8234,-2.8234,-2.8234,-2.8234,-2.8234,-2.8234,-2.8234,-2.8234,-2.8234,-2.8234,-2.8234,-2.8234,-2.8234,-2.8136,-2.8052,-2.7617,-2.6588,-2.5701,-2.5385,-2.5057,-2.4022,-2.3179,-2.0874,-1.8137,-1.6328,-1.4698,-1.3969,-1.3562,-1.3397,-1.348,-1.3397,-1.3397,-1.339,-1.339,-1.3788,-1.5066,-1.6567,-1.8004,-1.8769,-1.8309,-1.7853,-1.6975,-1.509,-1.2909,-1.2579,-1.2501,-1.2501,-1.2579,-1.2501,-1.2501,-1.2501,-1.2501,-1.2501,-1.2501,-1.2501,-1.2501,-1.2501,-1.2501,-2.8925,-2.8945,-2.8958,-2.8958,-2.8958,-2.8958,-2.8958,-2.8958,-2.8958,-2.9219,-2.9486,-2.9352,-2.9219,-2.9125,-2.8738,-2.8484,-2.8417,-2.823,-2.8248,-2.8234,-2.8234,-2.8234,-2.8234,-2.8234,-2.8234,-2.8234,-2.8234,-2.8234,-2.8234,-2.8234,-2.8234,-2.8234,-2.8234,-2.8234,-2.8234,-2.8234,-2.8234,-2.8234,-2.8234,-2.8234,-2.8234,-2.8234,-2.8234,-2.8234,-2.8234,-2.8234,-2.8234,-2.8234,-2.8234,-2.8234,-2.8234,-2.8234,-2.8234,-2.8234,-2.8234,-2.8234,-2.8234,-2.8234,-2.8234,-2.8234,-2.8234,-2.8234,-2.8234,-2.8234,-2.8234,-2.8234,-2.8234,-2.8234,-2.8234,-2.8234,-2.8234,-2.8052,-2.6927,-2.5811,-2.507,-2.4576,-2.2788,-2.0931,-2.0088,-1.8664,-1.6483,-1.4946,-1.3804,-1.3721,-1.3397,-1.3397,-1.3397,-1.3397,-1.3397,-1.3397,-1.3397,-1.3624,-1.475,-1.5926,-1.7198,-1.8196,-1.867,-1.8131,-1.7382,-1.554,-1.3574,-1.2937,-1.2501,-1.2501,-1.2501,-1.2501,-1.2501,-1.2501,-1.2501,-1.2501,-1.2501,-1.2501,-1.2501,-1.2501,-1.2501,-2.8684,-2.8911,-2.8911,-2.8911,-2.8925,-2.8925,-2.8898,-2.8898,-2.8911,-2.8898,-2.8911,-2.8911,-2.8764,-2.8671,-2.8537,-2.835,-2.8301,-2.8261,-2.8234,-2.8234,-2.8234,-2.8234,-2.8234,-2.8234,-2.8234,-2.8234,-2.8234,-2.8234,-2.8234,-2.8234,-2.8234,-2.8234,-2.8234,-2.8234,-2.8234,-2.8234,-2.8234,-2.8234,-2.8234,-2.8234,-2.8234,-2.8234,-2.8234,-2.8234,-2.8234,-2.8234,-2.8234,-2.8234,-2.8234,-2.8234,-2.8234,-2.8234,-2.8234,-2.8234,-2.8234,-2.8234,-2.8234,-2.8234,-2.8234,-2.8234,-2.8234,-2.8234,-2.8234,-2.8234,-2.8234,-2.8136,-2.8136,-2.8136,-2.8136,-2.8136,-2.8136,-2.7968,-2.6673,-2.4508,-2.3841,-2.2887,-2.0492,-1.8429,-1.7648,-1.6715,-1.5291,-1.3742,-1.348,-1.3397,-1.3397,-1.3397,-1.3397,-1.3397,-1.3397,-1.3397,-1.3397,-1.3397,-1.3844,-1.5147,-1.654,-1.7332,-1.8126,-1.7704,-1.6792,-1.5469,-1.4248,-1.3198,-1.2562,-1.2501,-1.2501,-1.2508,-1.2501,-1.2501,-1.2501,-1.2501,-1.2501,-1.2501,-1.2501,-1.2501,-1.2501,-2.8341,-2.831,-2.831,-2.8408,-2.8323,-2.8323,-2.8323,-2.8395,-2.8337,-2.8395,-2.8364,-2.835,-2.8377,-2.8591,-2.8323,-2.8261,-2.8261,-2.8234,-2.8234,-2.8234,-2.8234,-2.8234,-2.8234,-2.8234,-2.8234,-2.8234,-2.8234,-2.8234,-2.8234,-2.8234,-2.8234,-2.8234,-2.8234,-2.8234,-2.8234,-2.8234,-2.8234,-2.8234,-2.8234,-2.8234,-2.8234,-2.8234,-2.8234,-2.8234,-2.8234,-2.8234,-2.8234,-2.8234,-2.8234,-2.8234,-2.8234,-2.8234,-2.8234,-2.8234,-2.8234,-2.8234,-2.8234,-2.8234,-2.8234,-2.8234,-2.8234,-2.8234,-2.8234,-2.8234,-2.8052,-2.7883,-2.7968,-2.8136,-2.8052,-2.8052,-2.8052,-2.8136,-2.7096,-2.303,-2.0932,-1.9694,-1.7785,-1.7341,-1.6919,-1.5985,-1.4871,-1.3936,-1.3397,-1.3397,-1.3397,-1.3397,-1.3397,-1.3397,-1.3397,-1.3397,-1.3397,-1.3397,-1.3397,-1.4698,-1.6237,-1.663,-1.708,-1.6759,-1.6246,-1.4906,-1.3901,-1.314,-1.2664,-1.2583,-1.2528,-1.2522,-1.2515,-1.2501,-1.2501,-1.2501,-1.2501,-1.2501,-1.2501,-1.2501,-1.2501]}]]